[[{"header":{"parameterUnit":"m.s-1","parameterCategory":1,"la1":30.6,"la2":29.2853,"lo1":-89.7004,"lo2":-87.6739,"dy":0.0162,"dx":0.0183,"nx":112,"ny":82,"refTime":"2024-04-10T06:00:00:Z","depth":0,"parameterNumber":2,"parameterNumberName":"U-component_of_WINDS"},"data":[0.0,0.0,0.0,0.0,0.0,0.0,0.0,0.0,0.0,0.0,0.0,0.0,0.0,0.0,0.0,0.0,0.0,0.0,0.0,0.0,0.0,0.0,0.0,0.0,0.0,0.0,0.0,0.0,0.0,0.0,0.0,0.0,0.0,0.0,0.0,0.0,0.0,0.0,0.0,0.0,0.0,0.0,0.0,0.0,0.0,0.0,0.0,0.0,0.0,0.0,0.0,0.0,0.0,0.0,0.0,0.0,0.0,0.0,0.0,0.0,0.0,0.0,0.0,0.0,0.0,0.0,0.0,0.0,0.0,0.0,0.0,0.0,0.0,0.0,0.0,0.0,0.0,0.0,0.0,0.0,0.0,0.0,0.0,0.0,0.0,0.0,0.0,0.0,0.0,0.0,0.0,1.9833,2.137,2.2057,2.1414,2.1938,2.204,2.1397,0.0,0.0,0.0,0.0,0.0,0.0,0.0,0.0,0.0,0.0,0.0,0.0,0.0,0.0,0.0,0.0,0.0,0.0,0.0,0.0,0.0,0.0,0.0,0.0,0.0,0.0,0.0,0.0,0.0,0.0,0.0,0.0,0.0,0.0,0.0,0.0,0.0,0.0,0.0,0.0,0.0,0.0,0.0,0.0,0.0,0.0,0.0,0.0,0.0,0.0,0.0,0.0,0.0,0.0,0.0,0.0,0.0,0.0,0.0,0.0,0.0,0.0,0.0,0.0,0.0,0.0,0.0,0.0,0.0,0.0,0.0,0.0,0.0,0.0,0.0,0.0,0.0,0.0,0.0,0.0,0.0,0.0,0.0,0.0,0.0,0.0,0.0,0.0,0.0,0.0,0.0,0.0,0.0,0.0,0.0,0.0,0.0,0.0,0.0,0.0,0.0,0.0,0.0,0.0,1.8386,1.9833,2.137,2.226,2.2141,2.2243,2.226,2.2141,0.0,0.0,0.0,0.0,0.0,0.0,0.0,0.0,0.0,0.0,0.0,0.0,0.0,0.0,0.0,0.0,0.0,0.0,0.0,0.0,0.0,0.0,0.0,0.0,0.0,0.0,0.0,0.0,0.0,0.0,0.0,0.0,0.0,0.0,0.0,0.0,0.0,0.0,0.0,0.0,0.0,0.0,0.0,0.0,0.0,0.0,0.0,0.0,0.0,0.0,0.0,0.0,0.0,0.0,0.0,0.0,0.0,0.0,0.0,0.0,0.0,0.0,0.0,0.0,0.0,0.0,0.0,0.0,0.0,0.0,0.0,0.0,0.0,0.0,0.0,0.0,0.0,0.0,0.0,0.0,0.0,0.0,0.0,0.0,0.0,0.0,0.0,0.0,0.0,0.0,0.0,0.0,0.0,0.0,0.0,0.0,0.0,0.0,0.0,0.0,0.0,0.0,0.0,1.8758,1.9435,2.0534,2.1651,2.231,2.231,2.231,2.231,2.231,2.231,0.0,0.0,0.0,0.0,0.0,0.0,0.0,0.0,0.0,0.0,0.0,0.0,0.0,0.0,0.0,0.0,0.0,0.0,0.0,0.0,0.0,0.0,0.0,0.0,0.0,0.0,0.0,0.0,0.0,0.0,0.0,0.0,0.0,0.0,0.0,0.0,0.0,0.0,0.0,0.0,0.0,0.0,0.0,0.0,0.0,0.0,0.0,0.0,0.0,0.0,0.0,0.0,0.0,0.0,0.0,0.0,0.0,0.0,0.0,0.0,0.0,0.0,0.0,0.0,0.0,0.0,0.0,0.0,0.0,0.0,0.0,0.0,0.0,0.0,0.0,0.0,0.0,0.0,0.0,0.0,0.0,0.0,0.0,0.0,0.0,0.0,0.0,0.0,0.0,0.0,0.0,0.0,0.0,0.0,0.0,0.0,0.0,0.0,0.0,0.0,0.0,0.0,1.9722,2.0517,2.1109,2.1854,2.231,2.231,2.231,2.2338,2.2388,2.2321,0.0,0.0,0.0,0.0,0.0,0.0,0.0,0.0,0.0,0.0,0.0,0.0,0.0,0.0,0.0,0.0,0.0,0.0,0.0,0.0,0.0,0.0,0.0,0.0,0.0,0.0,0.0,0.0,0.0,0.0,0.0,0.0,0.0,0.0,0.0,0.0,0.0,0.0,0.0,0.0,0.0,0.0,0.0,0.0,0.0,0.0,0.0,0.0,0.0,0.0,0.0,0.0,0.0,0.0,0.0,0.0,0.0,0.0,0.0,0.0,0.0,0.0,0.0,0.0,0.0,0.0,0.0,0.0,0.0,0.0,0.0,0.0,0.0,0.0,0.0,0.0,0.0,0.0,0.0,0.0,0.0,0.0,0.0,0.0,0.0,0.0,0.0,0.0,0.0,0.0,0.0,0.0,0.0,0.0,0.0,0.0,0.0,0.0,0.0,0.0,0.0,0.0,2.0196,2.1153,2.1204,2.1854,2.231,2.231,2.231,2.2415,2.266,2.2453,0.0,0.0,0.0,0.0,0.0,0.0,0.0,0.0,0.0,0.0,0.0,0.0,0.0,0.0,0.0,0.0,0.0,0.0,0.0,0.0,0.0,0.0,0.0,0.0,0.0,0.0,0.0,0.0,0.0,0.0,0.0,0.0,0.0,0.0,0.0,0.0,0.0,0.0,0.0,0.0,0.0,0.0,0.0,0.0,0.0,0.0,0.0,0.0,0.0,0.0,0.0,0.0,0.0,0.0,0.0,0.0,0.0,0.0,0.0,0.0,0.0,0.0,0.0,0.0,0.0,0.0,0.0,0.0,0.0,0.0,0.0,0.0,0.0,0.0,0.0,0.0,0.0,0.0,0.0,0.0,0.0,0.0,0.0,0.0,0.0,0.0,0.0,0.0,0.0,0.0,0.0,0.0,0.0,0.0,0.0,0.0,0.0,0.0,0.0,0.0,0.0,0.0,2.0848,2.139,0.0,2.2293,2.2563,2.2563,2.273,2.289,2.3021,0.0,0.0,0.0,0.0,0.0,0.0,0.0,0.0,0.0,0.0,0.0,0.0,0.0,0.0,0.0,0.0,0.0,0.0,0.0,0.0,0.0,0.0,0.0,0.0,0.0,0.0,0.0,0.0,0.0,0.0,0.0,0.0,0.0,0.0,0.0,0.0,0.0,0.0,0.0,0.0,0.0,0.0,0.0,0.0,0.0,0.0,0.0,0.0,0.0,0.0,0.0,0.0,0.0,0.0,0.0,0.0,0.0,0.0,0.0,0.0,0.0,0.0,0.0,0.0,0.0,0.0,0.0,0.0,0.0,0.0,0.0,0.0,0.0,0.0,0.0,0.0,0.0,0.0,0.0,0.0,0.0,0.0,0.0,0.0,0.0,0.0,0.0,0.0,0.0,0.0,0.0,0.0,0.0,0.0,0.0,0.0,0.0,0.0,0.0,0.0,0.0,0.0,2.1136,2.1397,2.1735,0.0,2.2463,2.2625,2.2695,2.2923,2.3117,2.3346,0.0,0.0,0.0,0.0,0.0,0.0,0.0,0.0,0.0,0.0,0.0,0.0,0.0,0.0,0.0,0.0,0.0,0.0,0.0,0.0,0.0,0.0,0.0,0.0,0.0,0.0,0.0,0.0,0.0,0.0,0.0,0.0,0.0,0.0,0.0,0.0,0.0,0.0,0.0,0.0,0.0,0.0,0.0,0.0,0.0,0.0,0.0,0.0,0.0,0.0,0.0,0.0,0.0,0.0,0.0,0.0,0.0,0.0,0.0,0.0,0.0,0.0,0.0,0.0,0.0,0.0,0.0,0.0,0.0,0.0,0.0,0.0,0.0,0.0,0.0,0.0,0.0,0.0,0.0,0.0,0.0,0.0,0.0,0.0,0.0,0.0,0.0,0.0,0.0,0.0,0.0,0.0,0.0,0.0,0.0,0.0,0.0,0.0,0.0,0.0,0.0,0.0,2.1221,2.1854,2.231,2.231,2.231,2.2426,2.2669,2.2721,2.2996,0.0,0.0,0.0,0.0,0.0,0.0,0.0,0.0,0.0,0.0,0.0,0.0,0.0,0.0,0.0,0.0,0.0,0.0,0.0,0.0,0.0,0.0,0.0,0.0,0.0,0.0,0.0,0.0,0.0,0.0,0.0,0.0,0.0,0.0,0.0,0.0,0.0,0.0,0.0,0.0,0.0,0.0,0.0,0.0,0.0,0.0,0.0,0.0,0.0,0.0,0.0,0.0,0.0,0.0,0.0,0.0,0.0,0.0,0.0,0.0,0.0,0.0,0.0,0.0,0.0,0.0,0.0,0.0,0.0,0.0,0.0,0.0,0.0,0.0,0.0,0.0,0.0,0.0,0.0,0.0,0.0,0.0,0.0,0.0,0.0,0.0,0.0,0.0,0.0,0.0,0.0,0.0,0.0,0.0,0.0,0.0,0.0,0.0,0.0,0.0,0.0,0.0,0.0,0.0,2.2175,2.231,2.231,2.2686,2.2965,2.3045,2.35,2.3837,2.4036,0.0,0.0,0.0,0.0,0.0,0.0,0.0,0.0,0.0,0.0,0.0,0.0,0.0,0.0,0.0,0.0,0.0,0.0,0.0,0.0,0.0,0.0,0.0,0.0,0.0,0.0,0.0,0.0,0.0,0.0,0.0,0.0,0.0,0.0,0.0,0.0,0.0,0.0,0.0,0.0,0.0,0.0,0.0,0.0,0.0,0.0,0.0,0.0,0.0,0.0,0.0,0.0,0.0,0.0,0.0,0.0,0.0,0.0,0.0,0.0,0.0,0.0,0.0,0.0,0.0,0.0,0.0,0.0,0.0,0.0,0.0,0.0,0.0,0.0,0.0,0.0,0.0,0.0,0.0,0.0,0.0,0.0,0.0,0.0,0.0,0.0,0.0,0.0,0.0,0.0,0.0,0.0,0.0,0.0,0.0,0.0,0.0,0.0,0.0,0.0,0.0,0.0,2.231,2.2371,2.2463,2.2463,2.289,2.3236,2.3392,2.3774,2.4074,2.419,0.0,0.0,0.0,0.0,0.0,0.0,0.0,0.0,0.0,0.0,0.0,0.0,0.0,0.0,0.0,0.0,0.0,0.0,0.0,0.0,0.0,0.0,0.0,0.0,0.0,0.0,0.0,0.0,0.0,0.0,0.0,0.0,0.0,0.0,0.0,0.0,0.0,0.0,0.0,0.0,0.0,0.0,0.0,0.0,0.0,0.0,0.0,0.0,0.0,0.0,0.0,0.0,0.0,0.0,0.0,0.0,0.0,0.0,0.0,0.0,0.0,0.0,0.0,0.0,0.0,0.0,0.0,0.0,0.0,0.0,0.0,0.0,0.0,0.0,0.0,0.0,0.0,0.0,0.0,0.0,0.0,0.0,0.0,0.0,0.0,0.0,0.0,0.0,0.0,0.0,0.0,0.0,0.0,0.0,0.0,0.0,0.0,0.0,0.0,0.0,0.0,0.0,2.231,2.2537,2.2695,2.2695,2.3021,2.3369,2.3671,2.3714,2.3876,2.417,0.0,0.0,0.0,0.0,0.0,0.0,0.0,0.0,0.0,0.0,0.0,0.0,0.0,0.0,0.0,0.0,0.0,0.0,0.0,0.0,0.0,0.0,0.0,0.0,0.0,0.0,0.0,0.0,0.0,0.0,0.0,0.0,0.0,0.0,0.0,0.0,0.0,0.0,0.0,0.0,0.0,0.0,0.0,0.0,0.0,0.0,0.0,0.0,0.0,0.0,0.0,0.0,0.0,0.0,0.0,0.0,0.0,0.0,0.0,0.0,2.4043,0.0,0.0,0.0,0.0,0.0,0.0,0.0,0.0,0.0,0.0,0.0,0.0,0.0,0.0,0.0,0.0,0.0,0.0,0.0,0.0,0.0,0.0,0.0,0.0,0.0,0.0,0.0,0.0,0.0,0.0,0.0,0.0,0.0,0.0,0.0,0.0,0.0,0.0,0.0,0.0,0.0,2.231,2.2537,2.2695,2.2695,2.3253,2.361,2.3692,2.3937,2.4113,2.4208,0.0,0.0,0.0,0.0,0.0,0.0,0.0,0.0,0.0,0.0,0.0,0.0,0.0,0.0,0.0,0.0,0.0,0.0,0.0,0.0,0.0,0.0,0.0,0.0,0.0,0.0,0.0,0.0,0.0,0.0,0.0,0.0,0.0,0.0,0.0,0.0,0.0,0.0,0.0,0.0,0.0,0.0,0.0,0.0,0.0,0.0,0.0,0.0,0.0,0.0,0.0,0.0,0.0,0.0,0.0,0.0,0.0,0.0,0.0,0.0,0.0,2.5303,0.0,0.0,0.0,0.0,0.0,0.0,0.0,0.0,0.0,0.0,0.0,0.0,0.0,0.0,0.0,0.0,0.0,0.0,0.0,0.0,0.0,0.0,0.0,0.0,0.0,0.0,0.0,0.0,0.0,0.0,0.0,0.0,0.0,0.0,0.0,0.0,0.0,0.0,0.0,0.0,2.231,2.2669,2.2947,2.2947,2.3544,2.3937,2.3937,2.4094,2.419,2.419,2.419,0.0,0.0,0.0,0.0,0.0,0.0,0.0,0.0,0.0,0.0,0.0,0.0,0.0,0.0,0.0,0.0,0.0,0.0,0.0,0.0,0.0,0.0,0.0,0.0,0.0,0.0,0.0,0.0,0.0,0.0,0.0,0.0,0.0,0.0,0.0,0.0,0.0,0.0,0.0,0.0,0.0,0.0,0.0,0.0,0.0,0.0,0.0,0.0,0.0,0.0,0.0,0.0,0.0,0.0,0.0,2.5745,2.5745,2.5745,2.5745,2.5745,2.5572,2.5303,0.0,0.0,0.0,0.0,0.0,0.0,0.0,0.0,0.0,0.0,0.0,0.0,0.0,0.0,0.0,0.0,0.0,0.0,0.0,0.0,0.0,0.0,0.0,0.0,0.0,2.3996,2.4054,0.0,0.0,0.0,0.0,0.0,0.0,0.0,0.0,0.0,0.0,0.0,0.0,2.2443,2.2883,2.3212,2.3277,2.3837,2.419,2.419,2.419,2.419,2.419,2.419,2.419,0.0,0.0,0.0,0.0,0.0,0.0,0.0,0.0,0.0,0.0,0.0,0.0,0.0,0.0,0.0,0.0,0.0,0.0,0.0,0.0,0.0,0.0,0.0,0.0,0.0,0.0,0.0,0.0,0.0,0.0,0.0,0.0,2.1526,2.1526,0.0,0.0,0.0,0.0,0.0,0.0,0.0,0.0,0.0,0.0,0.0,0.0,0.0,0.0,2.4957,2.5072,2.5524,2.6274,2.639,2.6813,2.7563,2.7563,2.7563,2.7563,2.7563,0.0,2.5303,2.5303,0.0,0.0,0.0,0.0,0.0,0.0,0.0,0.0,0.0,0.0,0.0,0.0,0.0,0.0,0.0,0.0,0.0,0.0,0.0,0.0,0.0,0.0,2.419,2.4133,2.417,2.417,0.0,2.3837,2.3544,2.3206,0.0,0.0,0.0,0.0,0.0,0.0,0.0,0.0,2.3014,2.3141,2.3323,2.3588,2.3976,2.419,2.419,2.419,2.419,2.419,2.419,2.419,2.419,2.419,0.0,0.0,0.0,0.0,0.0,0.0,0.0,0.0,0.0,0.0,0.0,0.0,0.0,0.0,0.0,0.0,0.0,0.0,0.0,0.0,0.0,0.0,0.0,0.0,0.0,0.0,0.0,0.0,0.0,2.1195,2.1626,2.1138,2.185,2.2332,0.0,0.0,0.0,0.0,0.0,0.0,0.0,0.0,0.0,2.5284,2.5428,2.5678,2.6024,2.6524,2.6948,2.7332,2.7332,2.7525,2.7909,2.8371,2.8563,2.8563,2.8563,2.814,2.7351,2.6428,2.5726,2.5284,0.0,0.0,0.0,0.0,0.0,0.0,2.4864,0.0,0.0,0.0,0.0,0.0,0.0,0.0,0.0,0.0,0.0,0.0,0.0,0.0,0.0,2.419,2.419,2.419,2.419,2.4094,2.3896,0.0,2.3477,2.3305,2.2797,0.0,0.0,0.0,0.0,0.0,2.3183,2.3369,2.3544,2.3692,2.3996,2.419,2.419,2.419,2.419,2.419,2.419,2.419,2.419,2.419,2.4575,0.0,0.0,0.0,0.0,0.0,0.0,0.0,0.0,0.0,0.0,0.0,0.0,0.0,0.0,0.0,0.0,0.0,0.0,0.0,0.0,0.0,0.0,0.0,0.0,0.0,0.0,0.0,0.0,2.1784,2.2305,2.1641,2.2635,2.3189,0.0,0.0,0.0,0.0,0.0,0.0,2.537,2.5553,2.5649,2.563,2.6486,2.6948,2.6928,2.7601,2.814,2.8544,2.8544,2.8756,2.9198,2.9794,3.0063,3.0063,3.0063,2.9948,2.9621,2.7717,2.6428,2.563,2.563,2.5495,0.0,2.5303,2.5437,2.5581,2.5153,2.5144,2.5247,2.4742,0.0,2.4461,2.4247,0.0,0.0,0.0,0.0,2.419,2.419,0.0,2.419,2.419,2.419,2.419,2.419,2.419,2.4132,0.0,2.3816,2.3649,2.3069,0.0,0.0,0.0,0.0,2.3259,2.3437,2.3588,2.3735,2.3816,2.4054,2.419,2.419,2.419,2.419,2.419,2.419,2.4281,2.4502,2.4502,2.4979,0.0,0.0,0.0,0.0,0.0,0.0,0.0,0.0,0.0,0.0,0.0,0.0,0.0,0.0,0.0,0.0,0.0,0.0,0.0,0.0,0.0,0.0,0.0,0.0,0.0,0.0,0.0,0.0,0.0,0.0,2.4219,2.4277,0.0,0.0,0.0,0.0,2.5376,2.5425,2.5415,2.5399,2.6187,2.661,2.6544,2.7439,2.7901,2.7832,2.7926,2.8752,3.0263,3.0263,3.1121,3.2641,3.2699,3.2718,3.2718,3.2718,3.2275,3.1371,2.8871,2.7313,2.6524,2.6524,2.6024,2.5303,2.5303,2.5832,2.6388,2.5363,2.5545,2.606,2.5092,2.4654,2.4461,2.4247,2.419,0.0,0.0,2.419,2.419,2.419,2.419,2.419,2.419,2.419,2.419,2.419,2.419,2.4208,0.0,2.417,2.4074,2.3714,0.0,0.0,2.3649,2.3392,2.3414,2.4074,2.3896,2.3816,2.4151,2.419,2.419,2.419,2.419,2.419,2.419,2.419,2.4538,2.5311,2.5348,2.6082,2.764,2.7289,0.0,0.0,0.0,0.0,0.0,0.0,0.0,0.0,0.0,0.0,0.0,0.0,0.0,0.0,0.0,0.0,0.0,0.0,0.0,0.0,0.0,0.0,0.0,0.0,0.0,0.0,0.0,0.0,2.4394,2.4863,0.0,0.0,2.5834,2.61,2.6381,2.6926,2.7227,2.7199,2.7454,2.7594,2.7574,2.8972,2.9728,2.9693,3.024,3.0768,3.1299,3.1309,3.1597,3.216,3.3237,3.3737,3.3737,3.3737,3.3256,3.2352,3.0929,2.9506,2.8159,2.764,2.7255,2.6967,2.6967,2.7178,2.739,2.699,2.7075,2.7144,2.5963,2.5005,2.4377,2.4834,2.4612,2.43,2.4814,2.4593,2.419,2.419,2.419,2.419,2.419,2.419,2.419,2.419,2.419,2.419,2.419,2.419,2.4094,2.3774,2.3876,2.3937,2.3735,2.3795,2.3917,2.417,2.4094,2.4275,2.4905,2.498,2.5181,2.5695,2.575,2.575,2.575,2.575,2.5878,2.6153,2.6172,2.6686,2.7769,2.7657,2.7505,0.0,0.0,0.0,0.0,0.0,0.0,0.0,0.0,0.0,0.0,0.0,0.0,0.0,0.0,0.0,0.0,0.0,0.0,0.0,0.0,0.0,0.0,0.0,0.0,0.0,0.0,2.5508,2.6074,2.6367,2.6621,2.6914,2.7207,2.7375,2.7375,2.7906,2.8223,2.8203,2.8431,2.8558,2.8537,3.022,3.0984,3.0667,3.1792,3.2344,3.2261,3.2247,3.2513,3.3045,3.3833,3.4353,3.4641,3.4641,3.4314,3.3699,3.2564,3.141,3.0237,2.8852,2.814,2.7852,2.7563,2.7813,2.8294,2.8294,2.7662,2.6759,2.6195,2.5366,2.4649,2.4925,2.4795,2.4649,2.4905,2.4612,2.419,2.419,2.419,2.419,2.419,2.419,2.4263,2.4538,2.4593,2.4593,2.4593,2.4392,2.4132,2.3917,2.4036,2.4165,2.4075,2.4254,2.4506,2.4762,2.4798,2.5059,2.5731,2.5786,2.6025,2.6557,2.6612,2.6612,2.6612,2.6612,2.6722,2.6998,2.6998,2.7321,2.7994,2.7994,2.7834,2.75,0.0,0.0,0.0,0.0,0.0,0.0,0.0,0.0,0.0,0.0,0.0,0.0,0.0,0.0,0.0,0.0,0.0,0.0,0.0,0.0,0.0,0.0,0.0,2.5809,2.6484,2.7734,2.9473,2.8906,2.8711,2.9551,2.8906,2.8418,2.8379,2.8437,2.8437,2.8379,2.916,2.9583,2.9537,3.1187,3.1652,3.0748,3.2469,3.3309,3.3237,3.3161,3.3942,3.5488,3.4584,3.4622,3.543,3.543,3.5397,3.5257,3.3564,3.2852,3.2583,3.0102,2.8659,2.7871,2.7024,2.7755,2.914,2.914,2.7281,2.5049,2.5823,2.5795,2.5311,2.4538,2.4832,2.5274,2.4483,2.4263,2.4263,2.4208,2.4208,2.4245,2.4245,2.4245,2.4447,2.5274,2.5439,2.5439,2.5439,2.4795,2.4263,2.4208,2.4208,2.4346,2.4753,2.4833,0.0,2.5924,2.6033,2.6186,2.6588,2.6649,2.6649,2.6667,2.6686,2.6686,2.6686,2.6686,2.7016,2.7805,2.7842,2.7994,2.8402,2.8394,2.8237,2.7869,0.0,0.0,0.0,0.0,0.0,0.0,0.0,0.0,0.0,0.0,0.0,0.0,0.0,0.0,0.0,0.0,0.0,0.0,0.0,0.0,0.0,0.0,2.7826,2.7585,2.8317,2.9531,3.1289,3.0723,3.0273,3.0527,3.0898,3.0879,3.0234,3.1309,3.1992,3.1973,3.2207,3.2323,3.23,3.3378,3.3824,3.3586,3.4062,3.4277,3.4211,3.3515,3.3383,3.3788,3.3423,3.3391,3.3603,3.3603,3.3276,3.2718,3.2237,3.166,3.1025,3.0333,2.991,2.9679,2.9448,2.966,3.0044,3.0044,2.8924,2.7519,2.7746,2.7102,2.6337,2.6704,2.6557,2.6227,2.6007,2.5952,2.5676,2.4502,2.463,2.5072,2.5072,2.5072,2.5273,2.6098,2.6264,2.6264,2.6264,2.6098,2.5566,2.4392,2.4488,2.4841,2.5184,0.0,0.0,2.641,2.6447,2.6688,2.7402,2.7475,2.7714,2.8301,2.8333,2.8333,0.0,2.8333,2.8425,2.8668,2.8686,2.8578,2.8402,2.8156,2.7851,0.0,0.0,0.0,0.0,0.0,0.0,0.0,0.0,0.0,0.0,0.0,0.0,0.0,0.0,0.0,0.0,0.0,0.0,0.0,0.0,0.0,0.0,2.8386,2.953,3.0289,3.0566,3.1328,3.3047,3.248,3.209,3.2461,3.2617,3.248,3.1992,3.2851,3.3398,3.3398,3.3398,3.3398,3.3398,3.4258,3.4512,3.416,3.4883,3.5039,3.4629,3.4066,3.3745,3.3689,3.3557,3.3288,0.0,3.334,3.3051,3.2295,3.191,3.1436,0.0,0.0,0.0,0.0,0.0,2.964,2.941,2.9737,2.9025,2.8029,2.848,2.7922,2.7148,2.7366,2.7269,2.7034,2.6704,2.6612,2.6392,2.5456,2.5548,2.5897,2.5897,2.5897,2.6117,2.6924,2.7108,2.7108,2.7108,0.0,0.0,2.5178,2.5317,2.5691,2.5904,2.6454,2.6918,0.0,2.7271,2.7593,2.8223,2.815,2.8239,2.8713,2.8626,0.0,0.0,0.0,2.8551,2.8551,0.0,0.0,0.0,0.0,2.7831,0.0,0.0,0.0,0.0,2.664,2.6471,0.0,0.0,0.0,0.0,0.0,0.0,0.0,0.0,0.0,0.0,0.0,0.0,0.0,0.0,0.0,0.0,2.9743,3.1477,3.3183,3.3046,3.3281,3.4687,3.416,3.3965,3.4629,3.4082,3.3652,3.3555,3.3633,3.3691,0.0,0.0,0.0,0.0,0.0,3.4512,3.3848,3.5273,3.5664,3.498,3.4726,3.4562,3.448,3.4287,3.3744,3.3038,3.3846,3.3744,3.2979,3.2127,3.1749,3.1571,3.0725,3.0398,3.0314,2.9525,2.8794,0.0,0.0,0.0,0.0,2.8632,2.8496,2.7877,2.7344,2.7522,2.7769,2.6961,2.6814,2.6851,2.6759,2.6741,2.6759,2.6851,2.6814,2.6961,2.775,2.7934,2.7934,2.7934,2.7674,2.7188,2.6411,2.6477,2.6631,2.6685,2.704,0.0,2.7865,2.8183,2.854,2.8887,0.0,0.0,2.8471,2.8156,2.7982,2.801,2.7982,2.7996,2.8145,2.7674,2.7644,2.8059,2.8317,2.8159,2.75,2.8815,2.8939,2.7943,2.7165,2.6826,0.0,0.0,0.0,0.0,0.0,0.0,0.0,0.0,0.0,0.0,0.0,0.0,0.0,0.0,0.0,2.9693,3.1482,3.3032,3.397,3.5329,3.6113,3.5781,3.5605,3.5293,3.4746,3.5176,3.5215,3.4492,3.5098,3.5508,3.5508,3.5508,0.0,3.5508,3.5664,3.6016,3.6543,3.6172,3.6269,3.6777,0.0,0.0,3.4478,3.3749,3.3287,3.3089,3.3324,3.2909,3.2055,3.1881,3.1352,3.0648,3.0475,3.0398,3.0379,3.0217,3.0063,2.9948,3.0102,2.9851,2.9478,2.9694,2.9468,2.9052,2.8945,2.8852,0.0,2.7787,2.8044,2.8393,2.7732,2.7567,2.7732,2.8393,2.8044,2.7787,2.8594,2.8778,2.8778,2.8778,2.8446,2.8131,2.7944,2.7269,2.6747,2.6719,2.7305,2.7804,2.788,2.8183,2.842,2.8515,2.8749,2.8887,2.8887,2.8515,2.8438,2.8767,2.8489,2.8729,2.9642,2.8725,2.8499,2.9171,2.899,2.8813,2.8677,2.8966,2.8999,2.8738,2.796,2.7604,0.0,0.0,0.0,0.0,0.0,0.0,0.0,0.0,0.0,0.0,0.0,2.6851,2.7698,0.0,3.0244,3.1468,3.3173,3.4653,3.5474,3.6784,3.74,3.6679,3.6621,3.6484,3.6035,3.5996,3.582,3.5371,3.6152,3.6641,3.6641,3.7051,3.7305,3.7305,3.7305,3.7305,3.7305,3.7305,3.707,3.6641,3.6172,3.5433,3.4503,3.4541,3.4033,3.317,3.3674,3.3383,3.2538,3.2433,3.1868,3.1064,3.1064,3.0794,3.034,2.991,3.0025,3.034,2.991,2.9858,2.9999,2.9999,2.9731,2.9412,2.9412,2.9481,2.9531,2.9108,2.9586,3.0026,2.9219,2.8998,2.8998,2.9017,2.8998,2.8998,2.9017,2.915,2.9307,2.93,2.8981,2.8645,2.8446,2.8258,2.7892,2.7122,2.766,2.8162,2.8163,2.8307,2.8486,2.8693,2.8389,2.8156,2.8156,2.8129,2.8368,2.8971,2.8807,2.8969,2.9539,2.9008,2.8853,2.9229,2.944,2.9364,2.9011,2.9719,2.9905,2.9533,2.9144,2.8755,0.0,0.0,0.0,0.0,0.0,0.0,0.0,0.0,2.5964,2.7097,2.7909,2.864,2.9448,3.1025,3.2449,3.3276,3.4872,3.6243,3.7012,3.7815,3.8172,3.7695,3.7554,3.7461,3.7305,3.6816,3.6367,3.6035,3.6953,3.748,3.7305,3.8125,3.8594,3.8594,3.8594,3.834,3.7812,3.832,3.7988,3.6758,3.7129,3.6501,3.5033,3.5654,3.5118,3.3767,3.4342,3.4179,3.3517,3.316,3.259,3.1929,3.1929,3.1506,3.0775,2.991,3.0044,3.0583,3.0025,3.0056,3.0343,3.0452,3.0237,2.992,2.9878,3.0128,3.043,3.043,3.0889,3.1292,3.0797,3.0558,3.032,2.9824,3.0081,3.0265,2.9622,2.9646,2.9828,2.9827,2.9436,2.8987,2.8655,2.9041,2.8955,2.7609,2.8041,2.8505,2.8537,2.8576,2.8752,2.907,2.8351,2.783,2.7736,2.8064,2.8526,2.918,2.9151,2.9202,2.9434,2.9279,2.9262,2.9397,3.0006,3.0023,2.9414,3.0615,3.0886,3.0311,3.0311,2.9922,2.4022,2.4408,2.4829,2.5274,2.5895,2.6629,0.0,0.0,2.8875,2.9783,3.0052,3.039,3.1256,3.2795,3.4199,3.5084,3.6622,3.7757,3.7853,3.8676,3.9239,3.9154,3.8633,3.8027,3.7363,3.791,3.7676,3.6113,3.7519,3.8125,3.7344,3.8125,3.8594,3.8594,3.8594,3.8926,3.9609,3.8945,3.8887,3.9453,3.7988,3.7167,3.689,3.6279,3.5842,3.556,3.4891,3.451,3.4293,3.343,3.2961,3.2776,3.2776,3.2718,3.2526,3.1718,3.1468,3.1641,3.2256,3.2051,3.1591,3.208,3.2064,3.1845,3.16,3.1404,3.1256,3.1256,3.1329,3.1531,3.2173,3.1806,3.1421,3.2063,3.1715,3.1237,3.1146,3.0901,3.0656,3.0656,3.0013,2.9434,2.9367,2.9213,2.8742,2.7894,2.8405,2.8952,2.8931,2.9179,2.9397,2.945,2.9642,2.9621,2.9262,2.9612,2.9881,2.9959,2.9641,2.9899,3.0925,3.0328,3.0294,3.0937,3.1021,3.1038,3.0937,3.1106,3.1157,3.1072,3.1072,3.0683,2.3719,2.4521,2.5442,0.0,2.7144,2.7998,2.8954,2.9436,2.9922,3.0743,3.1298,3.1891,3.2766,3.4278,3.5588,0.0,3.7642,3.8757,3.8757,3.9099,3.9176,3.8748,3.8012,3.765,3.7909,3.7871,3.7324,3.6094,3.8086,3.8984,3.8105,3.9355,4.0117,4.0117,4.0117,4.0039,3.9902,4.0039,3.9785,3.9121,3.8398,3.7762,3.7169,3.6369,3.5985,3.5922,3.5451,3.4964,3.4507,3.4506,3.416,3.3699,3.4218,3.4699,3.4891,3.3064,3.2391,3.2449,3.2776,3.2595,3.2168,3.2286,3.2166,3.1904,3.1654,3.1814,3.21,3.21,3.243,3.2761,3.2632,3.2357,3.2063,3.1935,3.2008,3.2005,3.1747,3.1732,3.1706,3.1417,3.0889,3.0336,2.9909,3.0085,3.0006,2.9262,2.9225,2.9382,2.9604,2.9573,2.9437,2.9246,2.9351,2.9558,2.9843,3.0003,3.0257,3.0722,3.0602,3.0687,3.1173,3.0903,3.0886,3.119,3.119,3.119,3.119,3.119,3.119,3.119,3.119,3.1021,2.3359,2.4623,0.0,2.7568,2.8746,2.9851,3.0987,3.1295,3.1575,3.2416,3.2664,3.2963,3.3658,3.4937,3.602,3.6504,3.8047,3.918,3.9161,3.9035,3.8642,3.7887,3.6834,3.6563,3.7522,3.7416,3.6914,3.6055,3.8418,3.9512,3.8652,4.0254,4.1191,4.1191,4.1191,4.0898,4.0254,4.0879,4.0566,3.9316,3.8829,3.8221,3.7496,3.6456,3.5976,3.5996,3.5827,3.5532,3.5233,3.5695,3.5641,3.5315,3.5949,3.6546,3.6834,3.4988,3.4141,3.3949,3.3949,3.3633,3.3187,3.2959,3.2872,3.2771,3.2477,3.2981,3.3623,3.3623,3.4045,3.4357,3.377,3.3623,3.3476,3.2889,3.3201,3.3497,3.2985,3.3027,3.2984,3.2518,3.2081,3.1647,3.1106,3.1275,3.1309,3.0784,3.0284,3.0086,3.0366,3.0131,2.9881,2.9621,2.96,2.982,3.0362,3.0412,3.0632,3.1157,3.119,3.119,3.119,3.119,3.119,3.119,3.119,3.119,3.119,3.119,3.119,3.119,3.119,3.119,2.2617,0.0,2.6476,2.8914,3.0772,3.2426,3.4007,3.4405,3.471,3.5579,3.4488,3.3469,3.3756,3.4338,3.5097,3.6138,3.7773,3.8879,3.8823,3.8367,3.7719,3.6853,3.5334,3.4712,0.0,3.6601,3.6875,3.6055,3.8418,3.9512,3.8652,4.0254,4.1191,4.1191,4.1191,4.1191,4.1152,4.1191,4.1172,4.1094,3.9412,3.8524,3.8305,3.6664,3.5937,3.5995,3.5922,3.629,3.6916,3.6877,3.7262,3.7892,3.7911,3.793,3.795,3.7873,3.7315,3.6584,3.6584,3.5895,3.4994,3.4698,3.4974,3.5318,3.4999,3.5514,3.6193,3.6193,3.6211,3.6211,3.6193,3.6193,3.6174,3.6156,3.6156,3.604,3.5503,3.5041,3.4587,3.4116,3.3635,3.3339,3.3305,3.273,3.2239,3.2222,3.1636,3.1123,3.1157,3.114,3.1162,3.1123,3.1123,3.114,3.1157,3.1157,3.1173,3.119,3.119,3.119,3.119,3.119,3.119,3.119,3.119,3.119,3.119,3.119,3.119,3.119,3.119,3.119,2.2924,0.0,2.8664,3.0248,3.2263,3.3961,3.4504,3.5058,3.5176,3.4177,3.3109,3.2195,3.1769,3.2312,3.318,3.4282,3.633,3.7831,3.7984,3.7808,3.7012,3.5243,3.4045,0.0,0.0,0.0,0.0,3.6777,3.8633,3.9687,3.9473,4.0566,4.1191,4.1191,4.1191,4.1191,4.1191,4.1191,4.1199,4.1179,3.994,3.8671,3.7462,3.7527,3.7235,3.6693,3.7256,3.7588,3.7723,3.7647,3.7777,3.8065,3.8642,3.8854,3.8931,3.945,3.9469,3.9031,3.7682,3.6881,3.6381,3.6114,3.6024,3.6012,3.5891,3.6431,3.6964,3.645,3.7074,3.7771,3.7221,3.7092,3.7092,3.7092,3.6407,3.5756,3.5757,3.5414,3.4936,3.448,3.4245,3.3964,3.3491,3.3186,3.3034,3.3034,3.1985,3.119,3.119,3.119,3.119,3.119,3.119,3.119,3.119,3.119,3.119,3.119,3.119,3.119,3.119,3.119,3.119,3.119,3.0797,3.0601,3.0601,3.0208,2.9995,2.9995,2.9995,2.9995,2.3412,2.6693,2.9992,3.1672,3.3239,3.4515,3.5033,3.4926,3.4333,3.2914,3.1483,3.0272,2.9659,2.9935,3.0705,3.2062,3.3968,3.5696,3.6825,3.6537,3.5933,3.5172,3.4064,0.0,0.0,0.0,0.0,3.7083,3.8694,3.9715,3.9824,4.0644,4.1152,4.1191,4.1191,4.1191,4.1191,4.1195,4.1032,4.0658,3.9931,3.8854,3.7464,3.7743,3.7714,3.7483,3.7696,3.8098,3.8569,3.8488,3.8623,3.8969,3.9854,4.0181,4.0296,4.1123,4.1344,4.0896,3.8707,3.7792,3.7461,3.6883,3.6712,3.678,3.7074,3.7716,3.8303,3.8083,3.8762,3.9441,3.8909,3.8781,3.8781,3.8781,3.794,3.7181,3.7195,3.6549,3.588,3.5416,3.5081,3.4742,3.4286,3.3981,3.3711,3.344,3.2594,3.1884,3.1613,3.136,3.119,3.119,3.119,3.119,3.119,3.1427,3.1579,3.1579,3.1833,3.1985,3.1985,3.1985,3.1985,3.1985,3.1133,3.0672,3.0672,2.9847,2.9406,2.9406,2.9406,2.9406,2.4071,2.7119,3.0507,3.302,3.3697,3.4119,3.5435,3.4039,3.2357,3.1851,2.9704,2.7861,0.0,0.0,2.7888,2.9769,3.1106,3.2866,3.5503,3.4831,3.4706,0.0,0.0,0.0,0.0,0.0,0.0,3.7094,0.0,3.9688,3.9743,4.0585,4.1093,4.1171,4.1171,4.1171,4.1171,4.1179,4.0693,3.9742,3.9561,3.9065,3.8312,3.7469,3.7549,3.8302,3.7469,3.7993,3.9438,3.9392,3.9796,4.0585,4.147,4.1797,4.1912,4.2777,4.2851,4.2158,3.9795,3.8797,3.838,3.7268,3.7285,3.7826,3.8597,3.9386,4.0175,4.091,4.1167,4.1222,4.1185,4.1167,4.1134,4.1134,4.0633,4.0018,3.9572,3.8437,3.7413,3.6961,3.6214,3.5673,3.5622,3.503,3.432,3.3626,3.3491,3.3169,3.2374,3.1681,3.1241,3.119,3.1224,3.1241,3.119,3.1901,3.2324,3.2313,3.2949,3.3339,3.3339,3.3296,3.3296,3.3296,3.2021,3.1336,3.1303,3.0,2.9348,2.9316,2.9316,2.9316,2.6108,2.9217,3.1933,3.2597,3.2984,3.3037,3.2246,3.1502,3.0434,2.8522,2.7602,2.689,0.0,0.0,0.0,2.9461,3.1242,0.0,3.5301,3.5988,0.0,3.6379,0.0,3.6238,3.6661,3.7873,0.0,0.0,3.9769,4.0443,4.051,4.1346,4.1532,4.0928,4.0908,4.0908,4.0908,4.0913,4.0742,4.0431,4.0389,3.9892,3.905,3.9523,3.9471,3.9077,3.9533,3.9912,4.0219,4.02,4.0296,4.0585,4.147,4.1797,4.1912,4.2777,4.2851,4.2385,4.156,4.1067,4.07,4.0129,4.0073,4.023,4.0432,4.1056,4.1607,4.1222,4.1974,4.2745,4.2158,4.1992,4.1873,4.1433,4.0504,3.9514,3.8936,3.8281,3.7772,3.7665,3.7009,3.6299,3.5723,3.5453,3.5267,3.5081,3.4573,3.3744,3.2442,3.2121,3.1799,3.1258,3.1681,3.1782,3.1241,3.2374,3.2882,3.2307,3.2459,3.256,3.256,3.2109,3.1835,3.1835,3.1101,3.0494,2.999,2.9166,2.8545,2.8076,2.8076,2.8076,2.7901,3.0181,3.2092,3.2402,3.2125,3.1546,3.0383,2.9282,2.8016,2.6243,2.5678,0.0,0.0,0.0,0.0,0.0,0.0,0.0,3.453,3.5464,3.6305,0.0,3.7677,0.0,3.8159,3.9192,3.9815,0.0,4.1008,4.145,4.0796,4.1571,4.1679,4.0834,4.0796,4.0796,4.0796,4.0776,4.0739,4.0696,4.0639,4.035,3.9815,4.0023,4.0004,3.9835,0.0,4.0254,4.0489,4.0489,4.0719,4.1162,4.2027,4.2499,4.2775,4.3656,4.3624,4.3127,4.2983,4.2715,4.2266,4.1397,4.1111,4.1185,4.1534,4.1937,4.2286,4.2176,4.28,4.3387,4.2928,4.2662,4.2377,4.2027,4.1007,4.0018,3.9683,3.8944,3.8294,3.7973,3.7297,3.6637,3.6197,3.5842,3.5622,3.5622,3.5267,3.4573,3.3389,3.2966,3.2611,3.2205,3.2527,3.2611,3.2205,3.322,3.3711,3.3271,3.3558,3.3744,3.3744,3.3112,3.2735,3.2735,3.1589,3.082,3.0432,2.9516,2.8831,2.8457,2.8457,2.8457,2.9351,3.0597,3.1615,3.2116,3.1037,2.9667,2.8985,2.7217,2.5431,2.4523,0.0,2.4001,2.4225,2.4181,2.4743,2.669,0.0,2.9028,3.3542,3.4288,3.5624,3.8978,3.9117,3.9204,3.9946,4.0381,4.0572,4.0457,4.2088,4.2376,4.0765,4.1505,4.1597,4.0793,4.0754,4.0754,4.0754,4.0696,4.0677,4.0677,4.0562,4.0489,4.0469,3.9777,3.9835,4.045,0.0,0.0,4.0662,4.0662,4.1181,4.2066,4.2912,4.3464,4.3912,4.4791,4.4638,4.4016,4.4016,4.3772,4.3259,4.1882,4.1423,4.1552,4.2249,4.2451,4.2598,4.3296,4.3497,4.3479,4.341,4.305,4.2655,4.248,4.1664,4.0856,4.0827,3.9904,3.892,3.8193,3.7516,3.7043,3.6941,3.6366,3.5893,3.5791,3.5774,3.5504,3.4742,3.3998,3.3508,3.3423,3.3491,3.3508,3.3406,3.4167,3.459,3.4506,3.5009,3.5318,3.5318,3.4587,3.4186,3.4186,3.2499,3.1519,3.1334,3.025,2.9609,2.946,2.9549,2.9579,3.0138,3.0926,3.1396,3.0933,2.9353,2.7529,2.6214,2.4745,0.0,0.0,2.3301,2.4184,2.4608,2.4927,0.0,2.7882,0.0,0.0,0.0,0.0,3.5981,0.0,0.0,0.0,0.0,0.0,0.0,0.0,0.0,0.0,4.0623,4.1354,4.1431,4.0581,4.0562,4.0562,4.0562,4.0543,4.0543,4.0543,4.0508,4.0489,4.0489,4.0354,4.0354,4.0489,0.0,0.0,4.1566,4.1566,4.2085,4.297,4.3778,4.3963,4.3912,4.4791,4.4638,4.4016,4.4016,4.3772,4.3442,4.3167,4.3075,4.3112,4.324,4.3277,4.3314,4.3442,4.3497,4.341,4.2939,4.2788,4.244,4.1446,4.1041,4.078,4.0319,4.0069,3.9681,3.8937,3.87,3.8413,3.7821,3.7601,3.7297,3.6671,3.6586,3.6299,3.552,3.4776,3.4083,3.3474,3.3947,3.4066,3.3457,3.4641,3.5165,3.4523,3.4084,3.3859,3.3859,3.2636,3.1972,3.1972,3.1692,3.099,2.9961,3.0203,2.9804,2.8786,2.9325,2.9579,3.0306,3.07,3.0732,3.014,2.8695,2.6946,2.524,0.0,0.0,0.0,2.3101,2.3916,2.4477,0.0,0.0,0.0,0.0,0.0,0.0,0.0,0.0,0.0,0.0,0.0,0.0,0.0,0.0,0.0,0.0,0.0,0.0,4.0893,4.0931,4.0508,4.0489,4.0489,4.0489,4.0489,4.0489,4.0489,4.0489,4.0489,4.0489,4.0489,4.0489,4.0527,0.0,0.0,0.0,4.2064,4.2772,4.3742,4.3768,4.3958,4.4232,4.4461,4.4204,4.3758,4.3758,4.3612,4.3497,4.3497,4.3497,4.3497,4.3497,4.3497,4.3497,4.3497,4.3497,4.3375,4.2826,4.248,4.1997,4.1133,4.0703,4.0417,4.0171,4.007,3.9969,3.9631,3.9242,3.8886,3.8531,3.8159,3.7787,3.7432,3.7364,3.7229,3.6857,3.6146,3.5385,3.4641,3.4878,3.4945,3.459,3.5216,3.5301,3.4597,3.427,3.3939,3.3583,3.2573,3.2006,3.2006,3.1671,3.1225,3.0597,3.0896,3.0731,3.0133,3.0447,3.0597,3.003,3.0279,3.0163,2.9483,2.8163,2.6504,2.4545,2.306,0.0,0.0,2.2877,2.3473,2.4256,0.0,2.4985,0.0,2.6253,0.0,0.0,0.0,0.0,0.0,0.0,0.0,0.0,0.0,0.0,0.0,0.0,0.0,0.0,4.0489,4.0489,4.0489,4.0489,4.0489,4.0489,4.0489,4.0489,4.0489,4.0489,4.0489,4.0489,4.0489,4.0585,4.0816,0.0,0.0,0.0,4.2541,4.3325,4.4307,4.3777,4.3943,4.4447,4.4117,4.3772,4.3497,4.3497,4.3497,4.3497,4.3497,4.3497,4.3497,4.3497,4.3497,4.3497,4.3497,4.341,4.3214,4.2637,4.208,4.1446,4.0874,4.0417,4.007,4.007,4.007,4.007,4.007,3.9614,3.9225,3.9225,3.8751,3.8328,3.8159,3.8142,3.8091,3.7922,3.7381,3.6789,3.618,3.5825,3.5622,3.5622,3.547,3.5144,3.4624,3.4333,3.3937,3.3391,3.2734,3.2382,3.2382,3.1796,3.1407,3.1315,3.1407,3.1465,3.1315,3.1407,3.1482,2.9258,2.9971,3.006,2.8949,2.7225,2.5269,2.3316,0.0,0.0,2.1657,2.2293,2.3098,2.421,2.4263,2.442,2.5207,2.5799,2.664,0.0,0.0,0.0,0.0,0.0,0.0,0.0,0.0,0.0,0.0,0.0,0.0,0.0,4.0489,4.0489,4.0489,4.0489,4.0489,4.0489,4.0489,4.0489,4.0489,4.0489,4.0489,4.0489,4.0489,4.0931,4.1665,0.0,0.0,0.0,4.3312,4.3763,4.4569,4.4492,4.4317,4.4058,4.3998,4.3772,4.3497,4.3497,4.3497,4.3497,4.3497,4.3497,4.3497,4.3497,4.3497,4.3497,4.3497,4.3142,4.2655,4.2021,4.1446,4.0827,4.0286,4.0121,4.007,4.007,4.007,4.007,4.007,4.002,3.9969,3.9969,3.9918,3.9648,3.8988,3.8886,3.865,3.799,3.7838,3.777,3.7702,3.6451,3.5622,3.5622,3.5052,3.4688,3.4576,3.3443,3.2749,3.2695,3.2007,3.1582,3.1582,3.1524,3.1225,3.0597,3.1225,3.121,3.0612,3.124,3.1482,2.6794,2.7864,2.8266,2.755,2.6198,2.4521,2.2658,0.0,0.0,2.1672,2.2307,2.2965,2.3779,2.4132,2.4398,2.4665,2.5072,2.5816,2.715,0.0,0.0,0.0,0.0,0.0,0.0,0.0,0.0,0.0,0.0,0.0,0.0,0.0,4.025,4.025,4.0425,4.0489,4.0489,4.0489,4.0489,4.0489,4.0489,4.0489,4.0508,4.1046,4.1349,0.0,0.0,0.0,0.0,4.3678,4.4091,4.4572,4.4125,4.3974,4.3986,4.3772,4.3612,4.3497,4.3497,4.3497,4.3497,4.3497,4.3286,4.3014,4.3014,4.325,4.3444,4.3105,4.2864,4.2577,4.1937,4.1105,4.0368,4.0171,4.007,4.007,4.007,4.007,4.007,4.007,4.007,4.007,4.007,4.007,3.9986,3.9698,3.9648,3.9546,3.9242,3.8836,3.8565,3.8565,3.7212,3.6315,3.6315,3.5631,3.4847,3.4037,3.3495,3.2826,3.1951,3.164,3.1482,3.1482,3.1482,3.1405,3.112,3.1405,3.1332,3.1135,3.1347,3.1482,2.4077,2.5254,2.5883,2.5775,2.4616,2.3185,0.0,0.0,0.0,2.1179,2.1926,2.2613,2.3201,2.3906,2.4348,2.4199,2.4713,2.5478,2.64,0.0,0.0,0.0,0.0,0.0,0.0,0.0,0.0,0.0,0.0,0.0,0.0,0.0,3.9859,3.9943,4.0139,4.0229,4.0229,4.0229,4.0283,4.0372,4.0372,4.0372,4.0392,4.1025,4.138,0.0,0.0,0.0,0.0,4.3762,4.4035,4.4223,4.3712,4.3646,4.3818,4.3597,4.3497,4.3497,4.3497,4.3497,4.3497,4.3497,4.3142,4.2673,4.248,4.2714,4.2903,4.2559,4.2302,4.2021,4.1464,4.0689,4.007,4.007,4.007,4.007,4.007,4.007,4.007,4.007,4.007,4.007,4.007,4.007,4.007,4.007,4.007,4.007,4.007,3.9631,3.9326,3.9326,3.8193,3.7246,3.6823,3.6064,3.5032,3.37,3.3391,3.2772,3.1524,3.1482,3.1482,3.1482,3.1482,3.1482,3.1482,3.1482,3.1482,3.1482,3.1482,3.1482,2.1459,2.2414,2.2986,2.3564,2.242,2.0927,0.0,0.0,1.915,1.9874,2.09,2.1916,2.2579,2.3636,2.4241,2.3681,2.4934,2.5799,2.5297,0.0,0.0,0.0,0.0,0.0,0.0,0.0,0.0,0.0,0.0,0.0,0.0,0.0,3.9264,3.9599,3.9599,3.9622,3.9622,3.9622,3.9775,4.0101,4.0101,4.0101,4.0101,4.0101,0.0,0.0,0.0,0.0,0.0,4.3646,4.3532,4.3513,4.3479,4.3479,4.3479,4.3497,4.3497,4.3497,4.3497,4.3497,4.3497,4.3497,4.3142,4.2577,4.1979,4.1793,4.181,4.181,4.1402,4.078,4.0254,4.0121,4.007,4.007,4.007,4.007,4.007,4.007,4.007,4.007,4.007,4.007,4.007,4.007,4.007,4.007,4.007,4.007,4.007,4.007,4.007,4.007,3.9411,3.8379,3.6907,3.6104,3.5102,3.3681,3.2986,3.2272,3.1524,3.1482,3.1482,3.1482,3.1482,3.1482,3.1482,3.1482,3.1482,3.1482,3.1482,3.1482,1.7871,1.9497,2.0961,2.124,2.0862,2.0111,1.9046,0.0,1.8988,1.933,2.0611,2.1903,2.2582,2.3338,2.3658,2.3068,2.4374,2.525,0.0,0.0,0.0,0.0,0.0,0.0,0.0,0.0,0.0,0.0,0.0,0.0,0.0,0.0,0.0,3.9275,3.9481,3.9599,3.9599,3.9599,3.9645,3.9754,3.9754,3.9754,3.9791,0.0,0.0,0.0,0.0,0.0,0.0,4.3548,4.3497,4.3497,4.3497,4.3497,4.3497,4.3497,4.3497,4.3497,4.3497,4.3497,4.3444,4.305,4.2559,4.1979,4.1358,4.149,4.1707,4.1313,4.1041,4.078,4.0254,4.007,4.007,4.007,4.007,4.007,4.007,4.007,4.007,4.007,4.007,4.007,4.007,4.007,4.007,4.007,4.007,4.007,4.007,4.007,4.007,4.007,3.9868,3.9343,3.8379,3.7136,3.5787,3.4418,3.3623,3.2732,3.1554,3.1482,3.1482,3.1482,3.1482,3.1482,3.1482,3.1482,3.1482,3.1482,3.1482,3.1482,1.5109,1.6783,1.8465,1.8943,1.8897,1.8604,0.0,0.0,1.8645,1.8726,2.033,2.184,2.2258,2.3033,2.3475,2.3086,2.4247,2.5061,0.0,0.0,0.0,0.0,0.0,0.0,0.0,0.0,0.0,0.0,0.0,0.0,0.0,0.0,0.0,3.8952,3.9163,3.9268,3.9268,3.9268,3.9327,3.9432,3.9708,3.9858,3.9915,0.0,0.0,0.0,0.0,0.0,0.0,4.3497,4.3497,4.3497,4.3497,4.3497,4.3497,4.325,4.3214,4.3178,4.294,4.2995,4.3087,4.2541,4.1937,4.1358,4.0797,4.0844,4.1059,4.0703,4.0625,4.0528,4.0204,4.007,4.007,4.007,4.007,4.007,4.007,4.007,4.007,4.007,4.007,4.007,4.007,4.007,4.007,4.007,4.007,4.007,4.007,4.007,4.007,4.007,4.007,3.9884,3.9445,3.8271,3.6882,3.5193,3.4352,3.3321,3.1913,3.1601,3.1482,3.1482,3.1482,3.1482,3.1482,3.1482,3.1482,3.1482,3.1482,3.1482,0.0,1.446,1.5784,1.6757,1.6735,1.6637,1.7188,0.0,0.0,1.8238,2.0101,2.1698,2.1686,2.2731,2.3595,2.3535,2.4527,0.0,0.0,0.0,0.0,0.0,0.0,0.0,0.0,0.0,0.0,0.0,0.0,0.0,0.0,0.0,0.0,0.0,3.8676,3.8707,3.8707,3.8707,3.8815,3.909,3.9826,4.0188,4.0234,0.0,0.0,0.0,0.0,0.0,0.0,4.3444,4.341,4.3356,4.3356,4.3356,4.3321,4.2808,4.2616,4.2577,4.1979,4.2162,4.2537,4.1955,4.1313,4.0733,4.0237,4.007,4.007,4.007,4.007,4.007,4.007,4.007,4.007,4.007,4.007,4.007,4.007,4.007,4.007,4.007,4.007,4.007,4.007,4.007,4.007,4.007,4.007,4.007,4.007,4.007,4.007,4.007,4.007,4.007,4.007,3.9395,3.8069,3.5931,3.5166,3.4062,3.2571,3.1928,3.1526,3.1482,3.1482,3.1482,3.1482,3.1482,3.1482,3.1482,3.1482,3.1482,1.2022,0.0,1.4994,1.5234,1.5917,1.6637,0.0,1.7706,0.0,0.0,0.0,0.0,0.0,2.2748,2.3445,2.2966,2.4677,0.0,0.0,0.0,0.0,0.0,0.0,0.0,0.0,0.0,0.0,0.0,0.0,0.0,0.0,0.0,0.0,0.0,3.8496,3.8707,3.8707,3.8707,3.8719,3.8803,3.8976,3.9171,0.0,0.0,0.0,0.0,0.0,0.0,0.0,4.2902,4.2637,4.2185,4.2185,4.2185,4.2185,4.2062,4.2021,4.1979,4.1853,4.1895,4.1895,4.1348,4.0784,4.0237,4.0121,4.007,4.007,4.007,4.007,4.007,4.007,4.007,4.007,4.007,4.007,4.007,4.007,4.007,4.007,4.007,4.007,4.007,4.007,4.007,4.007,4.007,4.007,4.007,4.007,4.007,4.007,4.007,4.007,4.007,4.007,3.9391,3.8241,3.6637,3.5827,3.4488,3.2557,3.2362,3.2048,3.1482,3.1482,3.1482,3.1482,3.1482,3.1482,3.1482,3.1482,3.1482,1.2039,1.3294,1.4329,1.4606,1.5421,1.6312,1.7092,1.7706,0.0,0.0,0.0,0.0,0.0,0.0,0.0,0.0,0.0,0.0,0.0,0.0,0.0,0.0,0.0,0.0,0.0,0.0,0.0,0.0,0.0,0.0,0.0,0.0,0.0,0.0,0.0,3.8252,3.8707,3.8707,3.8596,3.835,3.9046,3.9153,0.0,0.0,0.0,0.0,0.0,0.0,4.2302,4.2302,4.208,4.181,4.181,4.181,4.1768,4.149,4.1402,4.1358,4.1122,4.103,4.103,4.1001,4.0563,4.007,4.007,4.007,4.007,4.007,4.007,4.007,4.007,4.007,4.007,4.007,4.007,4.007,4.007,4.007,4.007,4.007,4.007,4.007,4.007,4.007,4.007,4.007,4.007,4.007,4.007,4.007,4.007,4.007,4.007,4.007,4.007,3.9731,3.8974,3.7845,3.6724,3.5361,3.3572,3.3126,3.2647,3.2003,3.1631,3.1482,3.1482,3.1839,3.1824,3.1539,3.214,3.2281,1.2657,1.342,1.3956,1.456,1.5276,1.6145,1.7175,1.7935,0.0,0.0,0.0,0.0,0.0,0.0,0.0,0.0,0.0,0.0,0.0,0.0,0.0,0.0,0.0,0.0,0.0,0.0,0.0,0.0,0.0,0.0,0.0,0.0,0.0,0.0,0.0,0.0,3.8099,3.8355,3.8234,3.7808,3.9103,3.9294,3.851,0.0,0.0,0.0,0.0,0.0,4.1664,4.1664,4.1621,4.1552,4.1552,4.1552,4.1508,4.0967,4.078,4.0685,4.0254,4.007,4.0154,4.0607,4.0449,4.007,4.007,4.007,4.007,4.007,4.007,4.007,4.007,4.007,4.007,4.007,4.007,4.007,4.007,4.007,4.007,4.007,4.007,4.007,4.007,4.007,4.007,4.007,4.007,4.007,4.007,4.007,4.007,4.007,4.007,4.007,4.007,4.007,3.9782,3.9139,3.7718,3.6251,3.4701,3.3895,3.323,3.2677,3.2018,3.1676,3.1839,3.2287,3.2287,3.1847,3.3084,3.3355,1.3294,1.3732,1.3956,1.456,1.5884,1.7216,1.7814,1.884,0.0,0.0,0.0,0.0,0.0,0.0,0.0,0.0,0.0,0.0,0.0,0.0,0.0,0.0,0.0,0.0,0.0,0.0,0.0,0.0,0.0,0.0,0.0,0.0,0.0,0.0,0.0,0.0,0.0,3.6774,3.7414,3.7285,3.7534,3.799,3.8608,3.9464,0.0,0.0,0.0,0.0,4.1041,4.1041,4.075,4.0336,4.0336,4.0336,4.0336,4.0254,4.0204,4.0204,4.0121,4.007,4.0121,4.0204,4.0171,4.007,4.007,4.007,4.007,4.007,4.007,4.007,4.007,4.007,4.007,4.007,4.007,4.007,4.007,4.007,4.007,4.007,4.007,4.007,4.007,4.007,4.007,4.007,4.007,4.007,4.007,4.007,4.007,4.007,4.007,4.007,4.007,4.007,4.007,3.9901,3.8498,3.6688,3.465,3.3845,3.344,3.335,3.2706,3.2647,3.3185,3.2736,3.2717,3.3198,3.4079,3.41,1.2929,1.3779,1.4329,1.4606,1.5531,1.6689,1.7854,1.8526,0.0,0.0,0.0,0.0,0.0,0.0,0.0,0.0,0.0,0.0,0.0,0.0,0.0,0.0,0.0,0.0,0.0,0.0,0.0,0.0,0.0,0.0,0.0,0.0,0.0,0.0,0.0,0.0,0.0,3.518,3.5896,3.619,3.6974,3.7245,3.7011,3.8102,3.8877,0.0,0.0,4.0358,4.0449,4.0449,4.0336,4.007,4.007,4.007,4.007,4.007,4.007,4.007,4.007,4.007,4.007,4.007,4.007,4.007,4.007,4.007,4.007,4.007,4.007,4.007,4.007,4.007,4.007,4.007,4.007,4.007,4.007,4.007,4.007,4.007,4.007,4.007,4.007,4.007,4.007,4.007,4.007,4.007,4.007,4.007,4.007,4.007,4.007,4.007,4.007,4.007,3.9731,3.8887,3.7834,3.6566,3.509,3.4038,3.3664,3.4023,3.338,3.3185,3.3499,3.3925,3.4158,3.4208,3.5673,3.598,1.2745,1.3884,1.4744,1.488,1.5576,1.6544,1.7828,1.8557,0.0,0.0,0.0,0.0,0.0,0.0,0.0,0.0,0.0,0.0,0.0,0.0,0.0,0.0,0.0,0.0,0.0,0.0,0.0,0.0,0.0,0.0,0.0,0.0,0.0,0.0,0.0,0.0,0.0,3.3778,3.4559,3.5128,3.6431,3.6661,3.5926,3.711,3.7736,3.7939,3.8497,3.9157,3.9817,3.9817,3.9918,4.007,4.007,4.007,4.007,4.007,4.007,4.007,4.007,4.007,4.007,4.007,4.007,4.007,4.007,4.007,4.007,4.007,4.007,4.007,4.007,4.007,4.007,4.007,4.007,4.007,4.007,4.007,4.007,4.007,4.007,4.007,4.007,4.007,4.007,4.007,4.007,4.007,4.007,4.007,4.007,4.007,4.007,4.007,4.007,4.007,3.9506,3.8133,3.756,3.6811,3.5816,3.4785,3.436,3.4711,3.4068,3.3799,3.3963,3.5094,3.5462,3.5227,3.7167,3.7675,1.3389,1.419,1.4835,1.541,1.6718,1.7963,1.814,1.9878,0.0,2.1585,0.0,0.0,0.0,0.0,0.0,0.0,0.0,0.0,0.0,0.0,0.0,0.0,0.0,0.0,0.0,0.0,0.0,0.0,0.0,0.0,0.0,0.0,0.0,0.0,0.0,0.0,0.0,0.0,3.3812,3.4575,3.5345,3.609,3.6705,3.6806,3.7246,3.7905,3.7973,3.8396,3.9073,3.9073,3.9462,4.007,4.007,4.007,4.007,4.007,4.007,4.007,4.007,4.007,4.007,4.007,4.007,4.007,4.007,4.007,4.007,4.007,4.007,4.007,4.007,4.007,4.007,4.007,4.007,4.007,4.007,4.007,4.007,4.007,4.007,4.007,4.007,4.007,4.007,4.007,4.007,4.007,4.007,4.007,4.007,4.007,4.007,4.007,4.007,4.007,3.9731,3.887,3.8804,3.8052,3.6615,3.6461,3.6105,3.5429,3.4756,3.4726,3.5355,3.5493,3.5915,3.6573,3.8101,3.8448,1.3426,1.4503,1.5398,1.5959,1.7094,0.0,0.0,2.0019,2.1506,2.255,2.3279,0.0,0.0,0.0,0.0,0.0,0.0,0.0,0.0,0.0,0.0,0.0,0.0,0.0,0.0,0.0,0.0,0.0,0.0,0.0,0.0,0.0,0.0,0.0,0.0,0.0,0.0,0.0,3.3085,3.3829,3.4556,3.5318,3.6062,3.6062,3.6485,3.7212,3.7212,3.7635,3.8328,3.8328,3.8471,3.865,3.865,3.9277,4.002,3.958,3.9698,4.007,4.007,4.007,4.007,4.007,4.007,4.007,4.007,4.007,4.007,4.007,4.007,4.007,4.007,4.007,4.007,4.007,4.007,4.007,4.007,4.007,4.007,4.007,4.007,4.007,4.007,4.007,4.007,4.007,4.007,4.007,4.007,4.007,4.007,4.007,4.007,4.007,4.007,4.007,3.9952,3.9662,3.9193,3.8453,3.7397,3.7338,3.7235,3.6951,3.6685,3.6685,3.6951,3.7403,3.7825,3.8117,3.9129,3.9496,1.3369,1.4664,1.5652,1.6046,0.0,0.0,1.9239,2.0469,2.186,2.322,2.3912,0.0,0.0,0.0,0.0,0.0,0.0,0.0,0.0,0.0,0.0,0.0,0.0,0.0,0.0,0.0,0.0,0.0,0.0,0.0,0.0,0.0,0.0,0.0,0.0,0.0,0.0,0.0,3.1757,3.249,3.2973,3.3874,3.498,3.5199,3.5358,3.5502,3.5941,3.6413,3.6903,3.7116,3.7203,3.7175,3.7387,3.8282,3.9396,3.8824,3.9076,3.9766,3.9715,3.975,3.9766,4.0003,4.007,4.007,4.007,4.007,4.007,4.007,4.007,4.007,4.007,4.007,4.007,4.007,4.007,4.007,4.007,4.007,4.007,4.007,4.007,4.007,4.007,4.007,4.007,4.007,4.007,4.007,4.007,4.007,4.007,4.007,4.007,4.007,4.007,4.007,4.007,4.007,3.9594,3.8924,3.8206,3.8149,3.8035,3.7806,3.7822,3.7822,3.7822,3.8525,3.8908,3.8908,3.9731,4.007,1.3273,1.4642,1.5516,0.0,0.0,0.0,1.9922,2.1439,2.2899,2.3572,0.0,0.0,0.0,0.0,0.0,0.0,0.0,0.0,0.0,0.0,0.0,0.0,0.0,0.0,0.0,0.0,0.0,0.0,0.0,0.0,0.0,0.0,0.0,0.0,0.0,0.0,0.0,0.0,2.9742,3.0523,3.0523,3.1572,3.3614,3.4277,3.3828,3.2673,3.4006,3.4643,3.4743,3.5429,3.5736,3.5824,3.6512,3.7246,3.7939,3.7837,3.8285,3.8974,3.8891,3.8954,3.9106,3.9834,4.007,4.007,4.007,4.007,4.007,4.007,4.007,4.007,4.007,4.007,4.007,4.007,4.007,4.007,4.007,4.007,4.007,4.007,4.007,4.007,4.007,4.007,4.007,4.007,4.007,4.007,4.007,4.007,4.007,4.007,4.007,4.007,4.007,4.007,4.007,4.007,4.007,3.9731,3.8962,3.8908,3.858,3.7822,3.7822,3.7822,3.7806,3.858,3.8908,3.8908,3.9731,4.007,1.4018,1.532,0.0,1.6714,0.0,0.0,0.0,2.1569,0.0,0.0,0.0,0.0,0.0,0.0,0.0,0.0,0.0,0.0,0.0,0.0,0.0,0.0,0.0,0.0,0.0,0.0,0.0,0.0,0.0,0.0,0.0,0.0,0.0,0.0,0.0,0.0,0.0,0.0,0.0,3.0523,3.0523,3.1098,3.219,3.24,3.2515,3.2592,3.2998,3.3448,3.395,3.4096,3.4482,3.5011,3.4603,3.5304,3.6384,3.5829,3.6378,3.7518,3.811,3.8621,3.9106,3.9834,4.007,4.007,4.007,4.007,4.007,4.007,4.007,4.007,4.007,4.007,4.007,4.007,4.007,4.007,4.007,4.007,4.007,4.007,4.007,4.007,4.007,4.007,4.007,4.007,4.007,4.007,4.007,4.007,4.007,4.007,4.007,4.007,4.007,4.007,4.007,4.007,4.007,4.0003,3.9782,3.9714,3.961,3.9401,3.9401,3.9401,3.9401,3.961,3.9714,3.9731,4.002,4.007,1.425,1.5543,0.0,1.6909,1.8018,1.9376,2.074,0.0,0.0,0.0,0.0,0.0,0.0,0.0,0.0,0.0,0.0,0.0,0.0,0.0,0.0,0.0,0.0,0.0,0.0,0.0,0.0,0.0,0.0,0.0,0.0,0.0,0.0,0.0,0.0,0.0,0.0,0.0,0.0,0.0,2.9358,2.9593,3.0064,3.0844,3.1142,3.1013,3.1279,3.1777,3.2376,3.2091,3.236,3.3013,3.2811,3.3662,3.4888,3.4422,3.4947,3.6062,3.6812,3.7364,3.7935,3.9243,3.9648,3.9698,3.9986,4.007,4.007,4.007,4.007,4.007,4.007,4.007,4.007,4.007,4.007,4.007,4.007,4.007,4.007,4.007,4.007,4.007,4.007,4.007,4.007,4.007,4.007,4.007,4.007,4.007,4.007,4.007,4.007,4.007,4.007,4.007,4.007,4.007,4.007,4.007,4.007,4.007,4.007,4.007,4.007,4.007,4.007,4.007,4.007,4.007,4.007,4.007,1.425,1.5576,0.0,1.6497,1.7747,0.0,2.1063,0.0,0.0,0.0,0.0,0.0,0.0,0.0,0.0,0.0,0.0,0.0,0.0,0.0,0.0,0.0,0.0,0.0,0.0,0.0,0.0,0.0,0.0,0.0,0.0,0.0,0.0,0.0,0.0,0.0,0.0,0.0,0.0,0.0,0.0,2.7625,2.7655,2.948,2.9705,2.8637,2.9295,2.9963,3.0474,2.9872,2.9953,3.0563,3.1259,3.23,3.3485,3.3357,3.3842,3.4601,3.5358,3.5659,3.6075,3.8268,3.8954,3.9039,3.9766,3.9986,3.9986,3.9986,4.002,4.007,4.007,4.007,4.007,4.007,4.007,4.007,4.007,4.007,4.007,4.007,4.007,4.007,4.007,4.007,4.007,4.007,4.007,4.007,4.007,4.007,4.007,4.007,4.007,4.007,4.007,4.007,4.007,4.007,4.007,4.007,4.007,4.007,4.007,4.007,4.007,4.007,4.007,4.007,4.007,4.007,4.007,4.007,1.4869,1.5952,0.0,0.0,1.8169,2.03,0.0,0.0,0.0,0.0,0.0,0.0,0.0,0.0,0.0,0.0,0.0,0.0,0.0,0.0,0.0,0.0,0.0,0.0,0.0,0.0,0.0,0.0,0.0,0.0,0.0,0.0,0.0,0.0,0.0,0.0,0.0,0.0,0.0,0.0,2.732,2.7625,2.7625,2.8047,2.8357,2.8637,2.9295,2.9672,2.9818,2.9687,2.9953,3.0507,3.0659,3.1227,3.195,3.195,3.243,3.3208,3.4478,3.5253,3.6075,3.8268,3.8616,3.8278,3.9005,3.9225,3.9225,3.9225,3.9631,4.007,4.007,4.007,4.007,4.007,4.007,4.007,4.007,4.007,4.007,4.007,4.007,4.007,4.007,4.007,4.007,4.007,4.007,4.007,4.007,4.007,4.007,4.007,4.007,4.007,4.007,4.007,4.007,4.007,4.007,4.007,4.007,4.007,4.007,4.007,4.007,4.007,4.007,4.007,4.007,4.007,4.007,4.007,1.4744,0.0,0.0,1.7504,0.0,2.0325,0.0,0.0,0.0,0.0,0.0,0.0,0.0,0.0,0.0,0.0,0.0,0.0,0.0,0.0,0.0,0.0,0.0,0.0,0.0,0.0,0.0,0.0,0.0,0.0,0.0,0.0,0.0,0.0,0.0,0.0,2.4567,2.4971,2.548,2.6123,2.6467,2.6632,2.6647,2.729,2.7769,2.8128,2.8472,2.8622,2.8622,2.8622,2.9011,2.9624,2.9939,3.0462,3.1076,3.1347,3.1739,3.2262,3.3699,3.4401,3.5036,3.723,3.7686,3.7499,3.8244,3.8464,3.8464,3.8464,3.8988,3.9546,3.9546,3.9817,4.007,4.007,4.007,4.007,4.007,4.007,4.007,4.007,4.007,4.007,4.007,4.007,4.007,4.007,4.007,4.007,4.007,4.007,4.007,4.007,4.007,4.007,4.007,4.007,4.007,4.007,4.007,4.007,4.007,4.007,4.007,4.007,4.007,4.007,4.007,4.007,4.007,4.007,4.007,4.007,1.447,0.0,1.7544,1.8612,1.9382,0.0,0.0,0.0,0.0,0.0,0.0,0.0,0.0,0.0,0.0,0.0,0.0,0.0,0.0,0.0,0.0,0.0,0.0,0.0,0.0,0.0,0.0,0.0,0.0,0.0,0.0,0.0,0.0,0.0,0.0,0.0,2.4403,2.4522,2.4896,2.5435,2.5555,2.5615,2.5644,2.6737,2.723,2.7245,2.74,2.7445,2.746,2.7565,2.7979,2.8667,2.9325,2.9968,3.0582,3.1285,3.1482,3.1682,3.2971,3.3443,3.3761,3.5791,3.6421,3.6565,3.7323,3.7607,3.7719,3.7719,3.8244,3.8836,3.8954,3.9445,3.9918,4.0054,4.007,4.007,4.007,4.007,4.007,4.007,4.007,4.007,4.007,4.007,4.007,4.007,4.007,4.007,4.007,4.007,4.007,4.007,4.007,4.007,4.007,4.007,4.007,4.007,4.007,4.007,4.007,4.007,4.007,4.007,4.007,4.007,4.007,4.007,4.007,4.007,4.007,4.007,0.0,0.0,1.7544,0.0,1.9382,2.0045,0.0,0.0,0.0,0.0,0.0,0.0,0.0,0.0,0.0,0.0,0.0,0.0,0.0,0.0,0.0,0.0,0.0,0.0,0.0,0.0,0.0,0.0,0.0,0.0,0.0,0.0,0.0,0.0,0.0,0.0,2.3729,2.4328,2.4627,2.4716,2.533,2.5615,2.5615,2.5794,2.5869,2.5899,2.6482,2.6722,2.6767,2.7335,2.7979,2.8667,2.9325,2.9968,3.0582,3.1285,3.1482,3.164,3.2437,3.2749,3.2951,3.4482,3.4954,3.5017,3.5761,3.6432,3.6924,3.6924,3.7483,3.8193,3.8819,3.9056,3.9292,3.9935,4.007,4.007,4.007,4.007,4.007,4.007,4.007,4.007,4.007,4.007,4.007,4.007,4.007,4.007,4.007,4.007,4.007,4.007,4.007,4.007,4.007,4.007,4.007,4.007,4.007,4.007,4.007,4.007,4.007,4.007,4.007,4.007,4.007,4.007,4.007,4.007,4.007,4.007,1.6384,1.7354,1.8027,0.0,1.9553,1.9849,0.0,0.0,0.0,0.0,0.0,0.0,0.0,0.0,0.0,0.0,0.0,0.0,0.0,0.0,0.0,0.0,0.0,0.0,0.0,0.0,0.0,0.0,0.0,0.0,0.0,2.3595,2.3595,2.3595,2.3595,0.0,2.3595,2.3894,2.4059,2.4059,2.4343,2.4477,2.4477,2.4477,2.4896,2.5644,2.6303,2.6587,2.6632,2.7305,2.7754,2.8098,2.8771,2.9205,2.952,3.0193,3.0447,3.0543,3.1243,3.1741,3.222,3.322,3.4022,3.4642,3.4971,3.5582,3.6129,3.6129,3.6688,3.7449,3.8193,3.8684,3.9174,3.9901,4.007,4.007,4.007,4.007,4.007,4.007,4.007,4.007,4.007,4.007,4.007,4.007,4.007,4.007,4.007,4.007,4.007,4.007,4.007,4.007,4.007,4.007,4.007,4.007,4.007,4.007,4.007,4.007,4.007,4.007,4.007,4.007,4.007,4.007,4.007,4.007,4.007,4.007,0.0,0.0,1.838,1.9442,1.969,1.9726,0.0,0.0,0.0,0.0,0.0,0.0,0.0,0.0,0.0,0.0,0.0,0.0,0.0,0.0,0.0,0.0,0.0,0.0,0.0,0.0,0.0,0.0,0.0,0.0,0.0,2.3595,2.3595,2.3595,2.3595,2.3595,2.3595,2.3595,2.3595,2.3595,2.3595,2.3595,2.3595,2.3595,2.4148,2.5136,2.5794,2.6183,2.6378,2.6871,2.726,2.767,2.8143,2.8442,2.8682,2.934,2.9579,2.9702,3.0326,3.092,3.1435,3.2102,3.3251,3.4333,3.4333,3.4941,3.5622,3.5622,3.6045,3.6705,3.7669,3.8311,3.8937,3.9868,4.007,4.007,4.007,4.007,4.007,4.007,4.007,4.007,4.007,4.007,4.007,4.007,4.007,4.007,4.007,4.007,4.007,4.007,4.007,4.007,4.007,4.007,4.007,4.007,4.007,4.007,4.007,4.007,4.007,4.007,4.007,4.007,4.007,4.007,4.007,4.007,4.007,4.007,1.7357,1.8106,0.0,1.9442,0.0,0.0,0.0,0.0,0.0,0.0,0.0,0.0,0.0,0.0,0.0,0.0,0.0,0.0,0.0,0.0,0.0,0.0,0.0,0.0,0.0,0.0,0.0,0.0,0.0,0.0,2.3565,2.3595,2.3595,2.3595,2.3595,2.3595,2.3595,2.3595,2.3595,2.3595,2.3595,2.3595,2.3595,2.3595,2.364,2.3744,2.4433,2.5076,2.5659,2.5689,2.6437,2.7625,2.7655,2.8023,2.8682,2.934,2.9579,2.9669,3.0293,3.0533,3.0668,3.1312,3.254,3.3633,3.3633,3.4544,3.5622,3.5622,3.5656,3.6028,3.7516,3.7939,3.8328,3.9732,4.007,4.007,4.007,4.007,4.007,4.007,4.007,4.007,4.007,4.007,4.007,4.007,4.007,4.007,4.007,4.007,4.007,4.007,4.007,4.007,4.007,4.007,4.007,4.007,4.007,4.007,4.007,4.007,4.007,4.007,4.007,4.007,4.007,4.007,4.007,4.007,4.007,4.007,1.7357,1.8106,0.0,1.9442,0.0,0.0,0.0,0.0,0.0,0.0,0.0,0.0,0.0,0.0,0.0,0.0,0.0,0.0,0.0,0.0,0.0,0.0,0.0,0.0,0.0,0.0,0.0,0.0,0.0,0.0,2.2368,2.2383,2.2383,2.2383,2.2787,2.3011,2.3011,2.2592,2.2592,2.3011,2.3011,2.3221,2.3595,2.3595,2.3595,2.361,2.3864,2.4358,2.5046,2.5899,2.6512,2.6976,2.741,2.7775,2.7979,2.8203,2.8577,2.8921,2.8697,2.919,2.9953,3.0193,3.1511,3.3056,3.3454,3.456,3.5622,3.5622,3.5622,3.5977,3.7516,3.7905,3.8278,3.9732,4.007,4.007,4.007,4.007,4.007,4.007,4.007,4.007,4.007,4.007,4.007,4.007,4.007,4.007,4.007,4.007,4.007,4.007,4.007,4.007,4.007,4.007,4.007,4.007,4.007,4.007,4.007,4.007,4.007,4.007,4.007,4.007,4.007,4.007,4.007,4.007,4.007,4.007,1.7102,1.794,0.0,0.0,0.0,0.0,0.0,0.0,0.0,0.0,0.0,0.0,0.0,0.0,0.0,0.0,0.0,0.0,0.0,0.0,0.0,0.0,0.0,0.0,0.0,0.0,0.0,0.0,0.0,0.0,2.168,2.1695,2.1695,2.1695,2.2113,2.2338,2.2338,2.1919,2.1919,2.2338,2.2338,2.2682,2.3295,2.3295,2.34,2.3595,2.3595,2.3984,2.4627,2.5315,2.5854,2.6303,2.6737,2.7051,2.726,2.7535,2.7859,2.8218,2.7993,2.8652,2.9579,2.9579,3.1109,3.2992,3.3217,3.4363,3.5622,3.5622,3.5622,3.591,3.7195,3.7905,3.8582,3.9783,4.007,4.007,4.007,4.007,4.007,4.007,4.007,4.007,4.007,4.007,4.007,4.007,4.007,4.007,4.007,4.007,4.007,4.007,4.007,4.007,4.007,4.007,4.007,4.007,4.007,4.007,4.007,4.007,4.007,4.007,4.007,4.007,4.007,4.007,4.007,4.007,4.007,4.007,0.0,0.0,0.0,0.0,0.0,0.0,0.0,0.0,0.0,0.0,0.0,0.0,0.0,0.0,0.0,0.0,0.0,0.0,0.0,0.0,0.0,0.0,0.0,0.0,0.0,0.0,0.0,0.0,0.0,0.0,2.1605,2.1635,2.165,2.1665,2.165,2.165,2.1665,2.165,2.165,2.1665,2.1665,2.2024,2.2724,2.2724,2.3011,2.3595,2.3595,2.3984,2.4507,2.3894,2.4403,2.5585,2.5615,2.6033,2.6662,2.732,2.7625,2.7694,2.8353,2.9011,2.9549,2.9564,3.1387,3.3406,3.2816,3.4001,3.5622,3.5622,3.5622,3.5808,3.6586,3.7872,3.914,3.9834,4.002,4.0054,4.0054,4.0054,4.007,4.007,4.007,4.007,4.007,4.007,4.007,4.007,4.007,4.007,4.007,4.007,4.007,4.007,4.007,4.007,4.007,4.007,4.007,4.007,4.007,4.007,4.007,4.007,4.007,4.007,4.007,4.007,4.007,4.007,4.007,4.007,4.007,4.007,1.6704,0.0,0.0,0.0,0.0,0.0,0.0,0.0,0.0,0.0,0.0,0.0,0.0,0.0,0.0,0.0,0.0,0.0,0.0,0.0,0.0,0.0,0.0,0.0,0.0,0.0,0.0,0.0,0.0,2.0049,2.0228,2.0243,2.0468,2.0976,2.0498,2.0483,2.0976,2.0498,2.0498,2.0991,2.0991,2.1575,2.2724,2.2724,2.3011,2.3595,2.3595,2.3714,2.3909,2.4223,2.4522,2.494,2.5944,2.6437,2.6662,2.732,2.7889,2.8263,2.7964,2.8308,2.8951,2.943,3.0753,3.2271,3.3104,3.4396,3.5622,3.5622,3.5622,3.5808,3.6586,3.7483,3.8261,3.8464,3.8903,3.9292,3.9292,3.9698,4.007,4.007,4.007,4.007,4.007,4.007,4.007,4.007,4.007,4.007,4.007,4.007,4.007,4.007,4.007,4.007,4.007,4.007,4.007,4.007,4.007,4.007,4.007,4.007,4.007,4.007,4.007,4.007,4.007,4.007,4.007,4.007,4.007,4.007,1.6864,1.786,0.0,0.0,0.0,0.0,2.0073,2.0379,0.0,0.0,0.0,0.0,0.0,0.0,0.0,0.0,0.0,0.0,0.0,0.0,0.0,0.0,0.0,0.0,0.0,0.0,0.0,0.0,1.969,1.969,1.969,1.969,1.9869,2.0273,1.9884,1.9884,2.0288,1.9884,1.9884,2.0288,2.0288,2.0976,2.2263,2.2263,2.2757,2.3595,2.3595,2.3595,2.3625,2.4029,2.4193,2.4328,2.5659,2.6183,2.6303,2.723,2.7829,2.8113,2.776,2.8023,2.8622,2.8712,3.0262,3.2128,3.2608,3.4083,3.5622,3.5622,3.5622,3.5808,3.6586,3.711,3.7516,3.7838,3.8464,3.8988,3.8988,3.9563,4.007,4.007,4.007,4.007,4.007,4.007,4.007,4.007,4.007,4.007,4.007,4.007,4.007,4.007,4.007,4.007,4.007,4.007,4.007,4.007,4.007,4.007,4.007,4.007,4.007,4.007,4.007,4.007,4.007,4.007,4.007,4.007,4.007,4.007,1.6998,1.8035,0.0,0.0,0.0,0.0,1.9973,2.0527,2.1051,0.0,0.0,0.0,0.0,0.0,0.0,0.0,0.0,0.0,0.0,0.0,0.0,0.0,0.0,0.0,0.0,0.0,0.0,1.969,1.969,1.969,1.969,1.969,1.969,1.969,1.969,1.969,1.969,1.969,1.969,1.969,1.969,2.0393,2.1695,2.1695,2.2398,2.3595,2.3595,2.3595,2.3595,2.3595,2.3595,2.3729,2.5076,2.5615,2.5764,2.7081,2.7625,2.7625,2.7625,2.7979,2.8397,2.7859,2.9828,3.2255,3.1759,3.334,3.5385,3.547,3.5554,3.5774,3.6468,3.6654,3.6823,3.7499,3.821,3.8751,3.8751,3.9377,3.9952,3.9952,4.002,4.007,4.007,4.007,4.007,4.007,4.007,4.007,4.007,4.007,4.007,4.007,4.007,4.007,4.007,4.007,4.007,4.007,4.007,4.007,4.007,4.007,4.007,4.007,4.007,4.007,4.007,4.007,4.007,4.007,4.007,4.0121,0.0,0.0,0.0,0.0,0.0,0.0,2.0606,2.0895,2.1228,0.0,0.0,0.0,0.0,0.0,0.0,0.0,0.0,0.0,0.0,0.0,0.0,0.0,0.0,0.0,0.0,0.0,0.0,1.969,1.969,1.969,1.969,1.969,1.969,1.969,1.969,1.969,1.969,1.969,1.969,1.969,1.969,2.0393,2.1695,2.1695,2.2398,2.3595,2.3595,2.3595,2.3595,2.3595,2.3595,2.3729,2.5076,2.5615,2.5764,2.7081,2.7625,2.7625,2.7625,2.7715,2.7844,2.8263,2.9546,3.0973,3.139,3.2586,3.3964,3.4556,3.5148,3.5656,3.5808,3.5842,3.5876,3.6028,3.6654,3.7212,3.7212,3.8261,3.9208,3.9208,3.9681,4.007,4.007,4.007,4.007,4.007,4.007,4.007,4.007,4.007,4.007,4.007,4.007,4.007,4.007,4.007,4.007,4.007,4.007,4.007,4.007,4.007,4.007,4.007,4.007,4.007,4.007,4.007,4.007,4.007,4.007,4.0409,0.0,0.0,0.0,1.9169,0.0,0.0,0.0,2.0591,0.0,0.0,0.0,0.0,0.0,0.0,0.0,0.0,0.0,0.0,0.0,0.0,0.0,0.0,0.0,0.0,0.0,0.0,1.969,1.969,1.969,1.969,1.969,1.969,1.969,1.969,1.969,1.969,1.969,1.969,1.969,1.969,1.969,2.0228,2.1216,2.1545,2.2218,2.3161,2.346,2.3595,2.3595,2.3595,2.3595,2.3699,2.4717,2.5121,2.5241,2.6228,2.6797,2.7081,2.7081,2.7305,2.7685,2.7979,2.9175,3.0541,3.0893,3.2401,3.4032,3.4387,3.503,3.5622,3.5622,3.5622,3.5622,3.5622,3.6214,3.6772,3.6772,3.7669,3.8565,3.892,3.9292,3.9648,4.002,4.007,4.007,4.007,4.007,4.007,4.007,4.007,4.007,4.007,4.007,4.007,4.007,4.007,4.007,4.007,4.007,4.007,4.007,4.007,4.007,4.007,4.007,4.007,4.007,4.007,4.007,4.007,4.007,4.029,0.0,0.0,0.0,0.0,0.0,1.9647,0.0,0.0,0.0,0.0,0.0,0.0,0.0,0.0,0.0,0.0,0.0,0.0,0.0,0.0,0.0,0.0,0.0,0.0,0.0,0.0,0.0,1.9726,1.969,1.969,1.969,1.969,1.969,1.969,1.969,1.969,1.969,1.969,1.969,1.969,1.969,2.0049,2.0737,2.1261,2.1859,2.2517,2.3011,2.3236,2.3236,2.337,2.343,2.3505,2.4313,2.4582,2.4657,2.536,2.6019,2.6587,2.6587,2.7021,2.7625,2.7625,2.8804,3.0314,3.0558,3.2249,3.41,3.4252,3.4827,3.5436,3.5588,3.5622,3.5622,3.5622,3.6096,3.6552,3.6552,3.7161,3.7855,3.8447,3.8802,3.9225,3.9952,4.007,4.007,4.007,4.007,4.007,4.007,4.007,4.007,4.007,4.007,4.007,4.007,4.007,4.007,4.007,4.007,4.007,4.007,4.007,4.007,4.007,4.007,4.007,4.007,4.007,4.007,4.007,4.007,4.0155,0.0,0.0,0.0,0.0,1.9369,0.0,0.0,0.0,0.0,0.0,0.0,0.0,0.0,0.0,0.0,0.0,0.0,0.0,0.0,0.0,0.0,0.0,0.0,0.0,0.0,0.0,0.0,0.0,1.969,1.969,1.969,1.969,1.969,1.969,1.969,1.969,1.969,1.969,1.969,1.969,1.969,2.0049,2.0722,2.0797,2.1186,2.1814,2.1889,2.1919,2.1964,2.2547,2.2787,2.2906,2.4148,2.4582,2.4657,2.536,2.6019,2.6587,2.6587,2.7021,2.7625,2.7625,2.8446,2.9697,3.0775,3.1786,3.2679,3.3339,3.4066,3.4776,3.5453,3.5622,3.5622,3.5622,3.569,3.5757,3.5757,3.6366,3.6924,3.7009,3.8091,3.9225,3.9952,4.007,4.007,4.007,4.007,4.007,4.007,4.007,4.007,4.007,4.007,4.007,4.007,4.007,4.007,4.007,4.007,4.007,4.007,4.007,4.007,4.007,4.007,4.007,4.007,4.007,4.007,4.007,4.007,4.0443,0.0,0.0,0.0,0.0,0.0,0.0,0.0,0.0,2.0416,0.0,0.0,0.0,0.0,0.0,0.0,0.0,0.0,0.0,0.0,0.0,0.0,0.0,0.0,0.0,0.0,0.0,0.0,0.0,0.0,1.969,1.969,1.969,1.969,1.969,1.969,1.969,1.969,1.969,1.969,1.969,1.969,1.9839,2.0124,2.0528,2.0857,2.1141,2.153,2.1695,2.1724,2.1994,2.2338,2.2727,2.3281,2.3714,2.4059,2.4343,2.4866,2.551,2.5884,2.6663,2.7733,2.8808,2.9255,2.9629,3.0838,3.1698,3.2442,3.3186,3.3626,3.4134,3.5318,3.5301,3.5081,3.552,3.5622,3.5622,3.5622,3.5876,3.6366,3.7263,3.7939,3.8717,3.9884,4.007,4.007,4.007,4.007,4.007,4.007,4.007,4.007,4.007,4.007,4.007,4.007,4.007,4.007,4.007,4.007,4.007,4.007,4.007,4.007,4.007,4.007,4.007,4.007,4.007,4.007,4.007,4.007,4.0493,1.7354,0.0,0.0,0.0,0.0,0.0,0.0,0.0,0.0,0.0,0.0,0.0,0.0,0.0,0.0,0.0,0.0,0.0,0.0,0.0,0.0,0.0,0.0,0.0,0.0,0.0,0.0,0.0,0.0,0.0,1.969,1.969,1.969,1.969,1.969,1.969,1.969,1.969,1.969,1.969,1.969,1.969,1.9741,2.0198,2.0438,2.0453,2.0932,2.1141,2.1156,2.135,2.1814,2.2428,2.2649,2.3056,2.3595,2.3595,2.4029,2.4686,2.5375,2.6549,2.8045,2.9756,2.9978,2.9848,3.0878,3.1562,3.2138,3.2882,3.3102,3.344,3.4928,3.4912,3.4692,3.5436,3.5622,3.5622,3.5622,3.5622,3.5943,3.706,3.7449,3.799,3.9276,3.9817,4.007,4.007,4.007,4.007,4.007,4.007,4.007,4.007,4.007,4.007,4.007,4.007,4.007,4.007,4.007,4.007,4.007,4.007,4.007,4.007,4.007,4.007,4.007,4.007,4.007,4.007,4.007,4.0493,0.0,0.0,0.0,0.0,0.0,0.0,0.0,0.0,1.9945,0.0,0.0,0.0,0.0,0.0,2.0783,2.0018,0.0,0.0,0.0,0.0,0.0,0.0,0.0,0.0,0.0,0.0,0.0,0.0,0.0,0.0,1.969,1.969,1.969,1.969,1.969,1.969,1.969,1.969,1.969,1.969,1.969,1.969,1.969,1.9705,1.972,1.972,1.9735,1.975,1.9794,2.0468,2.1141,2.1799,2.2428,2.3056,2.3595,2.3595,2.4029,2.4686,2.5375,2.6868,2.867,2.9892,3.0293,3.0393,3.1015,3.1207,3.1376,3.2121,3.2364,3.2645,3.415,3.4506,3.4692,3.5436,3.5622,3.5622,3.5622,3.5622,3.5639,3.569,3.6299,3.706,3.7838,3.914,4.007,4.007,4.007,4.007,4.007,4.007,4.007,4.007,4.007,4.007,4.007,4.007,4.007,4.007,4.007,4.007,4.007,4.007,4.007,4.007,4.007,4.007,4.007,4.007,4.007,4.007,4.007,4.0493,0.0,0.0,1.7027,1.8521,0.0,0.0,0.0,0.0,0.0,0.0,0.0,0.0,0.0,0.0,2.1038,1.995,2.054,2.0799,0.0,0.0,0.0,0.0,0.0,0.0,0.0,0.0,0.0,0.0,0.0,0.0,0.0,1.969,1.969,1.969,1.969,1.969,1.969,1.969,1.969,1.969,1.969,1.969,1.969,1.969,1.969,1.969,1.969,1.969,1.9735,2.0423,2.1111,2.1754,2.2428,2.3056,2.3595,2.3595,2.3744,2.422,2.6119,2.7469,2.865,3.0352,3.0617,3.0435,3.1015,3.119,3.1343,3.207,3.1935,3.1901,3.3389,3.3406,3.3339,3.4573,3.4878,3.5013,3.5504,3.5622,3.5774,3.6282,3.6603,3.7178,3.8413,3.9358,3.9932,4.0086,4.007,4.007,4.007,4.007,4.007,4.007,4.0417,4.0497,4.0121,4.007,4.007,4.007,4.007,4.007,4.007,4.007,4.007,4.007,4.007,4.007,4.007,4.007,4.0341,4.0832,4.0832,4.1221,1.6353,1.6818,0.0,0.0,1.9169,0.0,0.0,0.0,0.0,0.0,0.0,0.0,0.0,0.0,2.0878,2.0035,2.0616,2.0813,0.0,1.969,0.0,0.0,0.0,0.0,0.0,0.0,0.0,0.0,0.0,0.0,0.0,0.0,1.969,1.969,1.969,1.969,1.969,1.969,1.969,1.969,1.969,1.969,1.969,1.969,1.969,1.969,1.969,1.969,1.972,2.0168,2.0737,2.141,2.2069,2.2821,2.3546,2.3591,2.4068,2.4915,2.6751,2.8114,2.9231,3.0727,3.0935,3.0699,3.1095,3.119,3.1292,3.1765,3.1562,3.1478,3.2696,3.2645,3.2645,3.4134,3.4489,3.4692,3.5453,3.5622,3.5774,3.6265,3.6366,3.6755,3.799,3.8894,3.9606,4.0312,4.0546,4.0642,4.0417,4.0368,4.0336,4.0121,4.0577,4.078,4.04,4.0368,4.0286,4.0121,4.007,4.007,4.007,4.007,4.0206,4.0476,4.0206,4.0206,4.0476,4.0476,4.073,4.1221,4.1745,4.2252]},{"header":{"parameterUnit":"m.s-1","parameterCategory":1,"la1":30.6,"la2":29.2853,"lo1":-89.7004,"lo2":-87.6739,"dy":0.0162,"dx":0.0183,"nx":112,"ny":82,"refTime":"2024-04-10T06:00:00:Z","depth":0,"parameterNumber":3,"parameterNumberName":"V-component_of_WINDS"},"data":[0.0,0.0,0.0,0.0,0.0,0.0,0.0,0.0,0.0,0.0,0.0,0.0,0.0,0.0,0.0,0.0,0.0,0.0,0.0,0.0,0.0,0.0,0.0,0.0,0.0,0.0,0.0,0.0,0.0,0.0,0.0,0.0,0.0,0.0,0.0,0.0,0.0,0.0,0.0,0.0,0.0,0.0,0.0,0.0,0.0,0.0,0.0,0.0,0.0,0.0,0.0,0.0,0.0,0.0,0.0,0.0,0.0,0.0,0.0,0.0,0.0,0.0,0.0,0.0,0.0,0.0,0.0,0.0,0.0,0.0,0.0,0.0,0.0,0.0,0.0,0.0,0.0,0.0,0.0,0.0,0.0,0.0,0.0,0.0,0.0,0.0,0.0,0.0,0.0,0.0,0.0,-1.1508,-1.24,-1.2734,-1.2363,-1.2666,-1.2725,-1.2353,0.0,0.0,0.0,0.0,0.0,0.0,0.0,0.0,0.0,0.0,0.0,0.0,0.0,0.0,0.0,0.0,0.0,0.0,0.0,0.0,0.0,0.0,0.0,0.0,0.0,0.0,0.0,0.0,0.0,0.0,0.0,0.0,0.0,0.0,0.0,0.0,0.0,0.0,0.0,0.0,0.0,0.0,0.0,0.0,0.0,0.0,0.0,0.0,0.0,0.0,0.0,0.0,0.0,0.0,0.0,0.0,0.0,0.0,0.0,0.0,0.0,0.0,0.0,0.0,0.0,0.0,0.0,0.0,0.0,0.0,0.0,0.0,0.0,0.0,0.0,0.0,0.0,0.0,0.0,0.0,0.0,0.0,0.0,0.0,0.0,0.0,0.0,0.0,0.0,0.0,0.0,0.0,0.0,0.0,0.0,0.0,0.0,0.0,0.0,0.0,0.0,0.0,0.0,0.0,-1.0615,-1.1508,-1.24,-1.2852,-1.2783,-1.2842,-1.2852,-1.2783,0.0,0.0,0.0,0.0,0.0,0.0,0.0,0.0,0.0,0.0,0.0,0.0,0.0,0.0,0.0,0.0,0.0,0.0,0.0,0.0,0.0,0.0,0.0,0.0,0.0,0.0,0.0,0.0,0.0,0.0,0.0,0.0,0.0,0.0,0.0,0.0,0.0,0.0,0.0,0.0,0.0,0.0,0.0,0.0,0.0,0.0,0.0,0.0,0.0,0.0,0.0,0.0,0.0,0.0,0.0,0.0,0.0,0.0,0.0,0.0,0.0,0.0,0.0,0.0,0.0,0.0,0.0,0.0,0.0,0.0,0.0,0.0,0.0,0.0,0.0,0.0,0.0,0.0,0.0,0.0,0.0,0.0,0.0,0.0,0.0,0.0,0.0,0.0,0.0,0.0,0.0,0.0,0.0,0.0,0.0,0.0,0.0,0.0,0.0,0.0,0.0,0.0,0.0,-1.083,-1.1221,-1.1855,-1.25,-1.2881,-1.2881,-1.2881,-1.2881,-1.2881,-1.2881,0.0,0.0,0.0,0.0,0.0,0.0,0.0,0.0,0.0,0.0,0.0,0.0,0.0,0.0,0.0,0.0,0.0,0.0,0.0,0.0,0.0,0.0,0.0,0.0,0.0,0.0,0.0,0.0,0.0,0.0,0.0,0.0,0.0,0.0,0.0,0.0,0.0,0.0,0.0,0.0,0.0,0.0,0.0,0.0,0.0,0.0,0.0,0.0,0.0,0.0,0.0,0.0,0.0,0.0,0.0,0.0,0.0,0.0,0.0,0.0,0.0,0.0,0.0,0.0,0.0,0.0,0.0,0.0,0.0,0.0,0.0,0.0,0.0,0.0,0.0,0.0,0.0,0.0,0.0,0.0,0.0,0.0,0.0,0.0,0.0,0.0,0.0,0.0,0.0,0.0,0.0,0.0,0.0,0.0,0.0,0.0,0.0,0.0,0.0,0.0,0.0,0.0,-1.1387,-1.1846,-1.2187,-1.2617,-1.2881,-1.2881,-1.2881,-1.2832,-1.2666,-1.2822,0.0,0.0,0.0,0.0,0.0,0.0,0.0,0.0,0.0,0.0,0.0,0.0,0.0,0.0,0.0,0.0,0.0,0.0,0.0,0.0,0.0,0.0,0.0,0.0,0.0,0.0,0.0,0.0,0.0,0.0,0.0,0.0,0.0,0.0,0.0,0.0,0.0,0.0,0.0,0.0,0.0,0.0,0.0,0.0,0.0,0.0,0.0,0.0,0.0,0.0,0.0,0.0,0.0,0.0,0.0,0.0,0.0,0.0,0.0,0.0,0.0,0.0,0.0,0.0,0.0,0.0,0.0,0.0,0.0,0.0,0.0,0.0,0.0,0.0,0.0,0.0,0.0,0.0,0.0,0.0,0.0,0.0,0.0,0.0,0.0,0.0,0.0,0.0,0.0,0.0,0.0,0.0,0.0,0.0,0.0,0.0,0.0,0.0,0.0,0.0,0.0,0.0,-1.166,-1.2151,-1.218,-1.2617,-1.2881,-1.2881,-1.2881,-1.2618,-1.1922,-1.251,0.0,0.0,0.0,0.0,0.0,0.0,0.0,0.0,0.0,0.0,0.0,0.0,0.0,0.0,0.0,0.0,0.0,0.0,0.0,0.0,0.0,0.0,0.0,0.0,0.0,0.0,0.0,0.0,0.0,0.0,0.0,0.0,0.0,0.0,0.0,0.0,0.0,0.0,0.0,0.0,0.0,0.0,0.0,0.0,0.0,0.0,0.0,0.0,0.0,0.0,0.0,0.0,0.0,0.0,0.0,0.0,0.0,0.0,0.0,0.0,0.0,0.0,0.0,0.0,0.0,0.0,0.0,0.0,0.0,0.0,0.0,0.0,0.0,0.0,0.0,0.0,0.0,0.0,0.0,0.0,0.0,0.0,0.0,0.0,0.0,0.0,0.0,0.0,0.0,0.0,0.0,0.0,0.0,0.0,0.0,0.0,0.0,0.0,0.0,0.0,0.0,0.0,-1.1976,-1.2287,0.0,-1.2357,-1.2187,-1.2187,-1.1832,-1.1475,-1.1166,0.0,0.0,0.0,0.0,0.0,0.0,0.0,0.0,0.0,0.0,0.0,0.0,0.0,0.0,0.0,0.0,0.0,0.0,0.0,0.0,0.0,0.0,0.0,0.0,0.0,0.0,0.0,0.0,0.0,0.0,0.0,0.0,0.0,0.0,0.0,0.0,0.0,0.0,0.0,0.0,0.0,0.0,0.0,0.0,0.0,0.0,0.0,0.0,0.0,0.0,0.0,0.0,0.0,0.0,0.0,0.0,0.0,0.0,0.0,0.0,0.0,0.0,0.0,0.0,0.0,0.0,0.0,0.0,0.0,0.0,0.0,0.0,0.0,0.0,0.0,0.0,0.0,0.0,0.0,0.0,0.0,0.0,0.0,0.0,0.0,0.0,0.0,0.0,0.0,0.0,0.0,0.0,0.0,0.0,0.0,0.0,0.0,0.0,0.0,0.0,0.0,0.0,-1.2141,-1.2353,-1.2549,0.0,-1.2452,-1.203,-1.1814,-1.1366,-1.0965,-1.0517,0.0,0.0,0.0,0.0,0.0,0.0,0.0,0.0,0.0,0.0,0.0,0.0,0.0,0.0,0.0,0.0,0.0,0.0,0.0,0.0,0.0,0.0,0.0,0.0,0.0,0.0,0.0,0.0,0.0,0.0,0.0,0.0,0.0,0.0,0.0,0.0,0.0,0.0,0.0,0.0,0.0,0.0,0.0,0.0,0.0,0.0,0.0,0.0,0.0,0.0,0.0,0.0,0.0,0.0,0.0,0.0,0.0,0.0,0.0,0.0,0.0,0.0,0.0,0.0,0.0,0.0,0.0,0.0,0.0,0.0,0.0,0.0,0.0,0.0,0.0,0.0,0.0,0.0,0.0,0.0,0.0,0.0,0.0,0.0,0.0,0.0,0.0,0.0,0.0,0.0,0.0,0.0,0.0,0.0,0.0,0.0,0.0,0.0,0.0,0.0,0.0,0.0,-1.219,-1.2617,-1.2881,-1.2881,-1.2881,-1.2559,-1.1864,-1.1765,-1.1216,0.0,0.0,0.0,0.0,0.0,0.0,0.0,0.0,0.0,0.0,0.0,0.0,0.0,0.0,0.0,0.0,0.0,0.0,0.0,0.0,0.0,0.0,0.0,0.0,0.0,0.0,0.0,0.0,0.0,0.0,0.0,0.0,0.0,0.0,0.0,0.0,0.0,0.0,0.0,0.0,0.0,0.0,0.0,0.0,0.0,0.0,0.0,0.0,0.0,0.0,0.0,0.0,0.0,0.0,0.0,0.0,0.0,0.0,0.0,0.0,0.0,0.0,0.0,0.0,0.0,0.0,0.0,0.0,0.0,0.0,0.0,0.0,0.0,0.0,0.0,0.0,0.0,0.0,0.0,0.0,0.0,0.0,0.0,0.0,0.0,0.0,0.0,0.0,0.0,0.0,0.0,0.0,0.0,0.0,0.0,0.0,0.0,0.0,0.0,0.0,0.0,0.0,0.0,0.0,-1.2803,-1.2881,-1.2881,-1.1999,-1.1325,-1.1116,-1.0218,-0.951,-0.9106,0.0,0.0,0.0,0.0,0.0,0.0,0.0,0.0,0.0,0.0,0.0,0.0,0.0,0.0,0.0,0.0,0.0,0.0,0.0,0.0,0.0,0.0,0.0,0.0,0.0,0.0,0.0,0.0,0.0,0.0,0.0,0.0,0.0,0.0,0.0,0.0,0.0,0.0,0.0,0.0,0.0,0.0,0.0,0.0,0.0,0.0,0.0,0.0,0.0,0.0,0.0,0.0,0.0,0.0,0.0,0.0,0.0,0.0,0.0,0.0,0.0,0.0,0.0,0.0,0.0,0.0,0.0,0.0,0.0,0.0,0.0,0.0,0.0,0.0,0.0,0.0,0.0,0.0,0.0,0.0,0.0,0.0,0.0,0.0,0.0,0.0,0.0,0.0,0.0,0.0,0.0,0.0,0.0,0.0,0.0,0.0,0.0,0.0,0.0,0.0,0.0,0.0,-1.2881,-1.2657,-1.2452,-1.2452,-1.1475,-1.0712,-1.0415,-0.9666,-0.9061,-0.8804,0.0,0.0,0.0,0.0,0.0,0.0,0.0,0.0,0.0,0.0,0.0,0.0,0.0,0.0,0.0,0.0,0.0,0.0,0.0,0.0,0.0,0.0,0.0,0.0,0.0,0.0,0.0,0.0,0.0,0.0,0.0,0.0,0.0,0.0,0.0,0.0,0.0,0.0,0.0,0.0,0.0,0.0,0.0,0.0,0.0,0.0,0.0,0.0,0.0,0.0,0.0,0.0,0.0,0.0,0.0,0.0,0.0,0.0,0.0,0.0,0.0,0.0,0.0,0.0,0.0,0.0,0.0,0.0,0.0,0.0,0.0,0.0,0.0,0.0,0.0,0.0,0.0,0.0,0.0,0.0,0.0,0.0,0.0,0.0,0.0,0.0,0.0,0.0,0.0,0.0,0.0,0.0,0.0,0.0,0.0,0.0,0.0,0.0,0.0,0.0,0.0,0.0,-1.2881,-1.2236,-1.1814,-1.1814,-1.1166,-1.0466,-0.9865,-0.9762,-0.9465,-0.8857,0.0,0.0,0.0,0.0,0.0,0.0,0.0,0.0,0.0,0.0,0.0,0.0,0.0,0.0,0.0,0.0,0.0,0.0,0.0,0.0,0.0,0.0,0.0,0.0,0.0,0.0,0.0,0.0,0.0,0.0,0.0,0.0,0.0,0.0,0.0,0.0,0.0,0.0,0.0,0.0,0.0,0.0,0.0,0.0,0.0,0.0,0.0,0.0,0.0,0.0,0.0,0.0,0.0,0.0,0.0,0.0,0.0,0.0,0.0,0.0,-0.4239,0.0,0.0,0.0,0.0,0.0,0.0,0.0,0.0,0.0,0.0,0.0,0.0,0.0,0.0,0.0,0.0,0.0,0.0,0.0,0.0,0.0,0.0,0.0,0.0,0.0,0.0,0.0,0.0,0.0,0.0,0.0,0.0,0.0,0.0,0.0,0.0,0.0,0.0,0.0,0.0,0.0,-1.2881,-1.2236,-1.1814,-1.1814,-1.072,-0.9961,-0.9814,-0.9309,-0.8956,-0.8811,0.0,0.0,0.0,0.0,0.0,0.0,0.0,0.0,0.0,0.0,0.0,0.0,0.0,0.0,0.0,0.0,0.0,0.0,0.0,0.0,0.0,0.0,0.0,0.0,0.0,0.0,0.0,0.0,0.0,0.0,0.0,0.0,0.0,0.0,0.0,0.0,0.0,0.0,0.0,0.0,0.0,0.0,0.0,0.0,0.0,0.0,0.0,0.0,0.0,0.0,0.0,0.0,0.0,0.0,0.0,0.0,0.0,0.0,0.0,0.0,0.0,-0.4519,0.0,0.0,0.0,0.0,0.0,0.0,0.0,0.0,0.0,0.0,0.0,0.0,0.0,0.0,0.0,0.0,0.0,0.0,0.0,0.0,0.0,0.0,0.0,0.0,0.0,0.0,0.0,0.0,0.0,0.0,0.0,0.0,0.0,0.0,0.0,0.0,0.0,0.0,0.0,0.0,-1.2881,-1.199,-1.1316,-1.1316,-1.0115,-0.9309,-0.9309,-0.9008,-0.8804,-0.8804,-0.8804,0.0,0.0,0.0,0.0,0.0,0.0,0.0,0.0,0.0,0.0,0.0,0.0,0.0,0.0,0.0,0.0,0.0,0.0,0.0,0.0,0.0,0.0,0.0,0.0,0.0,0.0,0.0,0.0,0.0,0.0,0.0,0.0,0.0,0.0,0.0,0.0,0.0,0.0,0.0,0.0,0.0,0.0,0.0,0.0,0.0,0.0,0.0,0.0,0.0,0.0,0.0,0.0,0.0,0.0,0.0,-0.4597,-0.4597,-0.4597,-0.4597,-0.4597,-0.4567,-0.4519,0.0,0.0,0.0,0.0,0.0,0.0,0.0,0.0,0.0,0.0,0.0,0.0,0.0,0.0,0.0,0.0,0.0,0.0,0.0,0.0,0.0,0.0,0.0,0.0,0.0,-0.9211,-0.9113,0.0,0.0,0.0,0.0,0.0,0.0,0.0,0.0,0.0,0.0,0.0,0.0,-1.2569,-1.1534,-1.0762,-1.0669,-0.951,-0.8804,-0.8804,-0.8804,-0.8804,-0.8804,-0.8804,-0.8804,0.0,0.0,0.0,0.0,0.0,0.0,0.0,0.0,0.0,0.0,0.0,0.0,0.0,0.0,0.0,0.0,0.0,0.0,0.0,0.0,0.0,0.0,0.0,0.0,0.0,0.0,0.0,0.0,0.0,0.0,0.0,0.0,-0.2025,-0.2025,0.0,0.0,0.0,0.0,0.0,0.0,0.0,0.0,0.0,0.0,0.0,0.0,0.0,0.0,-0.4457,-0.4477,-0.4501,-0.4633,-0.4653,-0.4728,-0.486,-0.486,-0.486,-0.486,-0.486,0.0,-0.4519,-0.4519,0.0,0.0,0.0,0.0,0.0,0.0,0.0,0.0,0.0,0.0,0.0,0.0,0.0,0.0,0.0,0.0,0.0,0.0,0.0,0.0,0.0,0.0,-0.8804,-0.8903,-0.8857,-0.8857,0.0,-0.951,-1.0115,-1.0821,0.0,0.0,0.0,0.0,0.0,0.0,0.0,0.0,-1.1225,-1.0914,-1.0568,-1.0012,-0.9263,-0.8804,-0.8804,-0.8804,-0.8804,-0.8804,-0.8804,-0.8804,-0.8804,-0.8804,0.0,0.0,0.0,0.0,0.0,0.0,0.0,0.0,0.0,0.0,0.0,0.0,0.0,0.0,0.0,0.0,0.0,0.0,0.0,0.0,0.0,0.0,0.0,0.0,0.0,0.0,0.0,0.0,0.0,-0.1529,-0.0802,-0.0784,-0.1672,-0.2742,0.0,0.0,0.0,0.0,0.0,0.0,0.0,0.0,0.0,-0.4515,-0.4484,-0.4528,-0.4589,-0.4677,-0.4752,-0.4819,-0.4819,-0.4853,-0.4921,-0.5003,-0.5036,-0.5036,-0.5036,-0.4962,-0.4823,-0.466,-0.4594,-0.4515,0.0,0.0,0.0,0.0,0.0,0.0,-0.6199,0.0,0.0,0.0,0.0,0.0,0.0,0.0,0.0,0.0,0.0,0.0,0.0,0.0,0.0,-0.8804,-0.8804,-0.8804,-0.8804,-0.9008,-0.9413,0.0,-1.0269,-1.0559,-1.1616,0.0,0.0,0.0,0.0,0.0,-1.0872,-1.0466,-1.0115,-0.9814,-0.9211,-0.8804,-0.8804,-0.8804,-0.8804,-0.8804,-0.8804,-0.8804,-0.8804,-0.8804,-0.8945,0.0,0.0,0.0,0.0,0.0,0.0,0.0,0.0,0.0,0.0,0.0,0.0,0.0,0.0,0.0,0.0,0.0,0.0,0.0,0.0,0.0,0.0,0.0,0.0,0.0,0.0,0.0,0.0,-0.0761,0.0,0.0,-0.0988,-0.2284,0.0,0.0,0.0,0.0,0.0,0.0,-0.4473,-0.4563,-0.458,-0.4577,-0.467,-0.4752,-0.4748,-0.4867,-0.4962,-0.5033,-0.5033,-0.507,-0.5148,-0.5254,-0.5301,-0.5301,-0.5301,-0.5281,-0.5223,-0.4887,-0.466,-0.4577,-0.4577,-0.4553,0.0,-0.4519,-0.4543,-0.4626,-0.5289,-0.5517,-0.5771,-0.7036,0.0,-0.783,-0.8586,0.0,0.0,0.0,0.0,-0.8804,-0.8804,0.0,-0.8804,-0.8804,-0.8804,-0.8804,-0.8804,-0.8804,-0.8962,0.0,-0.9562,-0.9917,-1.1065,0.0,0.0,0.0,0.0,-1.0661,-1.0312,-1.0012,-0.971,-0.9562,-0.9113,-0.8804,-0.8804,-0.8804,-0.8804,-0.8804,-0.8804,-0.8838,-0.8918,-0.8918,-0.9092,0.0,0.0,0.0,0.0,0.0,0.0,0.0,0.0,0.0,0.0,0.0,0.0,0.0,0.0,0.0,0.0,0.0,0.0,0.0,0.0,0.0,0.0,0.0,0.0,0.0,0.0,0.0,0.0,0.0,0.0,0.0,-0.0053,0.0,0.0,0.0,0.0,-0.2388,-0.228,-0.2952,-0.4421,-0.4676,-0.4752,-0.468,-0.4777,-0.4857,-0.4908,-0.505,-0.5199,-0.5404,-0.5404,-0.5488,-0.5755,-0.5766,-0.5769,-0.5769,-0.5769,-0.5691,-0.5532,-0.5091,-0.4816,-0.4677,-0.4677,-0.4589,-0.4519,-0.4519,-0.4555,-0.4772,-0.5333,-0.5605,-0.5897,-0.6489,-0.7128,-0.783,-0.8586,-0.8804,0.0,0.0,-0.8804,-0.8804,-0.8804,-0.8804,-0.8804,-0.8804,-0.8804,-0.8804,-0.8804,-0.8804,-0.8811,0.0,-0.8857,-0.9061,-0.9762,0.0,0.0,-0.9917,-1.0415,-1.0364,-0.9061,-0.9413,-0.9562,-0.891,-0.8804,-0.8804,-0.8804,-0.8804,-0.8804,-0.8804,-0.8804,-0.8931,-0.915,-0.9163,-0.9429,-1.006,-1.0818,0.0,0.0,0.0,0.0,0.0,0.0,0.0,0.0,0.0,0.0,0.0,0.0,0.0,0.0,0.0,0.0,0.0,0.0,0.0,0.0,0.0,0.0,0.0,0.0,0.0,0.0,0.0,0.0,0.0,0.0,0.0,0.0,-0.3229,-0.4134,-0.3708,-0.1883,-0.101,-0.1604,-0.3493,-0.468,-0.48,-0.4848,-0.431,-0.3186,-0.4587,-0.5356,-0.5378,-0.5662,-0.5714,-0.5671,-0.5861,-0.5949,-0.5949,-0.5949,-0.5864,-0.5705,-0.5454,-0.5203,-0.4965,-0.4874,-0.4806,-0.4755,-0.4755,-0.4792,-0.483,-0.5063,-0.514,-0.5399,-0.6473,-0.7526,-0.8513,-0.8916,-0.8958,-0.8844,-0.9031,-0.8951,-0.8804,-0.8804,-0.8804,-0.8804,-0.8804,-0.8804,-0.8804,-0.8804,-0.8804,-0.8804,-0.8804,-0.8804,-0.9008,-0.9666,-0.9465,-0.9309,-0.971,-0.9614,-0.9361,-0.8857,-0.9008,-0.9136,-0.9065,-0.903,-0.9165,-0.9352,-0.9372,-0.9372,-0.9372,-0.9372,-0.9419,-0.9519,-0.9526,-0.9713,-1.0107,-1.0409,-1.0696,0.0,0.0,0.0,0.0,0.0,0.0,0.0,0.0,0.0,0.0,0.0,0.0,0.0,0.0,0.0,0.0,0.0,0.0,0.0,0.0,0.0,0.0,0.0,0.0,0.0,0.0,0.0,0.0,0.0,0.0,0.0,-0.1783,-0.2998,-0.2998,-0.1157,0.0,0.0,-0.1926,-0.3317,-0.3947,-0.4719,-0.4217,-0.2414,-0.3201,-0.39,-0.4534,-0.5396,-0.5806,-0.5827,-0.5966,-0.6057,-0.6108,-0.6108,-0.6051,-0.5942,-0.5742,-0.5538,-0.5332,-0.5087,-0.4962,-0.4911,-0.486,-0.4904,-0.4989,-0.4989,-0.5189,-0.5627,-0.6592,-0.7816,-0.8971,-0.901,-0.9025,-0.8971,-0.9065,-0.8958,-0.8804,-0.8804,-0.8804,-0.8804,-0.8804,-0.8804,-0.8831,-0.8931,-0.8951,-0.8951,-0.8951,-0.8878,-0.8962,-0.9361,-0.9106,-0.9095,-0.9911,-0.9676,-0.9407,-0.9505,-0.9519,-0.9494,-0.9365,-0.9385,-0.9472,-0.9666,-0.9686,-0.9686,-0.9686,-0.9686,-0.9726,-0.9826,-0.9826,-1.0079,-1.0676,-1.0676,-1.1034,-1.1744,0.0,0.0,0.0,0.0,0.0,0.0,0.0,0.0,0.0,0.0,0.0,0.0,0.0,0.0,0.0,0.0,0.0,0.0,0.0,0.0,0.0,0.0,0.0,-0.357,-0.1446,0.0,0.0,0.0,0.0,0.0,0.0,0.0,0.0,0.0,0.0,0.0,0.0,-0.0645,-0.2065,-0.4175,-0.4378,-0.2622,-0.085,-0.0872,-0.2616,-0.4439,-0.568,-0.6257,-0.6098,-0.6105,-0.6247,-0.6247,-0.6321,-0.6217,-0.5918,-0.5793,-0.5745,-0.5308,-0.5053,-0.4914,-0.4765,-0.4894,-0.5138,-0.5138,-0.5799,-0.6653,-0.6859,-0.7948,-0.915,-0.8931,-0.9038,-0.9137,-0.8911,-0.8831,-0.8831,-0.8811,-0.8811,-0.8824,-0.8824,-0.8824,-0.8898,-0.9137,-0.9196,-0.9196,-0.9196,-0.9025,-0.8831,-0.8811,-0.8811,-0.9224,-1.0316,-1.0477,0.0,-1.0805,-1.085,-1.058,-0.9809,-0.9699,-0.9699,-0.9706,-0.9713,-0.9713,-0.9713,-0.9713,-0.9833,-1.012,-1.0134,-1.0676,-1.1764,-1.1834,-1.2205,-1.307,0.0,0.0,0.0,0.0,0.0,0.0,0.0,0.0,0.0,0.0,0.0,0.0,0.0,0.0,0.0,0.0,0.0,0.0,0.0,0.0,0.0,0.0,-0.3663,-0.1325,-0.0432,0.0,0.0,0.0,0.0,0.0,0.0,0.0,0.0,0.0,0.0,0.0,0.0,-0.0212,-0.0564,-0.1166,-0.1255,-0.0733,-0.0223,-0.0224,-0.0746,-0.2564,-0.4247,-0.5654,-0.5818,-0.5888,-0.5925,-0.5925,-0.5867,-0.5769,-0.5684,-0.5583,-0.5471,-0.5348,-0.5274,-0.5233,-0.5192,-0.523,-0.5298,-0.5298,-0.6148,-0.7245,-0.7305,-0.8351,-0.9586,-0.9719,-0.9666,-0.9546,-0.9466,-0.9446,-0.9345,-0.8918,-0.8965,-0.9064,-0.9064,-0.9064,-0.9198,-0.9499,-0.9559,-0.9559,-0.9559,-0.9499,-0.9305,-0.8878,-0.94,-0.9785,-0.9604,0.0,0.0,-1.0006,-1.002,-1.0045,-0.9973,-1.0,-1.0087,-1.0301,-1.0383,-1.0383,0.0,-1.0383,-1.0416,-1.0434,-1.0441,-1.0899,-1.1764,-1.2389,-1.3061,0.0,0.0,0.0,0.0,0.0,0.0,0.0,0.0,0.0,0.0,0.0,0.0,0.0,0.0,0.0,0.0,0.0,0.0,0.0,0.0,0.0,0.0,-0.4306,-0.3888,-0.0463,0.0,0.0,0.0,0.0,0.0,0.0,0.0,0.0,0.0,0.0,0.0,0.0,0.0,0.0,0.0,0.0,0.0,0.0,0.0,0.0,-0.0,-0.1041,-0.2878,-0.5411,-0.5615,-0.5795,0.0,-0.5954,-0.5902,-0.5694,-0.5627,-0.5614,0.0,0.0,0.0,0.0,0.0,-0.5226,-0.5186,-0.5243,-0.6236,-0.7379,-0.7035,-0.8271,-0.9814,-0.949,-0.959,-0.984,-0.9719,-0.9686,-0.9606,-0.9265,-0.9299,-0.9426,-0.9426,-0.9426,-0.9506,-0.98,-0.9866,-0.9866,-0.9866,0.0,0.0,-0.9728,-0.9909,-1.0185,-1.0598,-1.0487,-1.0535,0.0,-1.0811,-1.0523,-1.0342,-1.0595,-1.0911,-1.1094,-1.1421,0.0,0.0,0.0,-1.1608,-1.1608,0.0,0.0,0.0,0.0,-1.3952,0.0,0.0,0.0,0.0,-1.5381,-1.5283,0.0,0.0,0.0,0.0,0.0,0.0,0.0,0.0,0.0,0.0,0.0,0.0,0.0,0.0,0.0,0.0,-0.4977,-0.4634,-0.1159,-0.0288,0.0,0.0,0.0,0.0,0.0,0.0,0.0,0.0,0.0,0.0,0.0,0.0,0.0,0.0,0.0,0.0,0.0,0.0,0.0,0.0,0.0,-0.1811,-0.5153,-0.5507,-0.5798,-0.5974,-0.5892,-0.5798,-0.5519,-0.552,-0.5527,-0.5638,-0.5487,-0.5428,-0.5345,-0.5206,-0.5077,0.0,0.0,0.0,0.0,-0.6479,-0.797,-0.9803,-0.8819,-0.9276,-1.0107,-0.9813,-0.976,-0.9773,-0.974,-0.9733,-0.974,-0.9773,-0.976,-0.9813,-1.01,-1.0167,-1.0167,-1.0167,-1.0692,-1.1123,-1.1007,-1.043,-1.0625,-1.2373,-1.1968,0.0,-1.2846,-1.2328,-1.1531,-1.08,0.0,0.0,-1.1648,-1.2389,-1.2826,-1.2765,-1.2826,-1.2981,-1.3124,-1.3873,-1.3934,-1.3308,-1.4506,-1.4894,-1.4469,-1.5241,-1.5794,-1.6133,-1.5684,-1.5488,0.0,0.0,0.0,0.0,0.0,0.0,0.0,0.0,0.0,0.0,0.0,0.0,0.0,0.0,0.0,-0.5036,-0.5693,-0.5899,-0.5001,-0.2083,0.0,0.0,0.0,0.0,0.0,0.0,0.0,0.0,0.0,0.0,0.0,0.0,0.0,0.0,0.0,0.0,0.0,0.0,0.0,0.0,0.0,0.0,-0.3624,-0.4893,-0.557,-0.5686,-0.4092,-0.3604,-0.4007,-0.3985,-0.4546,-0.5473,-0.5442,-0.5428,-0.5425,-0.5328,-0.5301,-0.5281,-0.5308,-0.6005,-0.6806,-0.6651,-0.7896,-0.9439,-0.9196,-0.9794,0.0,-1.0114,-1.0207,-1.0334,-1.0094,-1.0033,-1.0094,-1.0334,-1.0207,-1.0114,-1.0408,-1.0474,-1.0474,-1.0474,-1.1133,-1.1652,-1.1646,-1.1786,-1.2049,-1.253,-1.266,-1.2744,-1.3,-1.2328,-1.1772,-1.1593,-1.1108,-1.08,-1.08,-1.1593,-1.1779,-1.1115,-1.1655,-1.2641,-1.398,-1.4479,-1.4835,-1.5024,-1.5905,-1.6302,-1.6225,-1.6388,-1.649,-1.6592,-1.6143,-1.5937,0.0,0.0,0.0,0.0,0.0,0.0,0.0,0.0,0.0,0.0,0.0,-0.4735,-0.4884,0.0,-0.5401,-0.5549,-0.5999,-0.6266,-0.6335,-0.4598,-0.2451,-0.024,0.0,0.0,0.0,0.0,0.0,0.0,0.0,0.0,0.0,0.0,0.0,0.0,0.0,0.0,0.0,0.0,0.0,0.0,0.0,-0.1083,-0.317,-0.5008,-0.5238,-0.422,-0.4433,-0.4692,-0.4935,-0.4847,-0.5047,-0.5477,-0.5477,-0.543,-0.5418,-0.5274,-0.5294,-0.5418,-0.5274,-0.5871,-0.6719,-0.6719,-0.7897,-0.9274,-0.9274,-1.0007,-1.0748,-1.0595,-1.0768,-1.0929,-1.0635,-1.0555,-1.0555,-1.0561,-1.0555,-1.0555,-1.0561,-1.1044,-1.1397,-1.1468,-1.2153,-1.2829,-1.3265,-1.3706,-1.3831,-1.3449,-1.2825,-1.276,-1.3812,-1.2677,-1.2018,-1.2625,-1.2491,-1.2389,-1.2389,-1.3342,-1.3836,-1.3663,-1.405,-1.4602,-1.5459,-1.5668,-1.5911,-1.6119,-1.6741,-1.6953,-1.6665,-1.7158,-1.7266,-1.7051,-1.6826,-1.6602,0.0,0.0,0.0,0.0,0.0,0.0,0.0,0.0,-0.6054,-0.5022,-0.4921,-0.505,-0.5192,-0.5471,-0.5722,-0.5867,-0.6149,-0.6472,-0.661,-0.6668,-0.528,-0.1728,-0.0574,0.0,0.0,0.0,0.0,0.0,0.0,0.0,0.0,0.0,0.0,0.0,0.0,0.0,0.0,0.0,0.0,0.0,0.0,-0.1275,-0.3759,-0.5488,-0.5248,-0.3475,-0.4597,-0.5566,-0.6288,-0.6071,-0.582,-0.563,-0.563,-0.5555,-0.5426,-0.5274,-0.5298,-0.5393,-0.5294,-0.5774,-0.6519,-0.6751,-0.789,-0.9219,-0.9421,-1.0227,-1.1076,-1.1076,-1.1243,-1.139,-1.1209,-1.1122,-1.1035,-1.0855,-1.0949,-1.1015,-1.0782,-1.1603,-1.2355,-1.2508,-1.326,-1.4216,-1.4917,-1.5441,-1.5477,-1.468,-1.3525,-1.3368,-1.5014,-1.363,-1.2877,-1.3865,-1.4135,-1.4257,-1.4439,-1.5237,-1.6057,-1.6763,-1.6577,-1.6606,-1.6908,-1.6904,-1.6894,-1.6973,-1.7324,-1.7334,-1.6982,-1.7676,-1.7832,-1.75,-1.75,-1.7275,-0.7402,-0.7931,-0.5846,-0.3721,-0.3928,-0.4755,0.0,0.0,-0.5287,-0.5319,-0.5367,-0.5359,-0.5511,-0.5783,-0.603,-0.6186,-0.6458,-0.6658,-0.6675,-0.6733,-0.6566,-0.6114,-0.2448,0.0,0.0,0.0,0.0,0.0,0.0,0.0,0.0,0.0,0.0,0.0,0.0,0.0,0.0,0.0,0.0,0.0,0.0,-0.211,-0.5925,-0.6152,-0.6159,-0.5712,-0.221,-0.2868,-0.6279,-0.5895,-0.5738,-0.5779,-0.5779,-0.5769,-0.5735,-0.5593,-0.5549,-0.5579,-0.5688,-0.5724,-0.5855,-0.6892,-0.792,-0.8831,-0.9737,-1.066,-1.1376,-1.1376,-1.1403,-1.1476,-1.171,-1.1577,-1.1436,-1.167,-1.1543,-1.1369,-1.1336,-1.2094,-1.2855,-1.2855,-1.4155,-1.5322,-1.5451,-1.6027,-1.6427,-1.5943,-1.6071,-1.6214,-1.6452,-1.5679,-1.514,-1.5249,-1.4698,-1.4608,-1.5314,-1.4845,-1.5308,-1.721,-1.6262,-1.6318,-1.7765,-1.751,-1.749,-1.7861,-1.791,-1.792,-1.7861,-1.7959,-1.7988,-1.7939,-1.7939,-1.7715,-0.9224,-0.8864,-0.6996,0.0,-0.6579,-0.6786,-0.6287,-0.5989,-0.5952,-0.6325,-0.6439,-0.6561,-0.6666,-0.6974,-0.6998,0.0,-0.6637,-0.6834,-0.6834,-0.6806,-0.682,-0.6658,-0.5004,-0.2798,-0.0248,0.0,0.0,0.0,0.0,0.0,0.0,0.0,0.0,0.0,0.0,0.0,0.0,0.0,0.0,0.0,0.0,-0.0906,-0.2681,-0.5192,-0.4977,-0.2591,-0.2013,-0.2828,-0.4543,-0.562,-0.6023,-0.5942,-0.6034,-0.6118,-0.6152,-0.583,-0.5711,-0.5722,-0.5779,-0.6115,-0.6764,-0.7751,-0.8694,-0.9678,-1.0591,-1.1266,-1.1683,-1.1683,-1.1804,-1.1924,-1.1877,-1.1777,-1.167,-1.1623,-1.165,-1.1886,-1.2505,-1.347,-1.4449,-1.5069,-1.6165,-1.6902,-1.6664,-1.7108,-1.7324,-1.6894,-1.6367,-1.6287,-1.7006,-1.6141,-1.5652,-1.6128,-1.5936,-1.5965,-1.6542,-1.629,-1.66,-1.7648,-1.7226,-1.7274,-1.7998,-1.7842,-1.7832,-1.8008,-1.8008,-1.8008,-1.8008,-1.8008,-1.8008,-1.8008,-1.8008,-1.791,-1.0584,-0.9699,0.0,-0.8429,-0.8583,-0.8489,-0.7798,-0.7441,-0.7362,-0.7708,-0.7766,-0.7686,-0.7539,-0.7905,-0.7985,-0.7096,-0.7138,-0.735,-0.7346,-0.7059,-0.6814,-0.6595,-0.6495,-0.522,-0.2049,-0.0653,0.0,0.0,0.0,0.0,0.0,0.0,0.0,0.0,0.0,0.0,0.0,0.0,0.0,-0.0,-0.1186,-0.1752,-0.1801,-0.3671,-0.291,-0.0157,-0.282,-0.4048,-0.4248,-0.5733,-0.6285,-0.6227,-0.6339,-0.6444,-0.6495,-0.6169,-0.602,-0.5986,-0.5986,-0.6614,-0.7586,-0.8524,-0.9504,-1.0569,-1.1501,-1.2004,-1.2238,-1.2238,-1.2392,-1.2505,-1.2291,-1.2238,-1.2184,-1.1971,-1.2084,-1.2524,-1.3663,-1.4704,-1.5821,-1.6928,-1.7783,-1.8271,-1.7959,-1.8057,-1.8076,-1.7773,-1.6873,-1.6506,-1.7444,-1.6788,-1.6393,-1.7015,-1.709,-1.7217,-1.7529,-1.7559,-1.7686,-1.7988,-1.8008,-1.8008,-1.8008,-1.8008,-1.8008,-1.8008,-1.8008,-1.8008,-1.8008,-1.8008,-1.8008,-1.8008,-1.8008,-1.8008,-1.1837,0.0,-1.0163,-0.8771,-0.8751,-0.9145,-0.9511,-0.9541,-0.9463,-0.9617,-0.916,-0.85,-0.7638,-0.8323,-0.8832,-0.826,-0.8288,-0.8442,-0.8607,-0.7545,-0.6651,-0.6498,-0.623,-0.6043,0.0,-0.2399,0.0,0.0,0.0,0.0,0.0,0.0,0.0,0.0,0.0,0.0,0.0,0.0,0.0,-0.009,-0.4142,-0.6102,-0.5981,-0.2002,-0.0157,-0.0236,-0.4411,-0.6317,-0.6592,-0.6585,-0.6654,-0.6681,-0.6685,-0.6688,-0.6692,-0.6678,-0.658,-0.6451,-0.6451,-0.7058,-0.7918,-0.8974,-1.0111,-1.139,-1.2394,-1.2926,-1.3173,-1.3173,-1.318,-1.318,-1.3173,-1.3173,-1.3166,-1.316,-1.316,-1.3475,-1.4525,-1.551,-1.6497,-1.7665,-1.8644,-1.9248,-1.9228,-1.8896,-1.8613,-1.8603,-1.8173,-1.7969,-1.7988,-1.7978,-1.7901,-1.7969,-1.7969,-1.7978,-1.7988,-1.7988,-1.7998,-1.8008,-1.8008,-1.8008,-1.8008,-1.8008,-1.8008,-1.8008,-1.8008,-1.8008,-1.8008,-1.8008,-1.8008,-1.8008,-1.8008,-1.8008,-1.4324,0.0,-1.3672,-1.2917,-1.2143,-1.1694,-1.1797,-1.0718,-0.9755,-1.0124,-0.9807,-0.9384,-0.8885,-0.9189,-0.928,-0.8548,-0.889,-0.9082,-0.8421,-0.8036,-0.7446,-0.6294,-0.6003,0.0,0.0,0.0,0.0,-0.008,0.0,0.0,0.0,0.0,0.0,0.0,0.0,0.0,0.0,0.0,-0.1619,-0.4692,-0.6147,-0.6645,-0.6185,-0.1967,-0.0894,-0.2485,-0.3916,-0.5366,-0.6737,-0.6723,-0.6661,-0.6712,-0.6814,-0.6851,-0.6865,-0.6956,-0.6959,-0.697,-0.7581,-0.843,-0.9409,-1.0526,-1.1618,-1.2576,-1.2975,-1.326,-1.3454,-1.3267,-1.3494,-1.3748,-1.3547,-1.35,-1.35,-1.35,-1.3884,-1.4628,-1.592,-1.6987,-1.7993,-1.9014,-1.9474,-1.9609,-1.9336,-1.916,-1.9072,-1.9072,-1.8467,-1.8008,-1.8008,-1.8008,-1.8008,-1.8008,-1.8008,-1.8008,-1.8008,-1.8008,-1.8008,-1.8008,-1.8008,-1.8008,-1.8008,-1.8008,-1.8008,-1.8008,-1.8596,-1.8844,-1.8844,-1.9431,-1.9759,-1.9759,-1.9759,-1.9759,-1.7088,-1.6842,-1.6796,-1.6138,-1.5324,-1.4562,-1.4332,-1.2885,-1.1571,-1.1494,-1.1149,-1.0646,-0.978,-0.9943,-0.9977,-0.9421,-0.958,-0.9481,-0.8756,-0.8268,-0.7556,-0.636,-0.6006,0.0,0.0,0.0,0.0,-0.2512,-0.1689,-0.0953,-0.0087,0.0,0.0,0.0,0.0,0.0,0.0,-0.1709,-0.4041,-0.7078,-0.7041,-0.6851,-0.6522,-0.3551,-0.272,-0.3609,-0.4378,-0.5524,-0.6888,-0.6787,-0.681,-0.6871,-0.7027,-0.7085,-0.7105,-0.7251,-0.7569,-0.8042,-0.8404,-0.916,-1.0213,-1.1364,-1.2462,-1.3387,-1.3494,-1.3728,-1.3941,-1.3861,-1.4108,-1.4355,-1.4162,-1.4115,-1.4115,-1.4115,-1.4849,-1.5878,-1.7147,-1.8223,-1.9178,-2.014,-2.0254,-2.0059,-1.9795,-1.9619,-1.9463,-1.9307,-1.8818,-1.8408,-1.8252,-1.8105,-1.8008,-1.8008,-1.8008,-1.8008,-1.8008,-1.8144,-1.8232,-1.8232,-1.8379,-1.8467,-1.8467,-1.8467,-1.8467,-1.8467,-1.9172,-1.954,-1.954,-2.0227,-2.059,-2.059,-2.059,-2.059,-2.002,-1.9794,-1.9435,-1.8303,-1.7917,-1.7573,-1.6807,-1.5782,-1.4576,-1.3438,-1.2993,-1.2187,0.0,0.0,-1.1056,-1.0835,-1.0257,-0.9735,-0.9596,-0.8362,-0.7219,0.0,0.0,0.0,0.0,0.0,0.0,-0.6708,0.0,-0.2775,-0.052,-0.0266,-0.0179,-0.018,-0.018,-0.018,-0.018,-0.4692,-0.6992,-0.7097,-0.6887,-0.6888,-0.7101,-0.6607,-0.5361,-0.3857,-0.5767,-0.6785,-0.7132,-0.6946,-0.7017,-0.7156,-0.7312,-0.737,-0.739,-0.7543,-0.8426,-0.9443,-0.9005,-0.9493,-1.0554,-1.1572,-1.2657,-1.3768,-1.4048,-1.4335,-1.4623,-1.489,-1.4983,-1.5003,-1.499,-1.4983,-1.5073,-1.5073,-1.6006,-1.7193,-1.8243,-1.9164,-1.9997,-2.1018,-2.0908,-2.0596,-2.0566,-2.0225,-1.9814,-1.9414,-1.9336,-1.915,-1.8691,-1.8291,-1.8037,-1.8008,-1.8027,-1.8037,-1.8008,-1.8418,-1.8662,-1.8562,-1.9023,-1.9248,-1.9248,-1.9321,-1.9321,-1.9321,-1.9815,-2.006,-2.0039,-2.0522,-2.0741,-2.0719,-2.0719,-2.0719,-2.086,-2.1325,-2.1743,-2.0369,-1.9429,-1.8313,-1.6519,-1.5026,-1.3709,-1.2624,-1.2434,-1.2254,0.0,0.0,0.0,-1.1754,-1.1526,0.0,-1.0793,-0.9896,0.0,-0.7899,0.0,-0.639,-0.6464,-0.6678,0.0,0.0,-0.6477,-0.5954,-0.5333,-0.3617,-0.2722,-0.2683,-0.2681,-0.2681,-0.2681,-0.3849,-0.5364,-0.7129,-0.7031,-0.7034,-0.6973,-0.688,-0.6605,-0.6102,-0.6704,-0.7037,-0.7092,-0.7088,-0.7105,-0.7156,-0.7312,-0.737,-0.739,-0.7543,-0.8426,-0.9591,-1.0362,-1.1389,-1.2638,-1.3818,-1.4388,-1.4643,-1.4716,-1.4943,-1.5144,-1.5003,-1.5277,-1.5558,-1.5344,-1.5284,-1.5552,-1.6425,-1.7297,-1.8321,-1.9519,-2.0569,-2.137,-2.1637,-2.1367,-2.0957,-2.0625,-2.0469,-2.0361,-2.0254,-1.9961,-1.9482,-1.873,-1.8545,-1.8359,-1.8047,-1.8291,-1.835,-1.8037,-1.8691,-1.8984,-1.8652,-1.874,-1.8799,-1.8799,-1.9484,-1.9893,-1.9893,-2.1677,-2.2359,-2.1989,-2.2787,-2.291,-2.2433,-2.2433,-2.2433,-2.2898,-2.358,-2.4073,-2.2165,-2.0962,-1.9617,-1.7453,-1.5899,-1.4662,-1.388,-1.3653,0.0,0.0,0.0,0.0,0.0,0.0,0.0,-1.097,-1.0589,-1.0068,0.0,-0.818,0.0,-0.759,-0.7175,-0.7021,0.0,-0.7231,-0.7309,-0.7193,-0.5935,-0.5118,-0.5104,-0.5099,-0.5099,-0.5099,-0.5097,-0.5816,-0.7084,-0.7074,-0.7024,-0.7021,-0.6967,-0.6964,-0.7024,0.0,-0.7007,-0.7139,-0.7139,-0.718,-0.7258,-0.7411,-0.7877,-0.8509,-0.8585,-0.9871,-1.1556,-1.2224,-1.3263,-1.445,-1.4863,-1.4963,-1.499,-1.5117,-1.5264,-1.5391,-1.5351,-1.5578,-1.5792,-1.5625,-1.5951,-1.6586,-1.7301,-1.858,-1.9843,-2.0548,-2.1476,-2.2109,-2.1924,-2.1533,-2.1152,-2.0898,-2.0693,-2.0566,-2.0566,-2.0361,-1.9961,-1.9277,-1.9033,-1.8828,-1.8594,-1.8779,-1.8828,-1.8594,-1.918,-1.9463,-1.9209,-1.9375,-1.9482,-1.9482,-2.039,-2.0955,-2.0955,-2.2846,-2.3649,-2.3352,-2.4008,-2.4192,-2.3879,-2.3879,-2.3879,-2.5179,-2.5674,-2.5946,-2.3548,-2.2241,-2.0967,-1.8733,-1.7256,-1.6279,-1.585,0.0,-1.5143,-1.4556,-1.3542,-1.2744,-1.273,0.0,-1.1143,-1.0979,-1.0893,-1.0806,-1.081,-0.9662,-0.8961,-0.9131,-0.8032,-0.7337,-0.7316,-0.7516,-0.7567,-0.7371,-0.7225,-0.7148,-0.7101,-0.7094,-0.7094,-0.7094,-0.7084,-0.7081,-0.7081,-0.7061,-0.7139,-0.7136,-0.7014,-0.7024,-0.7132,0.0,0.0,-0.717,-0.717,-0.7261,-0.7417,-0.7567,-0.8547,-0.9836,-0.993,-1.1648,-1.3878,-1.3878,-1.4752,-1.5745,-1.5244,-1.5077,-1.5124,-1.5378,-1.5451,-1.5504,-1.5758,-1.5832,-1.5825,-1.6015,-1.685,-1.7777,-1.8141,-1.9761,-2.1382,-2.148,-2.2119,-2.2471,-2.2051,-2.166,-2.1387,-2.1328,-2.0996,-2.0723,-2.0664,-2.0654,-2.0498,-2.0059,-1.9629,-1.9346,-1.9297,-1.9336,-1.9346,-1.9287,-1.9727,-1.9971,-1.9922,-2.0417,-2.07,-2.07,-2.1717,-2.2307,-2.2307,-2.372,-2.4405,-2.4261,-2.4715,-2.4845,-2.472,-2.4795,-2.482,-2.5401,-2.595,-2.5996,-2.3951,-2.232,-2.0651,-1.827,-1.6927,0.0,0.0,-1.6165,-1.6466,-1.5753,-1.4904,0.0,-1.4284,0.0,0.0,0.0,0.0,-1.1172,0.0,0.0,0.0,0.0,0.0,0.0,0.0,0.0,0.0,-0.7163,-0.7292,-0.7305,-0.7064,-0.7061,-0.7061,-0.7061,-0.7058,-0.7058,-0.7058,-0.7143,-0.7139,-0.7139,-0.7115,-0.7115,-0.7139,0.0,0.0,-0.7329,-0.7329,-0.7421,-0.7577,-0.7719,-0.8645,-0.9836,-0.993,-1.1648,-1.3878,-1.3878,-1.4752,-1.5812,-1.5712,-1.5678,-1.5691,-1.5738,-1.5752,-1.5765,-1.5812,-1.5832,-1.6015,-1.7131,-1.7505,-1.8234,-2.0215,-2.1025,-2.1569,-2.258,-2.2902,-2.291,-2.248,-2.2344,-2.2178,-2.1836,-2.1709,-2.1533,-2.1172,-2.1123,-2.0957,-2.0508,-2.0078,-1.9678,-1.9326,-1.96,-1.9668,-1.9316,-2.0,-2.0303,-1.9932,-2.0785,-2.126,-2.126,-2.2958,-2.3874,-2.3874,-2.5322,-2.566,-2.4698,-2.5231,-2.5008,-2.4155,-2.4607,-2.482,-2.5656,-2.6337,-2.648,-2.376,-2.2118,-2.0676,-1.8591,0.0,0.0,0.0,-1.7408,-1.7456,-1.7379,0.0,0.0,0.0,0.0,0.0,0.0,0.0,0.0,0.0,0.0,0.0,0.0,0.0,0.0,0.0,0.0,0.0,0.0,-0.721,-0.7217,-0.7143,-0.7139,-0.7139,-0.7139,-0.7139,-0.7139,-0.7139,-0.7139,-0.7139,-0.7139,-0.7139,-0.7139,-0.7146,0.0,0.0,0.0,-0.8176,-0.8217,-0.7811,-0.9303,-1.0249,-1.1028,-1.1706,-1.3199,-1.4854,-1.4854,-1.5337,-1.5832,-1.5832,-1.5832,-1.5832,-1.5832,-1.5832,-1.5832,-1.5832,-1.5832,-1.6109,-1.7412,-1.8141,-1.9139,-2.0845,-2.1756,-2.2403,-2.296,-2.3135,-2.3076,-2.2881,-2.2656,-2.2451,-2.2246,-2.2031,-2.1816,-2.1611,-2.1572,-2.1494,-2.1279,-2.0869,-2.043,-2.0,-2.0137,-2.0176,-1.9971,-2.0332,-2.069,-2.0994,-2.1414,-2.1935,-2.244,-2.3883,-2.467,-2.467,-2.5877,-2.6201,-2.5674,-2.5925,-2.5787,-2.5285,-2.5548,-2.5674,-2.5648,-2.6554,-2.6921,-2.3769,-2.2103,-2.0894,-1.9437,-1.826,0.0,0.0,-1.8859,-1.8588,-1.8696,0.0,-1.6071,0.0,-1.4478,0.0,0.0,0.0,0.0,0.0,0.0,0.0,0.0,0.0,0.0,0.0,0.0,0.0,0.0,-0.7139,-0.7139,-0.7139,-0.7139,-0.7139,-0.7139,-0.7139,-0.7139,-0.7139,-0.7139,-0.7139,-0.7139,-0.7139,-0.7156,-0.7197,0.0,0.0,0.0,-0.9431,-0.9506,-0.8914,-1.0915,-1.198,-1.2431,-1.3488,-1.4752,-1.5832,-1.5832,-1.5832,-1.5832,-1.5832,-1.5832,-1.5832,-1.5832,-1.5832,-1.5832,-1.5832,-1.6015,-1.648,-1.777,-1.8956,-2.0215,-2.1391,-2.2403,-2.3135,-2.3135,-2.3135,-2.3135,-2.3135,-2.2871,-2.2646,-2.2646,-2.2373,-2.2129,-2.2031,-2.2021,-2.1992,-2.1894,-2.1582,-2.124,-2.0889,-2.0684,-2.0566,-2.0566,-2.0789,-2.1221,-2.1952,-2.2403,-2.2999,-2.3818,-2.4779,-2.53,-2.53,-2.6094,-2.6471,-2.6276,-2.6471,-2.6402,-2.6276,-2.6471,-2.6533,-2.4988,-2.6284,-2.7066,-2.4507,-2.2643,-2.1297,-2.0719,0.0,0.0,-1.9759,-2.025,-2.0168,-1.8915,-1.7709,-1.702,-1.7324,-1.5273,-1.409,0.0,0.0,0.0,0.0,0.0,0.0,0.0,0.0,0.0,0.0,0.0,0.0,0.0,-0.7139,-0.7139,-0.7139,-0.7139,-0.7139,-0.7139,-0.7139,-0.7139,-0.7139,-0.7139,-0.7139,-0.7139,-0.7139,-0.7217,-0.744,0.0,0.0,0.0,-1.1,-1.1522,-1.1526,-1.1818,-1.2603,-1.368,-1.3872,-1.4752,-1.5832,-1.5832,-1.5832,-1.5832,-1.5832,-1.5832,-1.5832,-1.5832,-1.5832,-1.5832,-1.5832,-1.6669,-1.7777,-1.9039,-2.0215,-2.148,-2.2677,-2.3047,-2.3135,-2.3135,-2.3135,-2.3135,-2.3135,-2.3105,-2.3076,-2.3076,-2.3047,-2.2891,-2.251,-2.2451,-2.2314,-2.1934,-2.1846,-2.1807,-2.1768,-2.1045,-2.0566,-2.0566,-2.1375,-2.1886,-2.2027,-2.3745,-2.4791,-2.4862,-2.5804,-2.6383,-2.6383,-2.6452,-2.6201,-2.5674,-2.6201,-2.6189,-2.5686,-2.6214,-2.6533,-2.4125,-2.5532,-2.6706,-2.3739,-2.1983,-2.0851,-2.0312,0.0,0.0,-1.9772,-2.0351,-2.0497,-1.9515,-1.8601,-1.8054,-1.8251,-1.6438,-1.5359,-1.6475,0.0,0.0,0.0,0.0,0.0,0.0,0.0,0.0,0.0,0.0,0.0,0.0,0.0,-0.8189,-0.8189,-0.7492,-0.7139,-0.7139,-0.7139,-0.7139,-0.7139,-0.7139,-0.7139,-0.7143,-0.7238,-0.7757,0.0,0.0,0.0,0.0,-1.2421,-1.2539,-1.2047,-1.3596,-1.4076,-1.3974,-1.4752,-1.5337,-1.5832,-1.5832,-1.5832,-1.5832,-1.5832,-1.6292,-1.6943,-1.6943,-1.6386,-1.592,-1.6763,-1.7318,-1.7963,-1.9222,-2.0944,-2.2492,-2.296,-2.3135,-2.3135,-2.3135,-2.3135,-2.3135,-2.3135,-2.3135,-2.3135,-2.3135,-2.3135,-2.3086,-2.292,-2.2891,-2.2832,-2.2656,-2.2422,-2.2266,-2.2266,-2.1484,-2.0967,-2.0967,-2.1093,-2.1669,-2.285,-2.3672,-2.4624,-2.5873,-2.6314,-2.6533,-2.6533,-2.6533,-2.6352,-2.6113,-2.6352,-2.6408,-2.6126,-2.642,-2.6533,-2.3455,-2.4709,-2.5658,-2.2803,-2.1399,-2.0513,0.0,0.0,0.0,-2.0186,-2.0447,-2.045,-2.0169,-1.9359,-1.8768,-1.8992,-1.7384,-1.6388,-1.7226,0.0,0.0,0.0,0.0,0.0,0.0,0.0,0.0,0.0,0.0,0.0,0.0,0.0,-0.9753,-0.9405,-0.8623,-0.8093,-0.8093,-0.8093,-0.7921,-0.7665,-0.7665,-0.7665,-0.7669,-0.7789,-0.8607,0.0,0.0,0.0,0.0,-1.3903,-1.3884,-1.3204,-1.5051,-1.5242,-1.4555,-1.5439,-1.5832,-1.5832,-1.5832,-1.5832,-1.5832,-1.5832,-1.6669,-1.7785,-1.8141,-1.7584,-1.7117,-1.7956,-1.8503,-1.9039,-2.0223,-2.1863,-2.3135,-2.3135,-2.3135,-2.3135,-2.3135,-2.3135,-2.3135,-2.3135,-2.3135,-2.3135,-2.3135,-2.3135,-2.3135,-2.3135,-2.3135,-2.3135,-2.3135,-2.2881,-2.2705,-2.2705,-2.2051,-2.1504,-2.126,-2.1243,-2.189,-2.3379,-2.3818,-2.4696,-2.6452,-2.6533,-2.6533,-2.6533,-2.6533,-2.6533,-2.6533,-2.6533,-2.6533,-2.6533,-2.6533,-2.6533,-2.3012,-2.3723,-2.3906,-2.207,-2.1091,-2.0475,0.0,0.0,-1.9573,-2.1312,-2.0809,-2.017,-2.069,-1.9658,-1.8939,-1.9695,-1.795,-1.6754,-1.7468,0.0,0.0,0.0,0.0,0.0,0.0,0.0,0.0,0.0,0.0,0.0,0.0,0.0,-1.1724,-1.0611,-1.0611,-1.0524,-1.0524,-1.0524,-1.0009,-0.889,-0.889,-0.889,-0.889,-0.889,0.0,0.0,0.0,0.0,0.0,-1.5242,-1.5737,-1.573,-1.5825,-1.5825,-1.5825,-1.5832,-1.5832,-1.5832,-1.5832,-1.5832,-1.5832,-1.5832,-1.6669,-1.7963,-1.9131,-1.9488,-1.9497,-1.9497,-2.0305,-2.1569,-2.2775,-2.3047,-2.3135,-2.3135,-2.3135,-2.3135,-2.3135,-2.3135,-2.3135,-2.3135,-2.3135,-2.3135,-2.3135,-2.3135,-2.3135,-2.3135,-2.3135,-2.3135,-2.3135,-2.3135,-2.3135,-2.3135,-2.2754,-2.2158,-2.1309,-2.2124,-2.2905,-2.3475,-2.4409,-2.5441,-2.6452,-2.6533,-2.6533,-2.6533,-2.6533,-2.6533,-2.6533,-2.6533,-2.6533,-2.6533,-2.6533,-2.6533,-2.267,-2.3031,-2.3178,-2.1709,-2.068,-2.0023,-1.9809,0.0,-1.9239,-1.967,-1.9904,-1.9895,-1.963,-1.9496,-1.9416,-1.9271,-1.8119,-1.7192,0.0,0.0,0.0,0.0,0.0,0.0,0.0,0.0,0.0,0.0,0.0,0.0,0.0,0.0,0.0,-1.1821,-1.1042,-1.0611,-1.0611,-1.0611,-1.0438,-1.0096,-1.0096,-1.0096,-1.0106,0.0,0.0,0.0,0.0,0.0,0.0,-1.5635,-1.5832,-1.5832,-1.5832,-1.5832,-1.5832,-1.5832,-1.5832,-1.5832,-1.5832,-1.5832,-1.592,-1.685,-1.7956,-1.9131,-2.0395,-2.0124,-1.967,-2.0486,-2.1025,-2.1569,-2.2775,-2.3135,-2.3135,-2.3135,-2.3135,-2.3135,-2.3135,-2.3135,-2.3135,-2.3135,-2.3135,-2.3135,-2.3135,-2.3135,-2.3135,-2.3135,-2.3135,-2.3135,-2.3135,-2.3135,-2.3135,-2.3135,-2.3018,-2.2715,-2.2158,-2.2757,-2.3463,-2.3988,-2.4993,-2.5804,-2.6477,-2.6533,-2.6533,-2.6533,-2.6533,-2.6533,-2.6533,-2.6533,-2.6533,-2.6533,-2.6533,-2.6533,-2.272,-2.2373,-2.1909,-2.1131,-2.0353,-1.9691,0.0,0.0,-1.8809,-1.9223,-1.9293,-1.9322,-1.9349,-1.9585,-1.9698,-1.9371,-1.8354,-1.7466,0.0,0.0,0.0,0.0,0.0,0.0,0.0,0.0,0.0,0.0,0.0,0.0,0.0,0.0,0.0,-1.3033,-1.2254,-1.1912,-1.1912,-1.1912,-1.1649,-1.1214,-1.1386,-1.1429,-1.1445,0.0,0.0,0.0,0.0,0.0,0.0,-1.5832,-1.5832,-1.5832,-1.5832,-1.5832,-1.5832,-1.6386,-1.648,-1.6574,-1.7023,-1.6936,-1.6756,-1.7948,-1.9222,-2.0395,-2.1578,-2.1489,-2.1033,-2.1756,-2.1943,-2.212,-2.2862,-2.3135,-2.3135,-2.3135,-2.3135,-2.3135,-2.3135,-2.3135,-2.3135,-2.3135,-2.3135,-2.3135,-2.3135,-2.3135,-2.3135,-2.3135,-2.3135,-2.3135,-2.3135,-2.3135,-2.3135,-2.3135,-2.3135,-2.3027,-2.2773,-2.2996,-2.3496,-2.4414,-2.4958,-2.5683,-2.6779,-2.6634,-2.6533,-2.6533,-2.6533,-2.6533,-2.6533,-2.6533,-2.6533,-2.6533,-2.6533,-2.6533,0.0,-2.1744,-2.0385,-2.0509,-2.0122,-1.9566,-1.9006,0.0,0.0,-1.9473,-1.8909,-1.8532,-1.9698,-1.9847,-1.9798,-1.9748,-1.8566,0.0,0.0,0.0,0.0,0.0,0.0,0.0,0.0,0.0,0.0,0.0,0.0,0.0,0.0,0.0,0.0,0.0,-1.4173,-1.4088,-1.4088,-1.4088,-1.3555,-1.2419,-1.2748,-1.2961,-1.3073,0.0,0.0,0.0,0.0,0.0,0.0,-1.592,-1.6015,-1.6103,-1.6103,-1.6103,-1.6197,-1.7404,-1.787,-1.7963,-1.9131,-1.8772,-1.8056,-1.9231,-2.0486,-2.1658,-2.2765,-2.3135,-2.3135,-2.3135,-2.3135,-2.3135,-2.3135,-2.3135,-2.3135,-2.3135,-2.3135,-2.3135,-2.3135,-2.3135,-2.3135,-2.3135,-2.3135,-2.3135,-2.3135,-2.3135,-2.3135,-2.3135,-2.3135,-2.3135,-2.3135,-2.3135,-2.3135,-2.3135,-2.3135,-2.3135,-2.3135,-2.2859,-2.3329,-2.4926,-2.4623,-2.5319,-2.721,-2.6791,-2.6571,-2.6533,-2.6533,-2.6533,-2.6533,-2.6533,-2.6533,-2.6533,-2.6533,-2.6533,-2.2851,0.0,-2.0828,-2.0872,-2.0281,-1.9566,0.0,-1.8496,0.0,0.0,0.0,0.0,0.0,-1.9257,-1.9673,-1.9271,-1.8595,0.0,0.0,0.0,0.0,0.0,0.0,0.0,0.0,0.0,0.0,0.0,0.0,0.0,0.0,0.0,0.0,0.0,-1.4489,-1.4088,-1.4088,-1.4088,-1.3997,-1.3646,-1.3802,-1.4354,0.0,0.0,0.0,0.0,0.0,0.0,0.0,-1.7225,-1.777,-1.8672,-1.8672,-1.8672,-1.8672,-1.8948,-1.9039,-1.9131,-1.9405,-1.9314,-1.9314,-2.0503,-2.1686,-2.2765,-2.3047,-2.3135,-2.3135,-2.3135,-2.3135,-2.3135,-2.3135,-2.3135,-2.3135,-2.3135,-2.3135,-2.3135,-2.3135,-2.3135,-2.3135,-2.3135,-2.3135,-2.3135,-2.3135,-2.3135,-2.3135,-2.3135,-2.3135,-2.3135,-2.3135,-2.3135,-2.3135,-2.3135,-2.3135,-2.3135,-2.3135,-2.3786,-2.4597,-2.5416,-2.615,-2.6824,-2.7318,-2.7155,-2.6892,-2.6533,-2.6533,-2.6533,-2.6533,-2.6533,-2.6533,-2.6533,-2.6533,-2.6533,-2.2643,-2.1907,-2.1244,-2.1055,-2.0465,-1.9788,-1.9066,-1.8496,0.0,0.0,0.0,0.0,0.0,0.0,0.0,0.0,0.0,0.0,0.0,0.0,0.0,0.0,0.0,0.0,0.0,0.0,0.0,0.0,0.0,0.0,0.0,0.0,0.0,0.0,0.0,-1.5068,-1.4088,-1.4088,-1.4334,-1.4817,-1.5184,-1.5918,0.0,0.0,0.0,0.0,0.0,0.0,-1.8503,-1.8503,-1.8956,-1.9497,-1.9497,-1.9497,-1.9588,-2.0124,-2.0305,-2.0395,-2.0953,-2.1132,-2.1132,-2.123,-2.2138,-2.3135,-2.3135,-2.3135,-2.3135,-2.3135,-2.3135,-2.3135,-2.3135,-2.3135,-2.3135,-2.3135,-2.3135,-2.3135,-2.3135,-2.3135,-2.3135,-2.3135,-2.3135,-2.3135,-2.3135,-2.3135,-2.3135,-2.3135,-2.3135,-2.3135,-2.3135,-2.3135,-2.3135,-2.3135,-2.3135,-2.3135,-2.3135,-2.3637,-2.4353,-2.5168,-2.6074,-2.6647,-2.6944,-2.7429,-2.7394,-2.6854,-2.6659,-2.6533,-2.6533,-2.6716,-2.6703,-2.6465,-2.626,-2.6024,-2.2371,-2.1899,-2.1491,-2.1086,-2.055,-1.9849,-1.8991,-1.8411,0.0,0.0,0.0,0.0,0.0,0.0,0.0,0.0,0.0,0.0,0.0,0.0,0.0,0.0,0.0,0.0,0.0,0.0,0.0,0.0,0.0,0.0,0.0,0.0,0.0,0.0,0.0,0.0,-1.4435,-1.4531,-1.5061,-1.5951,-1.6598,-1.729,-1.8162,0.0,0.0,0.0,0.0,0.0,-1.9761,-1.9761,-1.9852,-2.0042,-2.0042,-2.0042,-2.0133,-2.1212,-2.1569,-2.1747,-2.2775,-2.3135,-2.295,-2.1933,-2.2306,-2.3135,-2.3135,-2.3135,-2.3135,-2.3135,-2.3135,-2.3135,-2.3135,-2.3135,-2.3135,-2.3135,-2.3135,-2.3135,-2.3135,-2.3135,-2.3135,-2.3135,-2.3135,-2.3135,-2.3135,-2.3135,-2.3135,-2.3135,-2.3135,-2.3135,-2.3135,-2.3135,-2.3135,-2.3135,-2.3135,-2.3135,-2.3135,-2.3135,-2.3551,-2.4457,-2.5322,-2.6097,-2.6868,-2.7693,-2.7883,-2.7419,-2.6866,-2.6697,-2.6716,-2.7092,-2.6972,-2.637,-2.6082,-2.5479,-2.1907,-2.1658,-2.1491,-2.1086,-2.0058,-1.8954,-1.8366,-1.8194,0.0,0.0,0.0,0.0,0.0,0.0,0.0,0.0,0.0,0.0,0.0,0.0,0.0,0.0,0.0,0.0,0.0,0.0,0.0,0.0,0.0,0.0,0.0,0.0,0.0,0.0,0.0,0.0,0.0,-1.6469,-1.6854,-1.709,-1.7204,-1.812,-1.9778,-1.8929,0.0,0.0,0.0,0.0,-2.1025,-2.1025,-2.1667,-2.2589,-2.2589,-2.2589,-2.2589,-2.2775,-2.2862,-2.2862,-2.3047,-2.3135,-2.3047,-2.2862,-2.296,-2.3135,-2.3135,-2.3135,-2.3135,-2.3135,-2.3135,-2.3135,-2.3135,-2.3135,-2.3135,-2.3135,-2.3135,-2.3135,-2.3135,-2.3135,-2.3135,-2.3135,-2.3135,-2.3135,-2.3135,-2.3135,-2.3135,-2.3135,-2.3135,-2.3135,-2.3135,-2.3135,-2.3135,-2.3135,-2.3135,-2.3135,-2.3135,-2.3135,-2.3135,-2.3387,-2.5241,-2.7024,-2.8436,-2.8274,-2.8059,-2.7984,-2.7444,-2.7394,-2.7846,-2.7469,-2.685,-2.5937,-2.6268,-2.5464,-2.2169,-2.1628,-2.1244,-2.1055,-2.0333,-1.9368,-1.8327,-1.8126,0.0,0.0,0.0,0.0,0.0,0.0,0.0,0.0,0.0,0.0,0.0,0.0,0.0,0.0,0.0,0.0,0.0,0.0,0.0,0.0,0.0,0.0,0.0,0.0,0.0,0.0,0.0,0.0,0.0,-1.8411,-1.8389,-1.7847,-1.8334,-1.9182,-2.041,-2.0366,-2.078,0.0,0.0,-2.1572,-2.2306,-2.2306,-2.2589,-2.3135,-2.3135,-2.3135,-2.3135,-2.3135,-2.3135,-2.3135,-2.3135,-2.3135,-2.3135,-2.3135,-2.3135,-2.3135,-2.3135,-2.3135,-2.3135,-2.3135,-2.3135,-2.3135,-2.3135,-2.3135,-2.3135,-2.3135,-2.3135,-2.3135,-2.3135,-2.3135,-2.3135,-2.3135,-2.3135,-2.3135,-2.3135,-2.3135,-2.3135,-2.3135,-2.3135,-2.3135,-2.3135,-2.3135,-2.3135,-2.3135,-2.3135,-2.3135,-2.3135,-2.3135,-2.3637,-2.4893,-2.5639,-2.7057,-2.9313,-2.8561,-2.8247,-2.8549,-2.8009,-2.7846,-2.8109,-2.7594,-2.6928,-2.6131,-2.5563,-2.4613,-2.2298,-2.1584,-2.0959,-2.0862,-2.0299,-1.9543,-1.8705,-1.8316,0.0,0.0,0.0,0.0,0.0,0.0,0.0,0.0,0.0,0.0,0.0,0.0,0.0,0.0,0.0,0.0,0.0,0.0,0.0,0.0,0.0,0.0,0.0,0.0,0.0,0.0,0.0,0.0,0.0,-1.9502,-1.9354,-1.8678,-1.9473,-2.0113,-2.0742,-2.1426,-2.1787,-2.1904,-2.2227,-2.2607,-2.2988,-2.2988,-2.3047,-2.3135,-2.3135,-2.3135,-2.3135,-2.3135,-2.3135,-2.3135,-2.3135,-2.3135,-2.3135,-2.3135,-2.3135,-2.3135,-2.3135,-2.3135,-2.3135,-2.3135,-2.3135,-2.3135,-2.3135,-2.3135,-2.3135,-2.3135,-2.3135,-2.3135,-2.3135,-2.3135,-2.3135,-2.3135,-2.3135,-2.3135,-2.3135,-2.3135,-2.3135,-2.3135,-2.3135,-2.3135,-2.3135,-2.3135,-2.3135,-2.3135,-2.3135,-2.3135,-2.3135,-2.3135,-2.3973,-2.5964,-2.5694,-2.6623,-2.9263,-2.8548,-2.845,-2.9126,-2.8586,-2.836,-2.8499,-2.7666,-2.6966,-2.6305,-2.4952,-2.3886,-2.1849,-2.1337,-2.0894,-2.0449,-1.9317,-1.852,-1.9538,-1.8946,0.0,-1.9606,0.0,0.0,0.0,0.0,0.0,0.0,0.0,0.0,0.0,0.0,0.0,0.0,0.0,0.0,0.0,0.0,0.0,0.0,0.0,0.0,0.0,0.0,0.0,0.0,0.0,0.0,0.0,0.0,-1.9521,-1.9761,-2.0304,-2.0732,-2.1191,-2.125,-2.1504,-2.1885,-2.1924,-2.2168,-2.2559,-2.2559,-2.2783,-2.3135,-2.3135,-2.3135,-2.3135,-2.3135,-2.3135,-2.3135,-2.3135,-2.3135,-2.3135,-2.3135,-2.3135,-2.3135,-2.3135,-2.3135,-2.3135,-2.3135,-2.3135,-2.3135,-2.3135,-2.3135,-2.3135,-2.3135,-2.3135,-2.3135,-2.3135,-2.3135,-2.3135,-2.3135,-2.3135,-2.3135,-2.3135,-2.3135,-2.3135,-2.3135,-2.3135,-2.3135,-2.3135,-2.3135,-2.3135,-2.3135,-2.3135,-2.3135,-2.3135,-2.3135,-2.3637,-2.4882,-2.484,-2.5909,-2.8096,-2.8104,-2.8591,-2.9729,-2.9164,-2.9139,-2.9666,-2.8106,-2.6819,-2.5847,-2.5099,-2.3793,-2.1803,-2.1102,-2.0434,-1.9974,-1.8985,0.0,0.0,-1.8997,-1.8695,-1.8672,-1.8767,0.0,0.0,0.0,0.0,0.0,0.0,0.0,0.0,0.0,0.0,0.0,0.0,0.0,0.0,0.0,0.0,0.0,0.0,0.0,0.0,0.0,0.0,0.0,0.0,0.0,0.0,0.0,-1.9102,-1.9531,-1.9951,-2.0391,-2.082,-2.082,-2.1064,-2.1484,-2.1484,-2.1728,-2.2129,-2.2129,-2.2774,-2.3801,-2.3801,-2.3483,-2.3105,-2.2852,-2.292,-2.3135,-2.3135,-2.3135,-2.3135,-2.3135,-2.3135,-2.3135,-2.3135,-2.3135,-2.3135,-2.3135,-2.3135,-2.3135,-2.3135,-2.3135,-2.3135,-2.3135,-2.3135,-2.3135,-2.3135,-2.3135,-2.3135,-2.3135,-2.3135,-2.3135,-2.3135,-2.3135,-2.3135,-2.3135,-2.3135,-2.3135,-2.3135,-2.3135,-2.3135,-2.3135,-2.3135,-2.3135,-2.3135,-2.3135,-2.3299,-2.3714,-2.4372,-2.5452,-2.7046,-2.7128,-2.7302,-2.7718,-2.7519,-2.7519,-2.7718,-2.6434,-2.5513,-2.511,-2.4214,-2.3381,-2.1816,-2.0943,-2.0215,-1.9904,0.0,0.0,-1.8988,-1.9088,-1.9003,-1.9057,-1.8598,0.0,0.0,0.0,0.0,0.0,0.0,0.0,0.0,0.0,0.0,0.0,0.0,0.0,0.0,0.0,0.0,0.0,0.0,0.0,0.0,0.0,0.0,0.0,0.0,0.0,0.0,0.0,-1.9461,-1.991,-2.0206,-2.0454,-2.0811,-2.0941,-2.1245,-2.1649,-2.1489,-2.1879,-2.2614,-2.2301,-2.3022,-2.4373,-2.4048,-2.369,-2.3322,-2.3098,-2.3018,-2.2959,-2.3511,-2.3298,-2.2959,-2.3096,-2.3135,-2.3135,-2.3135,-2.3135,-2.3135,-2.3135,-2.3135,-2.3135,-2.3135,-2.3135,-2.3135,-2.3135,-2.3135,-2.3135,-2.3135,-2.3135,-2.3135,-2.3135,-2.3135,-2.3135,-2.3135,-2.3135,-2.3135,-2.3135,-2.3135,-2.3135,-2.3135,-2.3135,-2.3135,-2.3135,-2.3135,-2.3135,-2.3135,-2.3135,-2.3135,-2.3135,-2.379,-2.4798,-2.5891,-2.5975,-2.6141,-2.6472,-2.6483,-2.6483,-2.6483,-2.5378,-2.4787,-2.4787,-2.3637,-2.3135,-2.1874,-2.0911,-2.0221,0.0,0.0,0.0,-1.9407,-1.9389,-1.9472,-2.1224,0.0,0.0,0.0,0.0,0.0,0.0,0.0,0.0,0.0,0.0,0.0,0.0,0.0,0.0,0.0,0.0,0.0,0.0,0.0,0.0,0.0,0.0,0.0,0.0,0.0,0.0,0.0,0.0,-2.0826,-2.1174,-2.1174,-2.1196,-2.1209,-2.1732,-2.2284,-2.2666,-2.219,-2.2821,-2.4102,-2.3118,-2.3541,-2.4737,-2.3711,-2.3614,-2.4054,-2.4105,-2.3461,-2.2729,-2.4302,-2.3754,-2.2578,-2.2998,-2.3135,-2.3135,-2.3135,-2.3135,-2.3135,-2.3135,-2.3135,-2.3135,-2.3135,-2.3135,-2.3135,-2.3135,-2.3135,-2.3135,-2.3135,-2.3135,-2.3135,-2.3135,-2.3135,-2.3135,-2.3135,-2.3135,-2.3135,-2.3135,-2.3135,-2.3135,-2.3135,-2.3135,-2.3135,-2.3135,-2.3135,-2.3135,-2.3135,-2.3135,-2.3135,-2.3135,-2.3135,-2.3637,-2.4702,-2.4787,-2.5294,-2.6483,-2.6483,-2.6483,-2.6472,-2.5294,-2.4787,-2.4787,-2.3637,-2.3135,-2.1381,-2.0516,0.0,-1.9398,0.0,0.0,0.0,-1.8503,0.0,0.0,0.0,0.0,0.0,0.0,0.0,0.0,0.0,0.0,0.0,0.0,0.0,0.0,0.0,0.0,0.0,0.0,0.0,0.0,0.0,0.0,0.0,0.0,0.0,0.0,0.0,0.0,0.0,0.0,0.0,-2.1174,-2.1174,-2.1373,-2.1712,-2.1854,-2.2242,-2.2715,-2.2573,-2.2988,-2.3772,-2.4545,-2.471,-2.4401,-2.491,-2.4835,-2.4541,-2.4281,-2.3737,-2.3217,-2.393,-2.3436,-2.2578,-2.2998,-2.3135,-2.3135,-2.3135,-2.3135,-2.3135,-2.3135,-2.3135,-2.3135,-2.3135,-2.3135,-2.3135,-2.3135,-2.3135,-2.3135,-2.3135,-2.3135,-2.3135,-2.3135,-2.3135,-2.3135,-2.3135,-2.3135,-2.3135,-2.3135,-2.3135,-2.3135,-2.3135,-2.3135,-2.3135,-2.3135,-2.3135,-2.3135,-2.3135,-2.3135,-2.3135,-2.3135,-2.3135,-2.3212,-2.3551,-2.3627,-2.38,-2.4145,-2.4145,-2.4145,-2.4145,-2.38,-2.3627,-2.3637,-2.3222,-2.3135,-2.1227,-2.0348,0.0,-1.9281,-1.8739,-1.8227,-1.8029,0.0,0.0,0.0,0.0,0.0,0.0,0.0,0.0,0.0,0.0,0.0,0.0,0.0,0.0,0.0,0.0,0.0,0.0,0.0,0.0,0.0,0.0,0.0,0.0,0.0,0.0,0.0,0.0,0.0,0.0,0.0,0.0,0.0,-2.1923,-2.2098,-2.2348,-2.2409,-2.273,-2.3264,-2.3464,-2.3514,-2.3523,-2.4847,-2.5169,-2.4765,-2.5064,-2.5137,-2.5116,-2.4894,-2.4357,-2.3756,-2.425,-2.3575,-2.2569,-2.2771,-2.2891,-2.292,-2.3086,-2.3135,-2.3135,-2.3135,-2.3135,-2.3135,-2.3135,-2.3135,-2.3135,-2.3135,-2.3135,-2.3135,-2.3135,-2.3135,-2.3135,-2.3135,-2.3135,-2.3135,-2.3135,-2.3135,-2.3135,-2.3135,-2.3135,-2.3135,-2.3135,-2.3135,-2.3135,-2.3135,-2.3135,-2.3135,-2.3135,-2.3135,-2.3135,-2.3135,-2.3135,-2.3135,-2.3135,-2.3135,-2.3135,-2.3135,-2.3135,-2.3135,-2.3135,-2.3135,-2.3135,-2.3135,-2.3135,-2.3135,-2.1227,-2.0299,0.0,-1.966,-1.862,0.0,-1.6754,0.0,0.0,0.0,0.0,0.0,0.0,0.0,0.0,0.0,0.0,0.0,0.0,0.0,0.0,0.0,0.0,0.0,0.0,0.0,0.0,0.0,0.0,0.0,0.0,0.0,0.0,0.0,0.0,0.0,0.0,0.0,0.0,0.0,0.0,-2.3078,-2.3103,-2.324,-2.3523,-2.4029,-2.4582,-2.4263,-2.349,-2.4406,-2.5134,-2.5532,-2.4643,-2.4897,-2.5694,-2.5828,-2.5156,-2.434,-2.4758,-2.3939,-2.2652,-2.2542,-2.249,-2.2539,-2.2959,-2.3086,-2.3086,-2.3086,-2.3105,-2.3135,-2.3135,-2.3135,-2.3135,-2.3135,-2.3135,-2.3135,-2.3135,-2.3135,-2.3135,-2.3135,-2.3135,-2.3135,-2.3135,-2.3135,-2.3135,-2.3135,-2.3135,-2.3135,-2.3135,-2.3135,-2.3135,-2.3135,-2.3135,-2.3135,-2.3135,-2.3135,-2.3135,-2.3135,-2.3135,-2.3135,-2.3135,-2.3135,-2.3135,-2.3135,-2.3135,-2.3135,-2.3135,-2.3135,-2.3135,-2.3135,-2.3135,-2.3135,-2.075,-2.0054,0.0,0.0,-1.9484,-1.9097,0.0,0.0,0.0,0.0,0.0,0.0,0.0,0.0,0.0,0.0,0.0,0.0,0.0,0.0,0.0,0.0,0.0,0.0,0.0,0.0,0.0,0.0,0.0,0.0,0.0,0.0,0.0,0.0,0.0,0.0,0.0,0.0,0.0,0.0,-2.2924,-2.3078,-2.3078,-2.312,-2.348,-2.4029,-2.4582,-2.4678,-2.4471,-2.4691,-2.5134,-2.5598,-2.5386,-2.5741,-2.6338,-2.6338,-2.5681,-2.4798,-2.448,-2.3667,-2.2652,-2.2542,-2.2295,-2.21,-2.2519,-2.2646,-2.2646,-2.2646,-2.2881,-2.3135,-2.3135,-2.3135,-2.3135,-2.3135,-2.3135,-2.3135,-2.3135,-2.3135,-2.3135,-2.3135,-2.3135,-2.3135,-2.3135,-2.3135,-2.3135,-2.3135,-2.3135,-2.3135,-2.3135,-2.3135,-2.3135,-2.3135,-2.3135,-2.3135,-2.3135,-2.3135,-2.3135,-2.3135,-2.3135,-2.3135,-2.3135,-2.3135,-2.3135,-2.3135,-2.3135,-2.3135,-2.3135,-2.3135,-2.3135,-2.3135,-2.3135,-2.3135,-2.0863,0.0,0.0,-1.8688,0.0,-1.887,0.0,0.0,0.0,0.0,0.0,0.0,0.0,0.0,0.0,0.0,0.0,0.0,0.0,0.0,0.0,0.0,0.0,0.0,0.0,0.0,0.0,0.0,0.0,0.0,0.0,0.0,0.0,0.0,0.0,0.0,-2.0706,-2.0953,-2.138,-2.192,-2.2209,-2.2347,-2.2359,-2.2899,-2.3301,-2.3602,-2.3891,-2.4017,-2.4017,-2.4017,-2.4343,-2.4858,-2.5121,-2.5561,-2.6076,-2.642,-2.6164,-2.5548,-2.426,-2.3533,-2.297,-2.2149,-2.1758,-2.165,-2.208,-2.2207,-2.2207,-2.2207,-2.251,-2.2832,-2.2832,-2.2988,-2.3135,-2.3135,-2.3135,-2.3135,-2.3135,-2.3135,-2.3135,-2.3135,-2.3135,-2.3135,-2.3135,-2.3135,-2.3135,-2.3135,-2.3135,-2.3135,-2.3135,-2.3135,-2.3135,-2.3135,-2.3135,-2.3135,-2.3135,-2.3135,-2.3135,-2.3135,-2.3135,-2.3135,-2.3135,-2.3135,-2.3135,-2.3135,-2.3135,-2.3135,-2.3135,-2.3135,-2.3135,-2.3135,-2.3135,-2.3135,-2.1054,0.0,-1.865,-1.7585,-1.7761,0.0,0.0,0.0,0.0,0.0,0.0,0.0,0.0,0.0,0.0,0.0,0.0,0.0,0.0,0.0,0.0,0.0,0.0,0.0,0.0,0.0,0.0,0.0,0.0,0.0,0.0,0.0,0.0,0.0,0.0,0.0,-2.0567,-2.0668,-2.0891,-2.1343,-2.1443,-2.1493,-2.1518,-2.2435,-2.2849,-2.2862,-2.289,-2.2927,-2.294,-2.3027,-2.3477,-2.4054,-2.4607,-2.5146,-2.5661,-2.6251,-2.6533,-2.6233,-2.4397,-2.3745,-2.353,-2.2148,-2.1561,-2.1431,-2.1876,-2.1932,-2.1777,-2.1777,-2.208,-2.2422,-2.249,-2.2773,-2.3047,-2.3125,-2.3135,-2.3135,-2.3135,-2.3135,-2.3135,-2.3135,-2.3135,-2.3135,-2.3135,-2.3135,-2.3135,-2.3135,-2.3135,-2.3135,-2.3135,-2.3135,-2.3135,-2.3135,-2.3135,-2.3135,-2.3135,-2.3135,-2.3135,-2.3135,-2.3135,-2.3135,-2.3135,-2.3135,-2.3135,-2.3135,-2.3135,-2.3135,-2.3135,-2.3135,-2.3135,-2.3135,-2.3135,-2.3135,0.0,0.0,-1.865,0.0,-1.7761,-1.8048,0.0,0.0,0.0,0.0,0.0,0.0,0.0,0.0,0.0,0.0,0.0,0.0,0.0,0.0,0.0,0.0,0.0,0.0,0.0,0.0,0.0,0.0,0.0,0.0,0.0,0.0,0.0,0.0,0.0,0.0,-1.9911,-2.0413,-2.0756,-2.0832,-2.1255,-2.1493,-2.1493,-2.1644,-2.1707,-2.1732,-2.2221,-2.2422,-2.246,-2.2937,-2.3477,-2.4054,-2.4607,-2.5146,-2.5661,-2.6251,-2.6533,-2.6314,-2.5229,-2.4791,-2.4718,-2.4033,-2.2917,-2.1987,-2.2455,-2.1999,-2.1318,-2.1318,-2.1641,-2.2051,-2.2412,-2.2549,-2.2685,-2.3057,-2.3135,-2.3135,-2.3135,-2.3135,-2.3135,-2.3135,-2.3135,-2.3135,-2.3135,-2.3135,-2.3135,-2.3135,-2.3135,-2.3135,-2.3135,-2.3135,-2.3135,-2.3135,-2.3135,-2.3135,-2.3135,-2.3135,-2.3135,-2.3135,-2.3135,-2.3135,-2.3135,-2.3135,-2.3135,-2.3135,-2.3135,-2.3135,-2.3135,-2.3135,-2.3135,-2.3135,-2.3135,-2.3135,-1.9525,-1.8774,-1.8185,0.0,-1.7072,-1.7178,0.0,0.0,0.0,0.0,0.0,0.0,0.0,0.0,0.0,0.0,0.0,0.0,0.0,0.0,0.0,0.0,0.0,0.0,0.0,0.0,0.0,0.0,0.0,0.0,0.0,-1.9798,-1.9798,-1.9798,-1.9798,0.0,-1.9798,-2.0049,-2.0188,-2.0188,-2.0426,-2.0539,-2.0539,-2.0539,-2.0891,-2.1518,-2.2071,-2.2309,-2.2347,-2.2912,-2.3288,-2.3577,-2.4142,-2.4506,-2.477,-2.5335,-2.5548,-2.5403,-2.441,-2.4246,-2.439,-2.3587,-2.2733,-2.2069,-2.2279,-2.1592,-2.0859,-2.0859,-2.1182,-2.1621,-2.2051,-2.2334,-2.2617,-2.3037,-2.3135,-2.3135,-2.3135,-2.3135,-2.3135,-2.3135,-2.3135,-2.3135,-2.3135,-2.3135,-2.3135,-2.3135,-2.3135,-2.3135,-2.3135,-2.3135,-2.3135,-2.3135,-2.3135,-2.3135,-2.3135,-2.3135,-2.3135,-2.3135,-2.3135,-2.3135,-2.3135,-2.3135,-2.3135,-2.3135,-2.3135,-2.3135,-2.3135,-2.3135,-2.3135,-2.3135,-2.3135,-2.3135,0.0,0.0,-1.7827,-1.6752,-1.6522,-1.6479,0.0,0.0,0.0,0.0,0.0,0.0,0.0,0.0,0.0,0.0,0.0,0.0,0.0,0.0,0.0,0.0,0.0,0.0,0.0,0.0,0.0,0.0,0.0,0.0,0.0,-1.9798,-1.9798,-1.9798,-1.9798,-1.9798,-1.9798,-1.9798,-1.9798,-1.9798,-1.9798,-1.9798,-1.9798,-1.9798,-2.0263,-2.1091,-2.1644,-2.197,-2.2133,-2.2548,-2.2874,-2.3115,-2.3615,-2.3866,-2.4067,-2.4619,-2.482,-2.4703,-2.4122,-2.4157,-2.445,-2.3863,-2.3067,-2.2403,-2.2403,-2.1517,-2.0566,-2.0566,-2.081,-2.1191,-2.1748,-2.2119,-2.248,-2.3018,-2.3135,-2.3135,-2.3135,-2.3135,-2.3135,-2.3135,-2.3135,-2.3135,-2.3135,-2.3135,-2.3135,-2.3135,-2.3135,-2.3135,-2.3135,-2.3135,-2.3135,-2.3135,-2.3135,-2.3135,-2.3135,-2.3135,-2.3135,-2.3135,-2.3135,-2.3135,-2.3135,-2.3135,-2.3135,-2.3135,-2.3135,-2.3135,-2.3135,-2.3135,-2.3135,-2.3135,-2.3135,-2.3135,-1.8451,-1.8106,0.0,-1.6752,0.0,0.0,0.0,0.0,0.0,0.0,0.0,0.0,0.0,0.0,0.0,0.0,0.0,0.0,0.0,0.0,0.0,0.0,0.0,0.0,0.0,0.0,0.0,0.0,0.0,0.0,-1.9773,-1.9798,-1.9798,-1.9798,-1.9798,-1.9798,-1.9798,-1.9798,-1.9798,-1.9798,-1.9798,-1.9798,-1.9798,-1.9798,-1.9836,-1.9924,-2.0501,-2.1041,-2.1531,-2.1556,-2.2184,-2.3078,-2.3103,-2.3514,-2.4067,-2.4619,-2.482,-2.4895,-2.5306,-2.5507,-2.5619,-2.6158,-2.4969,-2.3441,-2.3441,-2.2113,-2.0566,-2.0566,-2.0586,-2.0801,-2.166,-2.1904,-2.2129,-2.2939,-2.3135,-2.3135,-2.3135,-2.3135,-2.3135,-2.3135,-2.3135,-2.3135,-2.3135,-2.3135,-2.3135,-2.3135,-2.3135,-2.3135,-2.3135,-2.3135,-2.3135,-2.3135,-2.3135,-2.3135,-2.3135,-2.3135,-2.3135,-2.3135,-2.3135,-2.3135,-2.3135,-2.3135,-2.3135,-2.3135,-2.3135,-2.3135,-2.3135,-2.3135,-2.3135,-2.3135,-2.3135,-2.3135,-1.8451,-1.8106,0.0,-1.6752,0.0,0.0,0.0,0.0,0.0,0.0,0.0,0.0,0.0,0.0,0.0,0.0,0.0,0.0,0.0,0.0,0.0,0.0,0.0,0.0,0.0,0.0,0.0,0.0,0.0,0.0,-1.8769,-1.8781,-1.8781,-1.8781,-1.912,-1.9309,-1.9309,-1.8957,-1.8957,-1.9309,-1.9309,-1.9484,-1.9798,-1.9798,-1.9798,-1.9811,-2.0024,-2.0439,-2.1016,-2.1732,-2.2246,-2.2636,-2.3,-2.3203,-2.3477,-2.3665,-2.3979,-2.4268,-2.4079,-2.4494,-2.5134,-2.5335,-2.4288,-2.3039,-2.3425,-2.2124,-2.0566,-2.0566,-2.0566,-2.0771,-2.166,-2.1885,-2.21,-2.2939,-2.3135,-2.3135,-2.3135,-2.3135,-2.3135,-2.3135,-2.3135,-2.3135,-2.3135,-2.3135,-2.3135,-2.3135,-2.3135,-2.3135,-2.3135,-2.3135,-2.3135,-2.3135,-2.3135,-2.3135,-2.3135,-2.3135,-2.3135,-2.3135,-2.3135,-2.3135,-2.3135,-2.3135,-2.3135,-2.3135,-2.3135,-2.3135,-2.3135,-2.3135,-2.3135,-2.3135,-2.3135,-2.3135,-1.8101,-1.794,0.0,0.0,0.0,0.0,0.0,0.0,0.0,0.0,0.0,0.0,0.0,0.0,0.0,0.0,0.0,0.0,0.0,0.0,0.0,0.0,0.0,0.0,0.0,0.0,0.0,0.0,0.0,0.0,-1.8191,-1.8204,-1.8204,-1.8204,-1.8555,-1.8744,-1.8744,-1.8392,-1.8392,-1.8744,-1.8744,-1.9032,-1.9547,-1.9547,-1.9635,-1.9798,-1.9798,-2.0125,-2.0756,-2.1242,-2.1694,-2.2071,-2.2435,-2.2698,-2.2874,-2.3002,-2.3376,-2.3678,-2.3489,-2.4042,-2.482,-2.482,-2.3978,-2.2994,-2.3151,-2.1997,-2.0566,-2.0566,-2.0566,-2.0732,-2.1475,-2.1885,-2.2275,-2.2969,-2.3135,-2.3135,-2.3135,-2.3135,-2.3135,-2.3135,-2.3135,-2.3135,-2.3135,-2.3135,-2.3135,-2.3135,-2.3135,-2.3135,-2.3135,-2.3135,-2.3135,-2.3135,-2.3135,-2.3135,-2.3135,-2.3135,-2.3135,-2.3135,-2.3135,-2.3135,-2.3135,-2.3135,-2.3135,-2.3135,-2.3135,-2.3135,-2.3135,-2.3135,-2.3135,-2.3135,-2.3135,-2.3135,0.0,0.0,0.0,0.0,0.0,0.0,0.0,0.0,0.0,0.0,0.0,0.0,0.0,0.0,0.0,0.0,0.0,0.0,0.0,0.0,0.0,0.0,0.0,0.0,0.0,0.0,0.0,0.0,0.0,0.0,-1.8129,-1.8154,-1.8166,-1.8179,-1.8166,-1.8166,-1.8179,-1.8166,-1.8166,-1.8179,-1.8179,-1.848,-1.8983,-1.8983,-1.9309,-1.9798,-1.9798,-2.0125,-2.0655,-2.0049,-2.0476,-2.1468,-2.1493,-2.1845,-2.2372,-2.2924,-2.3078,-2.3238,-2.3791,-2.4343,-2.4795,-2.4808,-2.4193,-2.3391,-2.2871,-2.1766,-2.0566,-2.0566,-2.0566,-2.0674,-2.1123,-2.1865,-2.2598,-2.2998,-2.3105,-2.3125,-2.3125,-2.3125,-2.3135,-2.3135,-2.3135,-2.3135,-2.3135,-2.3135,-2.3135,-2.3135,-2.3135,-2.3135,-2.3135,-2.3135,-2.3135,-2.3135,-2.3135,-2.3135,-2.3135,-2.3135,-2.3135,-2.3135,-2.3135,-2.3135,-2.3135,-2.3135,-2.3135,-2.3135,-2.3135,-2.3135,-2.3135,-2.3135,-2.3135,-2.3135,-2.3135,-2.3135,-1.839,0.0,0.0,0.0,0.0,0.0,0.0,0.0,0.0,0.0,0.0,0.0,0.0,0.0,0.0,0.0,0.0,0.0,0.0,0.0,0.0,0.0,0.0,0.0,0.0,0.0,0.0,0.0,0.0,-1.6823,-1.6974,-1.6986,-1.7174,-1.7601,-1.72,-1.7187,-1.7601,-1.72,-1.72,-1.7614,-1.7614,-1.8103,-1.8983,-1.8983,-1.9309,-1.9798,-1.9798,-1.9899,-2.0062,-2.0326,-2.0668,-2.102,-2.1769,-2.2184,-2.2372,-2.2924,-2.3401,-2.3715,-2.3464,-2.3753,-2.4293,-2.4695,-2.3704,-2.2492,-2.3072,-2.2018,-2.0566,-2.0566,-2.0566,-2.0674,-2.1123,-2.1641,-2.209,-2.2207,-2.2461,-2.2685,-2.2685,-2.292,-2.3135,-2.3135,-2.3135,-2.3135,-2.3135,-2.3135,-2.3135,-2.3135,-2.3135,-2.3135,-2.3135,-2.3135,-2.3135,-2.3135,-2.3135,-2.3135,-2.3135,-2.3135,-2.3135,-2.3135,-2.3135,-2.3135,-2.3135,-2.3135,-2.3135,-2.3135,-2.3135,-2.3135,-2.3135,-2.3135,-2.3135,-2.3135,-2.3135,-2.3135,-1.8164,-1.7938,0.0,0.0,0.0,0.0,-1.5195,-1.508,0.0,0.0,0.0,0.0,0.0,0.0,0.0,0.0,0.0,0.0,0.0,0.0,0.0,0.0,0.0,0.0,0.0,0.0,0.0,0.0,-1.6522,-1.6522,-1.6522,-1.6522,-1.6672,-1.7011,-1.6685,-1.6685,-1.7024,-1.6685,-1.6685,-1.7024,-1.7024,-1.7601,-1.8681,-1.8681,-1.9095,-1.9798,-1.9798,-1.9798,-1.9823,-2.0162,-2.03,-2.0413,-2.1531,-2.197,-2.2071,-2.2849,-2.3351,-2.359,-2.319,-2.3514,-2.4017,-2.4092,-2.3221,-2.2288,-2.2726,-2.1818,-2.0566,-2.0566,-2.0566,-2.0674,-2.1123,-2.1426,-2.166,-2.1846,-2.2207,-2.251,-2.251,-2.2842,-2.3135,-2.3135,-2.3135,-2.3135,-2.3135,-2.3135,-2.3135,-2.3135,-2.3135,-2.3135,-2.3135,-2.3135,-2.3135,-2.3135,-2.3135,-2.3135,-2.3135,-2.3135,-2.3135,-2.3135,-2.3135,-2.3135,-2.3135,-2.3135,-2.3135,-2.3135,-2.3135,-2.3135,-2.3135,-2.3135,-2.3135,-2.3135,-2.3135,-2.3135,-1.7525,-1.7341,0.0,0.0,0.0,0.0,-1.4511,-1.444,-1.4266,0.0,0.0,0.0,0.0,0.0,0.0,0.0,0.0,0.0,0.0,0.0,0.0,0.0,0.0,0.0,0.0,0.0,0.0,-1.6522,-1.6522,-1.6522,-1.6522,-1.6522,-1.6522,-1.6522,-1.6522,-1.6522,-1.6522,-1.6522,-1.6522,-1.6522,-1.6522,-1.7112,-1.8204,-1.8204,-1.8794,-1.9798,-1.9798,-1.9798,-1.9798,-1.9798,-1.9798,-1.9911,-2.1041,-2.1493,-2.1619,-2.2723,-2.3078,-2.3078,-2.3078,-2.3477,-2.3828,-2.3376,-2.2888,-2.2481,-2.2032,-2.124,-2.043,-2.0478,-2.0527,-2.0654,-2.1055,-2.1162,-2.126,-2.165,-2.206,-2.2373,-2.2373,-2.2734,-2.3066,-2.3066,-2.3105,-2.3135,-2.3135,-2.3135,-2.3135,-2.3135,-2.3135,-2.3135,-2.3135,-2.3135,-2.3135,-2.3135,-2.3135,-2.3135,-2.3135,-2.3135,-2.3135,-2.3135,-2.3135,-2.3135,-2.3135,-2.3135,-2.3135,-2.3135,-2.3135,-2.3135,-2.3135,-2.3135,-2.3135,-2.3135,-2.3135,-2.3164,0.0,0.0,0.0,0.0,0.0,0.0,-1.4902,-1.4631,-1.4318,0.0,0.0,0.0,0.0,0.0,0.0,0.0,0.0,0.0,0.0,0.0,0.0,0.0,0.0,0.0,0.0,0.0,0.0,-1.6522,-1.6522,-1.6522,-1.6522,-1.6522,-1.6522,-1.6522,-1.6522,-1.6522,-1.6522,-1.6522,-1.6522,-1.6522,-1.6522,-1.7112,-1.8204,-1.8204,-1.8794,-1.9798,-1.9798,-1.9798,-1.9798,-1.9798,-1.9798,-1.9911,-2.1041,-2.1493,-2.1619,-2.2723,-2.3078,-2.3078,-2.3078,-2.3153,-2.3364,-2.3715,-2.2774,-2.1587,-2.1878,-2.086,-1.9609,-1.9951,-2.0293,-2.0586,-2.0674,-2.0693,-2.0713,-2.0801,-2.1162,-2.1484,-2.1484,-2.209,-2.2637,-2.2637,-2.291,-2.3135,-2.3135,-2.3135,-2.3135,-2.3135,-2.3135,-2.3135,-2.3135,-2.3135,-2.3135,-2.3135,-2.3135,-2.3135,-2.3135,-2.3135,-2.3135,-2.3135,-2.3135,-2.3135,-2.3135,-2.3135,-2.3135,-2.3135,-2.3135,-2.3135,-2.3135,-2.3135,-2.3135,-2.3135,-2.3135,-2.333,0.0,0.0,0.0,-1.7034,0.0,0.0,0.0,-1.4755,0.0,0.0,0.0,0.0,0.0,0.0,0.0,0.0,0.0,0.0,0.0,0.0,0.0,0.0,0.0,0.0,0.0,0.0,-1.6522,-1.6522,-1.6522,-1.6522,-1.6522,-1.6522,-1.6522,-1.6522,-1.6522,-1.6522,-1.6522,-1.6522,-1.6522,-1.6522,-1.6522,-1.6974,-1.7802,-1.8078,-1.8643,-1.9434,-1.9685,-1.9798,-1.9798,-1.9798,-1.9798,-1.9886,-2.074,-2.1079,-2.1179,-2.2008,-2.2485,-2.2723,-2.2723,-2.2912,-2.3128,-2.3477,-2.2488,-2.1286,-2.1531,-2.0642,-1.9648,-1.9853,-2.0225,-2.0566,-2.0566,-2.0566,-2.0566,-2.0566,-2.0908,-2.123,-2.123,-2.1748,-2.2266,-2.2471,-2.2685,-2.2891,-2.3105,-2.3135,-2.3135,-2.3135,-2.3135,-2.3135,-2.3135,-2.3135,-2.3135,-2.3135,-2.3135,-2.3135,-2.3135,-2.3135,-2.3135,-2.3135,-2.3135,-2.3135,-2.3135,-2.3135,-2.3135,-2.3135,-2.3135,-2.3135,-2.3135,-2.3135,-2.3135,-2.3135,-2.3135,-2.3262,0.0,0.0,0.0,0.0,0.0,-1.6268,0.0,0.0,0.0,0.0,0.0,0.0,0.0,0.0,0.0,0.0,0.0,0.0,0.0,0.0,0.0,0.0,0.0,0.0,0.0,0.0,0.0,-1.6479,-1.6522,-1.6522,-1.6522,-1.6522,-1.6522,-1.6522,-1.6522,-1.6522,-1.6522,-1.6522,-1.6522,-1.6522,-1.6522,-1.6823,-1.74,-1.784,-1.8342,-1.8894,-1.9309,-1.9497,-1.9497,-1.961,-1.966,-1.9723,-2.0401,-2.0718,-2.0781,-2.128,-2.1832,-2.2309,-2.2309,-2.2673,-2.3078,-2.3078,-2.2202,-2.103,-2.0709,-2.0151,-1.9687,-1.9775,-2.0107,-2.0459,-2.0547,-2.0566,-2.0566,-2.0566,-2.084,-2.1103,-2.1103,-2.1455,-2.1855,-2.2197,-2.2402,-2.2646,-2.3066,-2.3135,-2.3135,-2.3135,-2.3135,-2.3135,-2.3135,-2.3135,-2.3135,-2.3135,-2.3135,-2.3135,-2.3135,-2.3135,-2.3135,-2.3135,-2.3135,-2.3135,-2.3135,-2.3135,-2.3135,-2.3135,-2.3135,-2.3135,-2.3135,-2.3135,-2.3135,-2.3135,-2.3135,-2.3184,0.0,0.0,0.0,0.0,-1.6837,0.0,0.0,0.0,0.0,0.0,0.0,0.0,0.0,0.0,0.0,0.0,0.0,0.0,0.0,0.0,0.0,0.0,0.0,0.0,0.0,0.0,0.0,0.0,-1.6522,-1.6522,-1.6522,-1.6522,-1.6522,-1.6522,-1.6522,-1.6522,-1.6522,-1.6522,-1.6522,-1.6522,-1.6522,-1.6823,-1.7388,-1.7451,-1.7777,-1.8304,-1.8367,-1.8392,-1.843,-1.892,-1.912,-1.9221,-2.0263,-2.0718,-2.0781,-2.128,-2.1832,-2.2309,-2.2309,-2.2673,-2.3078,-2.3078,-2.2025,-2.041,-1.8859,-1.8537,-1.8867,-1.9248,-1.9668,-2.0078,-2.0469,-2.0566,-2.0566,-2.0566,-2.0605,-2.0644,-2.0644,-2.0996,-2.1318,-2.1367,-2.1992,-2.2646,-2.3066,-2.3135,-2.3135,-2.3135,-2.3135,-2.3135,-2.3135,-2.3135,-2.3135,-2.3135,-2.3135,-2.3135,-2.3135,-2.3135,-2.3135,-2.3135,-2.3135,-2.3135,-2.3135,-2.3135,-2.3135,-2.3135,-2.3135,-2.3135,-2.3135,-2.3135,-2.3135,-2.3135,-2.3135,-2.335,0.0,0.0,0.0,0.0,0.0,0.0,0.0,0.0,-1.5454,0.0,0.0,0.0,0.0,0.0,0.0,0.0,0.0,0.0,0.0,0.0,0.0,0.0,0.0,0.0,0.0,0.0,0.0,0.0,0.0,-1.6522,-1.6522,-1.6522,-1.6522,-1.6522,-1.6522,-1.6522,-1.6522,-1.6522,-1.6522,-1.6522,-1.6522,-1.6647,-1.6886,-1.7225,-1.7501,-1.7739,-1.8066,-1.8204,-1.8229,-1.8455,-1.8744,-1.907,-1.9535,-1.9899,-2.0188,-2.0426,-2.0865,-2.1405,-2.1719,-2.1882,-2.1765,-2.1123,-2.0771,-2.0268,-1.8529,-1.8301,-1.873,-1.916,-1.9414,-1.9707,-2.0391,-2.0381,-2.0254,-2.0508,-2.0566,-2.0566,-2.0566,-2.0713,-2.0996,-2.1514,-2.1904,-2.2353,-2.3027,-2.3135,-2.3135,-2.3135,-2.3135,-2.3135,-2.3135,-2.3135,-2.3135,-2.3135,-2.3135,-2.3135,-2.3135,-2.3135,-2.3135,-2.3135,-2.3135,-2.3135,-2.3135,-2.3135,-2.3135,-2.3135,-2.3135,-2.3135,-2.3135,-2.3135,-2.3135,-2.3135,-2.3135,-2.3379,-1.8774,0.0,0.0,0.0,0.0,0.0,0.0,0.0,0.0,0.0,0.0,0.0,0.0,0.0,0.0,0.0,0.0,0.0,0.0,0.0,0.0,0.0,0.0,0.0,0.0,0.0,0.0,0.0,0.0,0.0,-1.6522,-1.6522,-1.6522,-1.6522,-1.6522,-1.6522,-1.6522,-1.6522,-1.6522,-1.6522,-1.6522,-1.6522,-1.6491,-1.6948,-1.7149,-1.7162,-1.7564,-1.7739,-1.7752,-1.7915,-1.8304,-1.8819,-1.892,-1.9346,-1.9798,-1.9798,-2.0162,-2.0806,-2.1292,-2.1403,-2.1038,-1.9695,-1.9748,-1.9944,-1.8462,-1.8223,-1.8555,-1.8984,-1.9111,-1.9307,-2.0166,-2.0156,-2.0029,-2.0459,-2.0566,-2.0566,-2.0566,-2.0566,-2.0752,-2.1396,-2.1621,-2.1934,-2.2676,-2.2988,-2.3135,-2.3135,-2.3135,-2.3135,-2.3135,-2.3135,-2.3135,-2.3135,-2.3135,-2.3135,-2.3135,-2.3135,-2.3135,-2.3135,-2.3135,-2.3135,-2.3135,-2.3135,-2.3135,-2.3135,-2.3135,-2.3135,-2.3135,-2.3135,-2.3135,-2.3135,-2.3135,-2.3379,0.0,0.0,0.0,0.0,0.0,0.0,0.0,0.0,-1.6151,0.0,0.0,0.0,0.0,0.0,-1.4552,-1.4213,0.0,0.0,0.0,0.0,0.0,0.0,0.0,0.0,0.0,0.0,0.0,0.0,0.0,0.0,-1.6522,-1.6522,-1.6522,-1.6522,-1.6522,-1.6522,-1.6522,-1.6522,-1.6522,-1.6522,-1.6522,-1.6522,-1.6522,-1.6534,-1.6547,-1.6547,-1.6559,-1.6572,-1.6609,-1.7174,-1.7739,-1.8292,-1.8819,-1.9346,-1.9798,-1.9798,-2.0162,-2.0806,-2.1292,-2.166,-2.1604,-1.9879,-1.9299,-1.9177,-1.8269,-1.8018,-1.8115,-1.8545,-1.8592,-1.8848,-1.9717,-1.9922,-2.0029,-2.0459,-2.0566,-2.0566,-2.0566,-2.0566,-2.0576,-2.0605,-2.0957,-2.1396,-2.1846,-2.2598,-2.3135,-2.3135,-2.3135,-2.3135,-2.3135,-2.3135,-2.3135,-2.3135,-2.3135,-2.3135,-2.3135,-2.3135,-2.3135,-2.3135,-2.3135,-2.3135,-2.3135,-2.3135,-2.3135,-2.3135,-2.3135,-2.3135,-2.3135,-2.3135,-2.3135,-2.3135,-2.3135,-2.3379,0.0,0.0,-1.8993,-1.7653,0.0,0.0,0.0,0.0,0.0,0.0,0.0,0.0,0.0,0.0,-1.4459,-1.5516,-1.4992,-1.4767,0.0,0.0,0.0,0.0,0.0,0.0,0.0,0.0,0.0,0.0,0.0,0.0,0.0,-1.6522,-1.6522,-1.6522,-1.6522,-1.6522,-1.6522,-1.6522,-1.6522,-1.6522,-1.6522,-1.6522,-1.6522,-1.6522,-1.6522,-1.6522,-1.6522,-1.6522,-1.6559,-1.7137,-1.7714,-1.8254,-1.8819,-1.9346,-1.9798,-1.9798,-1.9924,-2.0055,-1.9861,-2.0141,-2.0341,-1.8874,-1.8854,-1.911,-1.8269,-1.8008,-1.8096,-1.8516,-1.8437,-1.8418,-1.9277,-1.9287,-1.9248,-1.9961,-2.0137,-2.0215,-2.0498,-2.0566,-2.0654,-2.0947,-2.1133,-2.1465,-2.2178,-2.1816,-2.1907,-2.2911,-2.3135,-2.3135,-2.3135,-2.3135,-2.3135,-2.3135,-2.2403,-2.2217,-2.3047,-2.3135,-2.3135,-2.3135,-2.3135,-2.3135,-2.3135,-2.3135,-2.3135,-2.3135,-2.3135,-2.3135,-2.3135,-2.3135,-2.3291,-2.3574,-2.3574,-2.3799,-1.9576,-1.9178,0.0,0.0,-1.7034,0.0,0.0,0.0,0.0,0.0,0.0,0.0,0.0,0.0,-1.4824,-1.6008,-1.5186,-1.4915,0.0,-1.6522,0.0,0.0,0.0,0.0,0.0,0.0,0.0,0.0,0.0,0.0,0.0,0.0,-1.6522,-1.6522,-1.6522,-1.6522,-1.6522,-1.6522,-1.6522,-1.6522,-1.6522,-1.6522,-1.6522,-1.6522,-1.6522,-1.6522,-1.6522,-1.6522,-1.6547,-1.6923,-1.74,-1.7965,-1.8518,-1.8896,-1.9152,-1.962,-1.984,-1.9818,-1.9169,-1.9232,-1.9532,-1.8372,-1.8405,-1.8721,-1.8134,-1.8008,-1.8066,-1.834,-1.8223,-1.8174,-1.8877,-1.8848,-1.8848,-1.9707,-1.9912,-2.0029,-2.0469,-2.0566,-2.0654,-2.0937,-2.0996,-2.1221,-2.1934,-2.1118,-2.0948,-2.223,-2.2129,-2.1952,-2.2403,-2.2492,-2.2589,-2.3047,-2.2031,-2.1569,-2.2394,-2.2492,-2.2677,-2.3047,-2.3135,-2.3135,-2.3135,-2.3135,-2.3213,-2.3369,-2.3213,-2.3213,-2.3369,-2.3369,-2.3516,-2.3799,-2.4102,-2.4394]}]]